[[{"header":{"parameterUnit":"m.s-1","parameterCategory":1,"la1":31.0,"la2":29.5877,"lo1":-88.7671,"lo2":-86.6584,"dx":0.0162,"dy":0.0185,"nx":115,"ny":88,"refTime":"2022-11-07T06:00:00:Z","depth":0,"parameterNumber":2,"parameterNumberName":"U-component_of_WINDS"},"data":[0.0,0.0,0.0,0.0,0.0,0.0,0.0,0.0,0.0,0.0,0.0,0.0,0.0,0.0,0.0,0.0,0.0,0.0,0.0,0.0,0.0,0.0,0.0,0.0,0.0,0.0,0.0,0.0,0.0,0.0,0.0,0.0,0.0,0.0,0.0,0.0,0.0,0.0,0.0,0.0,0.0,0.0,0.0,0.0,0.0,0.0,0.0,0.0,0.0,0.0,0.0,0.0,0.0,0.0,0.0,0.0,0.0,0.0,0.0,0.0,0.0,0.0,0.0,0.0,0.0,0.0,0.0,0.0,0.0,0.0,0.0,0.0,0.0,0.0,0.0,0.0,0.0,0.0,0.0,0.0,0.0,0.0,0.0,0.0,0.0,0.0,0.0,0.0,0.0,0.0,0.0,0.0,0.0,0.0,0.0,0.0,0.0,0.0,0.0,0.0,0.0,0.0,0.0,0.0,0.0,0.0,0.0,0.0,0.0,0.0,0.0,0.0,0.0,0.0,0.0,0.0,0.0,0.0,0.0,0.0,0.0,0.0,0.0,0.0,0.0,0.0,0.0,0.0,0.0,0.0,0.0,0.0,0.0,0.0,0.0,0.0,0.0,0.0,0.0,0.0,0.0,0.0,0.0,0.0,0.0,0.0,0.0,0.0,0.0,0.0,0.0,0.0,0.0,0.0,0.0,0.0,0.0,0.0,0.0,0.0,0.0,0.0,0.0,0.0,0.0,0.0,0.0,0.0,0.0,0.0,0.0,0.0,0.0,0.0,0.0,0.0,0.0,0.0,0.0,0.0,0.0,0.0,0.0,0.0,0.0,0.0,0.0,0.0,0.0,0.0,0.0,0.0,0.0,0.0,0.0,0.0,0.0,0.0,0.0,0.0,0.0,0.0,0.0,0.0,0.0,0.0,0.0,0.0,0.0,0.0,0.0,0.0,0.0,0.0,0.0,0.0,0.0,0.0,0.0,0.0,0.0,0.0,0.0,0.0,0.0,0.0,0.0,0.0,0.0,0.0,0.0,0.0,0.0,0.0,0.0,0.0,0.0,0.0,0.0,0.0,0.0,0.0,0.0,0.0,0.0,0.0,0.0,0.0,0.0,0.0,0.0,0.0,0.0,0.0,0.0,0.0,0.0,0.0,0.0,0.0,0.0,0.0,0.0,0.0,0.0,0.0,0.0,0.0,0.0,0.0,0.0,0.0,0.0,0.0,0.0,0.0,0.0,0.0,0.0,0.0,0.0,0.0,0.0,0.0,0.0,0.0,0.0,0.0,0.0,0.0,0.0,0.0,0.0,0.0,0.0,0.0,0.0,0.0,0.0,0.0,0.0,0.0,0.0,0.0,0.0,0.0,0.0,0.0,0.0,0.0,0.0,0.0,0.0,0.0,0.0,0.0,0.0,0.0,0.0,0.0,0.0,0.0,0.0,0.0,0.0,0.0,0.0,0.0,0.0,0.0,0.0,0.0,0.0,0.0,0.0,0.0,0.0,0.0,0.0,0.0,0.0,0.0,0.0,0.0,0.0,0.0,0.0,0.0,0.0,0.0,0.0,0.0,0.0,0.0,0.0,0.0,0.0,0.0,0.0,0.0,0.0,0.0,0.0,0.0,0.0,0.0,0.0,0.0,0.0,0.0,0.0,0.0,0.0,0.0,0.0,0.0,0.0,0.0,0.0,0.0,0.0,0.0,0.0,0.0,0.0,0.0,0.0,0.0,0.0,0.0,0.0,0.0,0.0,0.0,0.0,0.0,0.0,0.0,0.0,0.0,0.0,0.0,0.0,0.0,0.0,0.0,0.0,0.0,0.0,0.0,0.0,0.0,0.0,0.0,0.0,0.0,0.0,0.0,0.0,0.0,0.0,0.0,0.0,0.0,0.0,0.0,0.0,0.0,0.0,0.0,0.0,0.0,0.0,0.0,0.0,0.0,0.0,0.0,0.0,0.0,0.0,0.0,0.0,0.0,0.0,0.0,0.0,0.0,0.0,0.0,0.0,0.0,0.0,0.0,0.0,0.0,0.0,0.0,0.0,0.0,0.0,0.0,0.0,0.0,0.0,0.0,0.0,0.0,0.0,0.0,0.0,0.0,0.0,0.0,0.0,0.0,0.0,0.0,0.0,0.0,0.0,0.0,0.0,0.0,0.0,0.0,0.0,0.0,0.0,0.0,0.0,0.0,0.0,0.0,0.0,0.0,0.0,0.0,0.0,0.0,0.0,0.0,0.0,0.0,0.0,0.0,0.0,0.0,0.0,0.0,0.0,0.0,0.0,0.0,0.0,0.0,0.0,0.0,0.0,0.0,0.0,0.0,0.0,0.0,0.0,0.0,0.0,0.0,0.0,0.0,0.0,0.0,0.0,0.0,0.0,0.0,0.0,0.0,0.0,0.0,0.0,0.0,0.0,0.0,0.0,0.0,0.0,0.0,0.0,0.0,0.0,0.0,0.0,0.0,0.0,0.0,0.0,0.0,0.0,0.0,0.0,0.0,0.0,0.0,0.0,0.0,0.0,0.0,0.0,0.0,0.0,0.0,0.0,0.0,0.0,0.0,0.0,0.0,0.0,0.0,0.0,0.0,0.0,0.0,0.0,0.0,0.0,0.0,0.0,0.0,0.0,0.0,0.0,0.0,0.0,0.0,0.0,0.0,0.0,0.0,0.0,0.0,0.0,0.0,0.0,0.0,0.0,0.0,0.0,0.0,0.0,0.0,0.0,0.0,0.0,0.0,0.0,0.0,0.0,0.0,0.0,0.0,0.0,0.0,0.0,0.0,0.0,0.0,0.0,0.0,0.0,0.0,0.0,0.0,0.0,0.0,0.0,0.0,0.0,0.0,0.0,0.0,0.0,0.0,0.0,0.0,0.0,0.0,0.0,0.0,0.0,0.0,0.0,0.0,0.0,0.0,0.0,0.0,0.0,0.0,0.0,0.0,0.0,0.0,0.0,0.0,0.0,0.0,0.0,0.0,0.0,0.0,0.0,0.0,0.0,0.0,0.0,0.0,0.0,0.0,0.0,0.0,0.0,0.0,0.0,0.0,0.0,0.0,0.0,0.0,0.0,0.0,0.0,0.0,0.0,0.0,0.0,0.0,0.0,0.0,0.0,0.0,0.0,0.0,0.0,0.0,0.0,0.0,0.0,0.0,0.0,0.0,0.0,0.0,0.0,0.0,0.0,0.0,0.0,0.0,0.0,0.0,0.0,0.0,0.0,0.0,0.0,0.0,0.0,0.0,0.0,0.0,0.0,0.0,0.0,0.0,0.0,0.0,0.0,0.0,0.0,0.0,0.0,0.0,0.0,0.0,0.0,0.0,0.0,0.0,0.0,0.0,0.0,0.0,0.0,0.0,0.0,0.0,0.0,0.0,0.0,0.0,0.0,0.0,0.0,0.0,0.0,0.0,0.0,0.0,0.0,0.0,0.0,0.0,0.0,0.0,0.0,0.0,0.0,0.0,0.0,0.0,0.0,0.0,0.0,0.0,0.0,0.0,0.0,0.0,0.0,0.0,0.0,0.0,0.0,0.0,0.0,0.0,0.0,0.0,0.0,0.0,0.0,0.0,0.0,0.0,0.0,0.0,0.0,0.0,0.0,0.0,0.0,0.0,0.0,0.0,0.0,0.0,0.0,0.0,0.0,0.0,0.0,0.0,0.0,0.0,0.0,0.0,0.0,0.0,0.0,0.0,0.0,0.0,0.0,0.0,0.0,0.0,0.0,0.0,0.0,0.0,0.0,0.0,0.0,0.0,0.0,0.0,0.0,0.0,0.0,0.0,0.0,0.0,0.0,0.0,0.0,0.0,0.0,0.0,0.0,0.0,0.0,0.0,0.0,0.0,0.0,0.0,0.0,0.0,0.0,0.0,0.0,0.0,0.0,0.0,0.0,0.0,0.0,0.0,0.0,0.0,0.0,0.0,0.0,0.0,0.0,0.0,0.0,0.0,0.0,0.0,0.0,0.0,0.0,0.0,0.0,0.0,0.0,0.0,0.0,0.0,0.0,0.0,0.0,0.0,0.0,0.0,0.0,0.0,0.0,0.0,0.0,0.0,0.0,0.0,0.0,0.0,0.0,0.0,0.0,0.0,0.0,0.0,0.0,0.0,0.0,0.0,0.0,0.0,0.0,0.0,0.0,0.0,0.0,0.0,0.0,0.0,0.0,0.0,0.0,0.0,0.0,0.0,0.0,0.0,0.0,0.0,0.0,0.0,0.0,0.0,0.0,0.0,0.0,0.0,0.0,0.0,0.0,0.0,0.0,0.0,1.5177,0.0,0.0,0.0,1.5109,0.0,0.0,0.0,0.0,0.0,0.0,0.0,0.0,0.0,0.0,0.0,0.0,0.0,0.0,0.0,0.0,0.0,0.0,0.0,0.0,0.0,0.0,0.0,0.0,0.0,0.0,0.0,0.0,0.0,0.0,0.0,0.0,0.0,0.0,0.0,0.0,0.0,0.0,0.0,0.0,0.0,0.0,0.0,0.0,0.0,0.0,0.0,0.0,0.0,0.0,0.0,0.0,0.0,0.0,0.0,0.0,0.0,0.0,0.0,0.0,0.0,0.0,0.0,0.0,0.0,0.0,0.0,0.0,0.0,0.0,0.0,0.0,0.0,0.0,0.0,0.0,0.0,0.0,0.0,0.0,0.0,0.0,0.0,0.0,0.0,0.0,0.0,0.0,0.0,0.0,0.0,0.0,0.0,0.0,0.0,0.0,0.0,0.0,0.0,0.0,0.0,0.0,0.0,0.0,0.0,0.0,0.0,0.0,0.0,0.0,1.5323,1.541,1.541,1.5294,1.5112,0.0,0.0,0.0,0.0,0.0,0.0,0.0,0.0,0.0,0.0,0.0,0.0,0.0,0.0,0.0,0.0,0.0,0.0,0.0,0.0,0.0,0.0,0.0,0.0,0.0,0.0,0.0,0.0,0.0,0.0,0.0,0.0,0.0,0.0,0.0,0.0,0.0,0.0,0.0,0.0,0.0,0.0,0.0,0.0,0.0,0.0,0.0,0.0,0.0,0.0,0.0,0.0,0.0,0.0,0.0,0.0,0.0,0.0,0.0,0.0,0.0,0.0,0.0,0.0,0.0,0.0,0.0,0.0,0.0,0.0,0.0,0.0,0.0,0.0,0.0,0.0,0.0,0.0,0.0,0.0,0.0,0.0,0.0,0.0,0.0,0.0,0.0,0.0,0.0,0.0,0.0,0.0,0.0,0.0,0.0,0.0,0.0,0.0,0.0,0.0,0.0,0.0,0.0,0.0,0.0,0.0,0.0,0.0,0.0,0.0,0.0,0.0,1.5649,1.5516,1.5157,0.0,0.0,0.0,0.0,0.0,0.0,0.0,0.0,0.0,0.0,0.0,0.0,0.0,0.0,0.0,0.0,0.0,0.0,0.0,0.0,0.0,0.0,0.0,0.0,0.0,0.0,0.0,0.0,0.0,0.0,0.0,0.0,0.0,0.0,0.0,0.0,0.0,0.0,0.0,0.0,0.0,0.0,0.0,0.0,0.0,0.0,0.0,0.0,0.0,0.0,0.0,0.0,0.0,0.0,0.0,0.0,0.0,0.0,0.0,0.0,0.0,0.0,0.0,0.0,0.0,0.0,0.0,0.0,0.0,0.0,0.0,0.0,0.0,0.0,0.0,0.0,0.0,0.0,0.0,0.0,0.0,0.0,0.0,0.0,0.0,0.0,0.0,0.0,0.0,0.0,0.0,0.0,0.0,0.0,0.0,0.0,0.0,0.0,0.0,0.0,0.0,0.0,0.0,0.0,0.0,0.0,0.0,0.0,0.0,0.0,1.6026,1.6046,1.6387,0.0,1.5594,0.0,0.0,0.0,0.0,0.0,0.0,0.0,0.0,0.0,0.0,0.0,0.0,0.0,0.0,0.0,0.0,0.0,0.0,0.0,0.0,0.0,0.0,0.0,0.0,0.0,0.0,0.0,0.0,0.0,0.0,0.0,0.0,0.0,0.0,0.0,0.0,0.0,0.0,0.0,0.0,0.0,0.0,0.0,0.0,0.0,0.0,0.0,0.0,0.0,0.0,0.0,0.0,0.0,0.0,0.0,0.0,0.0,0.0,0.0,0.0,0.0,0.0,0.0,0.0,0.0,0.0,0.0,0.0,0.0,0.0,0.0,0.0,0.0,0.0,0.0,0.0,0.0,0.0,0.0,0.0,0.0,0.0,0.0,0.0,0.0,0.0,0.0,0.0,0.0,0.0,0.0,0.0,0.0,0.0,0.0,0.0,0.0,0.0,0.0,0.0,0.0,0.0,0.0,0.0,0.0,0.0,0.0,0.0,0.0,0.0,1.6207,1.6445,1.6546,1.6273,0.0,0.0,0.0,0.0,0.0,0.0,0.0,0.0,0.0,0.0,0.0,0.0,0.0,0.0,0.0,0.0,0.0,0.0,0.0,0.0,0.0,0.0,0.0,0.0,0.0,0.0,0.0,0.0,0.0,0.0,0.0,0.0,0.0,0.0,0.0,0.0,0.0,0.0,0.0,0.0,0.0,0.0,0.0,0.0,0.0,0.0,0.0,0.0,0.0,0.0,0.0,0.0,0.0,0.0,0.0,0.0,0.0,0.0,0.0,0.0,0.0,0.0,0.0,0.0,0.0,0.0,0.0,0.0,0.0,0.0,0.0,0.0,0.0,0.0,0.0,0.0,0.0,0.0,0.0,0.0,0.0,0.0,0.0,0.0,0.0,0.0,0.0,0.0,0.0,0.0,0.0,0.0,0.0,0.0,0.0,0.0,0.0,0.0,0.0,0.0,0.0,0.0,0.0,0.0,0.0,0.0,0.0,0.0,0.0,0.0,1.632,1.6656,1.7035,1.6941,1.6578,1.5884,0.0,0.0,0.0,0.0,0.0,0.0,0.0,0.0,0.0,0.0,0.0,0.0,0.0,0.0,0.0,0.0,0.0,0.0,0.0,0.0,0.0,0.0,0.0,0.0,0.0,0.0,0.0,0.0,0.0,0.0,0.0,0.0,0.0,0.0,0.0,0.0,0.0,0.0,0.0,0.0,0.0,0.0,0.0,0.0,0.0,0.0,0.0,0.0,0.0,0.0,0.0,0.0,0.0,0.0,0.0,0.0,0.0,0.0,0.0,0.0,0.0,0.0,0.0,0.0,0.0,0.0,0.0,0.0,0.0,0.0,0.0,0.0,0.0,0.0,0.0,0.0,0.0,0.0,0.0,0.0,0.0,0.0,0.0,0.0,0.0,0.0,0.0,0.0,0.0,0.0,0.0,0.0,0.0,0.0,0.0,0.0,0.0,0.0,0.0,0.0,0.0,0.0,0.0,0.0,0.0,0.0,0.0,0.0,1.6144,1.693,1.7536,1.7949,1.7915,1.7476,0.0,0.0,0.0,0.0,0.0,0.0,0.0,0.0,0.0,0.0,0.0,0.0,0.0,0.0,0.0,0.0,0.0,0.0,0.0,0.0,0.0,0.0,0.0,0.0,0.0,0.0,0.0,0.0,0.0,0.0,0.0,0.0,0.0,0.0,0.0,0.0,0.0,0.0,0.0,0.0,0.0,0.0,0.0,0.0,0.0,0.0,0.0,0.0,0.0,0.0,0.0,0.0,0.0,0.0,0.0,0.0,0.0,0.0,0.0,0.0,0.0,0.0,0.0,0.0,0.0,0.0,0.0,0.0,0.0,0.0,0.0,0.0,0.0,0.0,0.0,0.0,0.0,0.0,0.0,0.0,0.0,0.0,0.0,0.0,0.0,0.0,0.0,0.0,0.0,0.0,0.0,0.0,0.0,0.0,0.0,0.0,0.0,0.0,0.0,0.0,0.0,0.0,0.0,0.0,0.0,0.0,0.0,0.0,0.0,1.7321,1.8162,1.8672,1.8828,1.8537,1.8059,0.0,0.0,0.0,0.0,0.0,0.0,0.0,0.0,0.0,0.0,0.0,0.0,0.0,0.0,0.0,0.0,0.0,0.0,0.0,0.0,0.0,0.0,0.0,0.0,0.0,0.0,0.0,0.0,0.0,0.0,0.0,0.0,0.0,0.0,0.0,0.0,0.0,0.0,0.0,0.0,0.0,0.0,0.0,0.0,0.0,0.0,0.0,0.0,0.0,0.0,0.0,0.0,0.0,0.0,0.0,0.0,0.0,0.0,0.0,0.0,0.0,0.0,0.0,0.0,0.0,0.0,0.0,0.0,0.0,0.0,0.0,0.0,0.0,0.0,0.0,0.0,0.0,0.0,0.0,0.0,0.0,0.0,0.0,0.0,0.0,0.0,0.0,0.0,0.0,0.0,0.0,0.0,0.0,0.0,0.0,0.0,0.0,0.0,0.0,0.0,0.0,0.0,0.0,0.0,0.0,0.0,0.0,0.0,0.0,1.8576,1.9354,1.9647,1.9492,1.9318,1.8814,0.0,0.0,0.0,0.0,0.0,0.0,0.0,0.0,0.0,0.0,0.0,0.0,0.0,0.0,0.0,0.0,0.0,0.0,0.0,0.0,0.0,0.0,0.0,0.0,0.0,0.0,0.0,0.0,0.0,0.0,0.0,0.0,0.0,0.0,0.0,0.0,0.0,0.0,0.0,0.0,0.0,0.0,0.0,0.0,0.0,0.0,0.0,0.0,0.0,0.0,0.0,0.0,0.0,0.0,0.0,0.0,0.0,0.0,0.0,0.0,0.0,0.0,0.0,0.0,0.0,0.0,0.0,0.0,0.0,0.0,0.0,0.0,0.0,0.0,0.0,0.0,0.0,0.0,0.0,0.0,0.0,0.0,0.0,0.0,0.0,0.0,0.0,0.0,0.0,0.0,0.0,0.0,0.0,0.0,0.0,0.0,0.0,0.0,0.0,0.0,0.0,0.0,0.0,0.0,0.0,0.0,0.0,0.0,1.8635,1.9844,2.0351,2.041,1.9942,2.0332,1.9765,0.0,0.0,0.0,0.0,0.0,0.0,0.0,0.0,0.0,0.0,0.0,0.0,0.0,0.0,0.0,0.0,0.0,0.0,0.0,0.0,0.0,0.0,0.0,0.0,0.0,0.0,0.0,0.0,0.0,0.0,0.0,0.0,0.0,0.0,0.0,0.0,0.0,0.0,0.0,0.0,0.0,0.0,0.0,0.0,0.0,0.0,0.0,0.0,0.0,0.0,0.0,0.0,0.0,0.0,0.0,0.0,0.0,0.0,0.0,0.0,0.0,0.0,0.0,0.0,0.0,0.0,0.0,0.0,0.0,0.0,0.0,0.0,0.0,0.0,0.0,0.0,0.0,0.0,0.0,0.0,0.0,0.0,0.0,0.0,0.0,0.0,0.0,0.0,0.0,0.0,0.0,0.0,0.0,0.0,0.0,0.0,0.0,0.0,0.0,0.0,0.0,0.0,0.0,0.0,0.0,0.0,0.0,0.0,0.0,2.039,2.1114,2.1426,2.1269,2.082,2.0195,0.0,0.0,0.0,0.0,0.0,0.0,0.0,0.0,0.0,0.0,0.0,0.0,0.0,0.0,0.0,0.0,0.0,0.0,0.0,0.0,0.0,0.0,0.0,0.0,0.0,0.0,0.0,0.0,0.0,0.0,0.0,0.0,0.0,0.0,0.0,0.0,0.0,0.0,0.0,0.0,0.0,0.0,0.0,0.0,0.0,0.0,0.0,0.0,0.0,0.0,0.0,0.0,0.0,0.0,0.0,0.0,0.0,0.0,0.0,0.0,0.0,0.0,0.0,0.0,0.0,0.0,0.0,0.0,0.0,0.0,0.0,0.0,0.0,0.0,0.0,0.0,0.0,0.0,0.0,0.0,0.0,0.0,0.0,0.0,0.0,0.0,0.0,0.0,0.0,0.0,0.0,0.0,0.0,0.0,0.0,0.0,0.0,0.0,0.0,0.0,0.0,0.0,0.0,0.0,0.0,0.0,0.0,0.0,0.0,2.2012,2.2383,2.2519,2.2342,2.1837,2.1114,2.0176,0.0,0.0,0.0,0.0,0.0,0.0,0.0,0.0,0.0,0.0,0.0,0.0,0.0,0.0,0.0,0.0,0.0,0.0,0.0,0.0,0.0,0.0,0.0,0.0,0.0,0.0,0.0,0.0,0.0,0.0,0.0,0.0,0.0,0.0,0.0,0.0,0.0,0.0,0.0,0.0,0.0,0.0,0.0,0.0,0.0,0.0,0.0,0.0,0.0,0.0,0.0,0.0,0.0,0.0,0.0,0.0,0.0,0.0,0.0,0.0,0.0,0.0,0.0,0.0,0.0,0.0,0.0,0.0,0.0,0.0,0.0,0.0,0.0,0.0,0.0,0.0,0.0,0.0,0.0,0.0,0.0,0.0,0.0,0.0,0.0,0.0,0.0,0.0,0.0,0.0,0.0,0.0,0.0,0.0,0.0,0.0,0.0,0.0,0.0,0.0,0.0,0.0,0.0,0.0,0.0,0.0,0.0,0.0,2.4469,2.4141,2.375,2.3218,2.3203,2.2423,0.0,0.0,0.0,0.0,0.0,0.0,0.0,0.0,0.0,0.0,0.0,0.0,0.0,0.0,0.0,0.0,0.0,0.0,0.0,0.0,0.0,0.0,0.0,0.0,0.0,0.0,0.0,0.0,0.0,0.0,0.0,0.0,0.0,0.0,0.0,0.0,0.0,0.0,0.0,0.0,0.0,0.0,0.0,0.0,0.0,0.0,0.0,0.0,0.0,0.0,0.0,0.0,0.0,0.0,0.0,0.0,0.0,0.0,0.0,0.0,0.0,0.0,0.0,0.0,0.0,0.0,0.0,0.0,0.0,0.0,0.0,0.0,0.0,0.0,0.0,0.0,0.0,0.0,0.0,0.0,0.0,0.0,0.0,0.0,0.0,0.0,0.0,0.0,0.0,0.0,0.0,0.0,0.0,0.0,0.0,0.0,0.0,0.0,0.0,0.0,0.0,0.0,0.0,0.0,0.0,0.0,0.0,0.0,0.0,2.5347,2.5874,2.5664,2.4633,2.3968,2.299,0.0,0.0,0.0,0.0,0.0,0.0,0.0,0.0,0.0,0.0,0.0,0.0,0.0,0.0,0.0,0.0,0.0,0.0,0.0,0.0,0.0,0.0,0.0,0.0,0.0,0.0,0.0,0.0,0.0,0.0,0.0,0.0,0.0,0.0,0.0,0.0,0.0,0.0,0.0,0.0,0.0,0.0,0.0,0.0,0.0,0.0,0.0,0.0,0.0,0.0,0.0,0.0,0.0,0.0,0.0,0.0,0.0,0.0,0.0,0.0,0.0,0.0,0.0,0.0,0.0,0.0,0.0,0.0,0.0,0.0,0.0,0.0,0.0,0.0,0.0,0.0,0.0,0.0,0.0,0.0,0.0,0.0,0.0,0.0,0.0,0.0,0.0,0.0,0.0,0.0,0.0,0.0,0.0,0.0,0.0,0.0,0.0,0.0,0.0,0.0,0.0,0.0,0.0,0.0,0.0,0.0,0.0,0.0,2.5664,2.6543,2.7207,2.7012,2.5942,2.5059,2.3926,0.0,0.0,0.0,0.0,0.0,0.0,0.0,0.0,0.0,0.0,0.0,0.0,0.0,0.0,0.0,0.0,0.0,0.0,0.0,0.0,0.0,0.0,0.0,0.0,0.0,0.0,0.0,0.0,0.0,0.0,0.0,0.0,0.0,0.0,0.0,0.0,0.0,0.0,0.0,0.0,0.0,0.0,0.0,0.0,0.0,0.0,0.0,0.0,0.0,0.0,0.0,0.0,0.0,0.0,0.0,0.0,0.0,0.0,0.0,0.0,0.0,0.0,0.0,0.0,0.0,0.0,0.0,0.0,0.0,0.0,0.0,0.0,0.0,0.0,0.0,0.0,0.0,0.0,0.0,0.0,0.0,0.0,0.0,0.0,0.0,0.0,0.0,0.0,0.0,0.0,0.0,0.0,0.0,0.0,0.0,0.0,0.0,0.0,0.0,0.0,0.0,0.0,0.0,0.0,0.0,0.0,0.0,0.0,2.6822,2.7682,2.8112,2.791,2.7084,2.6225,2.4976,0.0,0.0,0.0,0.0,0.0,0.0,0.0,0.0,0.0,0.0,0.0,0.0,0.0,0.0,0.0,0.0,0.0,0.0,0.0,0.0,0.0,0.0,0.0,0.0,0.0,0.0,0.0,0.0,0.0,0.0,0.0,0.0,0.0,0.0,0.0,0.0,0.0,0.0,0.0,0.0,0.0,0.0,0.0,0.0,0.0,0.0,0.0,0.0,0.0,0.0,0.0,0.0,0.0,0.0,0.0,0.0,0.0,0.0,0.0,0.0,0.0,0.0,0.0,0.0,0.0,0.0,0.0,0.0,0.0,0.0,0.0,0.0,0.0,0.0,0.0,0.0,0.0,0.0,0.0,0.0,0.0,0.0,0.0,0.0,0.0,0.0,0.0,0.0,0.0,0.0,0.0,0.0,0.0,0.0,0.0,0.0,0.0,0.0,0.0,0.0,0.0,0.0,0.0,0.0,0.0,0.0,0.0,0.0,2.6822,2.7663,2.8093,2.8047,2.7539,2.6699,2.543,0.0,0.0,0.0,0.0,0.0,0.0,0.0,0.0,0.0,0.0,0.0,0.0,0.0,0.0,0.0,0.0,0.0,0.0,0.0,0.0,0.0,0.0,0.0,0.0,0.0,0.0,0.0,0.0,0.0,0.0,0.0,0.0,0.0,0.0,0.0,0.0,0.0,0.0,0.0,0.0,0.0,0.0,0.0,0.0,0.0,0.0,0.0,0.0,2.8517,0.0,0.0,0.0,0.0,0.0,0.0,0.0,0.0,0.0,0.0,0.0,0.0,0.0,0.0,0.0,0.0,0.0,0.0,0.0,0.0,0.0,0.0,0.0,0.0,0.0,0.0,0.0,0.0,0.0,0.0,0.0,0.0,0.0,0.0,0.0,0.0,0.0,0.0,0.0,0.0,0.0,0.0,0.0,0.0,0.0,0.0,0.0,0.0,0.0,0.0,0.0,0.0,0.0,0.0,0.0,0.0,0.0,0.0,0.0,2.7402,2.8223,2.8476,2.8379,2.7976,2.735,2.6197,0.0,0.0,0.0,0.0,0.0,0.0,0.0,0.0,0.0,0.0,0.0,0.0,0.0,0.0,0.0,0.0,0.0,0.0,0.0,0.0,0.0,0.0,0.0,0.0,0.0,0.0,0.0,0.0,0.0,0.0,0.0,0.0,0.0,0.0,0.0,0.0,0.0,0.0,0.0,0.0,0.0,0.0,0.0,0.0,0.0,0.0,0.0,0.0,0.0,0.0,0.0,0.0,0.0,0.0,0.0,0.0,0.0,0.0,0.0,0.0,0.0,0.0,0.0,0.0,0.0,0.0,0.0,0.0,0.0,0.0,0.0,0.0,0.0,0.0,0.0,0.0,0.0,0.0,0.0,0.0,0.0,0.0,0.0,0.0,0.0,0.0,0.0,0.0,0.0,0.0,0.0,0.0,0.0,0.0,0.0,0.0,0.0,0.0,0.0,0.0,0.0,0.0,0.0,0.0,0.0,0.0,0.0,2.6939,2.8144,2.8887,2.8984,2.8828,2.8398,2.8015,2.7018,2.5356,0.0,0.0,0.0,0.0,0.0,0.0,0.0,0.0,0.0,0.0,0.0,0.0,0.0,0.0,0.0,0.0,0.0,0.0,0.0,0.0,0.0,0.0,0.0,0.0,0.0,0.0,0.0,0.0,0.0,0.0,0.0,0.0,0.0,0.0,0.0,0.0,0.0,0.0,2.3328,2.6309,0.0,0.0,0.0,0.0,0.0,0.0,0.0,0.0,3.1893,0.0,0.0,0.0,0.0,0.0,0.0,0.0,0.0,0.0,0.0,0.0,0.0,0.0,0.0,0.0,0.0,0.0,0.0,0.0,0.0,0.0,0.0,0.0,0.0,0.0,0.0,0.0,0.0,0.0,0.0,0.0,0.0,0.0,0.0,0.0,0.0,0.0,0.0,0.0,0.0,0.0,0.0,0.0,0.0,0.0,0.0,0.0,0.0,0.0,0.0,0.0,0.0,0.0,0.0,0.0,0.0,2.6152,2.7526,2.8437,2.8879,2.9277,2.9258,2.8801,2.8398,2.7585,2.6211,0.0,0.0,0.0,0.0,0.0,0.0,0.0,0.0,0.0,0.0,0.0,0.0,0.0,0.0,0.0,0.0,0.0,0.0,0.0,0.0,0.0,0.0,0.0,0.0,0.0,0.0,0.0,0.0,0.0,0.0,0.0,0.0,0.0,0.0,0.0,0.0,0.0,0.0,0.0,2.87,3.0078,0.0,0.0,0.0,0.0,0.0,0.0,0.0,0.0,3.2146,0.0,0.0,0.0,0.0,0.0,0.0,0.0,0.0,0.0,0.0,0.0,0.0,0.0,0.0,0.0,0.0,0.0,0.0,0.0,0.0,0.0,0.0,0.0,0.0,0.0,0.0,0.0,0.0,0.0,0.0,0.0,0.0,0.0,0.0,0.0,0.0,0.0,0.0,0.0,0.0,0.0,0.0,0.0,0.0,0.0,0.0,0.0,0.0,0.0,0.0,0.0,0.0,0.0,0.0,0.0,2.6674,2.7969,2.8898,2.9551,2.9785,2.9785,2.957,2.8945,2.8125,0.0,0.0,0.0,0.0,0.0,0.0,0.0,0.0,0.0,0.0,0.0,0.0,0.0,0.0,0.0,0.0,0.0,0.0,0.0,0.0,0.0,0.0,0.0,0.0,0.0,0.0,0.0,0.0,0.0,0.0,0.0,0.0,0.0,0.0,0.0,0.0,0.0,0.0,0.0,0.0,2.9917,3.1318,3.2099,0.0,0.0,0.0,0.0,0.0,0.0,3.3683,3.343,0.0,0.0,0.0,0.0,0.0,0.0,0.0,0.0,0.0,0.0,0.0,0.0,0.0,0.0,0.0,0.0,0.0,0.0,0.0,0.0,0.0,0.0,0.0,0.0,0.0,0.0,0.0,0.0,0.0,0.0,0.0,0.0,0.0,0.0,0.0,0.0,0.0,0.0,0.0,0.0,0.0,0.0,0.0,0.0,0.0,0.0,0.0,0.0,0.0,0.0,0.0,0.0,0.0,0.0,0.0,2.7143,2.8508,2.9551,3.0293,3.0508,3.0508,3.0332,2.964,2.8848,0.0,0.0,0.0,0.0,0.0,0.0,0.0,0.0,0.0,0.0,0.0,0.0,0.0,0.0,0.0,0.0,0.0,0.0,0.0,0.0,0.0,0.0,0.0,0.0,0.0,0.0,0.0,0.0,0.0,0.0,0.0,0.0,0.0,0.0,0.0,0.0,0.0,0.0,0.0,0.0,0.0,3.2368,3.3417,3.4328,0.0,0.0,0.0,0.0,3.5267,3.5175,0.0,0.0,0.0,0.0,0.0,0.0,0.0,0.0,0.0,0.0,0.0,0.0,0.0,0.0,0.0,0.0,0.0,0.0,0.0,0.0,0.0,0.0,0.0,0.0,0.0,0.0,0.0,0.0,0.0,0.0,0.0,0.0,0.0,0.0,0.0,0.0,0.0,0.0,0.0,0.0,0.0,0.0,0.0,0.0,0.0,0.0,0.0,0.0,0.0,0.0,0.0,0.0,0.0,0.0,0.0,0.0,2.776,2.9283,3.0293,3.082,3.1573,3.1582,3.084,3.0723,2.9902,0.0,0.0,0.0,0.0,0.0,0.0,0.0,0.0,0.0,0.0,0.0,0.0,0.0,0.0,0.0,0.0,0.0,0.0,0.0,0.0,0.0,0.0,0.0,0.0,0.0,0.0,0.0,0.0,0.0,0.0,0.0,0.0,0.0,0.0,0.0,0.0,0.0,0.0,0.0,0.0,0.0,3.3107,3.427,3.4939,3.5566,0.0,0.0,3.6923,3.6768,3.6392,0.0,0.0,0.0,0.0,0.0,0.0,0.0,0.0,0.0,0.0,0.0,0.0,0.0,0.0,0.0,0.0,0.0,0.0,0.0,0.0,0.0,0.0,0.0,0.0,0.0,0.0,0.0,0.0,0.0,0.0,0.0,0.0,0.0,0.0,0.0,0.0,0.0,0.0,0.0,0.0,0.0,0.0,0.0,0.0,0.0,0.0,0.0,0.0,0.0,0.0,0.0,0.0,0.0,0.0,0.0,2.6664,2.8545,2.9916,3.0918,3.1631,3.2003,3.2022,3.1651,3.1152,3.0293,0.0,0.0,0.0,0.0,0.0,0.0,0.0,0.0,0.0,0.0,0.0,0.0,0.0,0.0,0.0,0.0,0.0,0.0,0.0,0.0,0.0,0.0,0.0,0.0,0.0,0.0,0.0,0.0,0.0,0.0,0.0,0.0,0.0,0.0,0.0,0.0,0.0,0.0,0.0,0.0,0.0,0.0,3.4903,3.5703,0.0,0.0,0.0,3.7269,3.7207,0.0,0.0,0.0,0.0,0.0,0.0,0.0,0.0,0.0,0.0,0.0,0.0,0.0,0.0,0.0,0.0,0.0,0.0,0.0,0.0,0.0,0.0,0.0,0.0,0.0,0.0,0.0,0.0,0.0,0.0,0.0,0.0,0.0,0.0,0.0,0.0,0.0,0.0,0.0,0.0,0.0,0.0,0.0,0.0,0.0,0.0,0.0,0.0,0.0,0.0,0.0,0.0,0.0,0.0,0.0,0.0,0.0,2.9144,3.0432,3.1465,3.2285,3.2472,3.2452,3.2324,3.1729,0.0,0.0,0.0,0.0,0.0,0.0,0.0,0.0,0.0,0.0,0.0,0.0,0.0,0.0,0.0,0.0,0.0,0.0,0.0,0.0,0.0,0.0,0.0,0.0,0.0,0.0,0.0,1.8984,0.0,0.0,0.0,0.0,0.0,0.0,0.0,0.0,0.0,0.0,0.0,0.0,0.0,0.0,3.4695,3.5781,3.6591,3.7199,0.0,0.0,3.7823,3.7911,3.8117,3.8114,0.0,0.0,0.0,0.0,0.0,0.0,0.0,0.0,0.0,0.0,0.0,0.0,0.0,0.0,0.0,0.0,0.0,0.0,0.0,0.0,0.0,0.0,0.0,0.0,0.0,0.0,0.0,0.0,0.0,0.0,0.0,0.0,0.0,0.0,0.0,0.0,0.0,0.0,0.0,0.0,0.0,0.0,0.0,0.0,0.0,0.0,0.0,0.0,0.0,0.0,0.0,0.0,0.0,0.0,2.7321,2.9346,3.0771,3.1914,3.2715,3.3113,3.3144,3.2773,3.2695,3.207,0.0,0.0,0.0,0.0,0.0,0.0,0.0,0.0,0.0,0.0,0.0,0.0,0.0,0.0,0.0,0.0,0.0,0.0,0.0,0.0,0.0,0.0,0.0,0.0,0.0,0.0,0.0,0.0,0.0,0.0,0.0,0.0,0.0,0.0,0.0,0.0,0.0,0.0,0.0,0.0,0.0,3.5921,3.7122,3.7697,3.8271,0.0,0.0,3.9272,3.9604,3.9559,3.9484,3.9409,0.0,0.0,0.0,0.0,0.0,0.0,0.0,0.0,0.0,0.0,0.0,0.0,0.0,0.0,0.0,0.0,0.0,0.0,0.0,0.0,0.0,0.0,0.0,0.0,0.0,0.0,0.0,0.0,0.0,0.0,0.0,0.0,0.0,0.0,0.0,0.0,0.0,0.0,0.0,0.0,0.0,0.0,0.0,0.0,0.0,0.0,0.0,0.0,0.0,0.0,0.0,0.0,0.0,2.8361,3.0113,3.1611,3.277,3.3555,3.3984,3.4121,3.3965,3.3457,3.2832,0.0,0.0,0.0,0.0,0.0,0.0,0.0,0.0,0.0,0.0,0.0,0.0,0.0,0.0,0.0,0.0,0.0,0.0,0.0,0.0,0.0,0.0,0.0,0.0,0.0,0.0,0.0,0.0,2.4746,2.5888,2.649,0.0,0.0,0.0,0.0,0.0,0.0,0.0,0.0,0.0,0.0,3.604,3.7068,3.7854,0.0,0.0,3.9547,4.0,4.0373,4.0513,4.0509,4.0217,3.9976,0.0,0.0,0.0,0.0,0.0,0.0,0.0,0.0,0.0,0.0,0.0,0.0,0.0,0.0,0.0,0.0,0.0,0.0,0.0,0.0,0.0,0.0,0.0,0.0,0.0,0.0,0.0,0.0,0.0,0.0,0.0,0.0,0.0,0.0,0.0,0.0,0.0,0.0,0.0,0.0,0.0,0.0,0.0,0.0,0.0,0.0,0.0,0.0,0.0,0.0,0.0,0.0,2.9335,3.0785,3.2307,3.3412,3.4096,3.4485,3.4687,3.4687,3.4121,3.3613,0.0,0.0,0.0,0.0,0.0,0.0,0.0,0.0,0.0,0.0,0.0,0.0,0.0,0.0,0.0,0.0,0.0,0.0,0.0,0.0,0.0,0.0,0.0,0.0,0.0,0.0,0.0,0.0,2.6442,2.753,2.8107,0.0,0.0,0.0,0.0,0.0,0.0,0.0,0.0,0.0,0.0,3.6881,3.7795,3.8624,3.92,3.9441,3.9951,4.0398,4.0716,4.1088,4.1249,4.0884,0.0,0.0,0.0,0.0,0.0,0.0,0.0,0.0,0.0,0.0,0.0,0.0,0.0,0.0,0.0,0.0,0.0,0.0,0.0,0.0,0.0,0.0,0.0,0.0,0.0,0.0,0.0,1.8027,0.0,0.0,1.8008,0.0,0.0,0.0,0.0,0.0,0.0,0.0,0.0,0.0,0.0,0.0,0.0,0.0,0.0,0.0,0.0,0.0,0.0,0.0,0.0,0.0,0.0,3.0076,3.1302,3.2771,3.3725,3.422,3.4529,3.4713,3.4746,3.4687,3.4492,3.4075,0.0,0.0,0.0,0.0,0.0,0.0,0.0,0.0,0.0,0.0,0.0,0.0,0.0,0.0,0.0,0.0,0.0,0.0,0.0,0.0,0.0,0.0,0.0,0.0,0.0,0.0,2.6928,2.841,2.9473,0.0,0.0,0.0,0.0,0.0,0.0,0.0,0.0,0.0,0.0,3.8092,3.8761,3.9654,4.0227,4.049,4.0558,4.058,4.0635,4.069,4.126,4.1689,0.0,0.0,0.0,0.0,0.0,0.0,0.0,0.0,0.0,0.0,0.0,0.0,0.0,0.0,0.0,0.0,0.0,0.0,0.0,0.0,0.0,0.0,0.0,0.0,0.0,0.0,0.0,2.0518,2.0482,0.0,0.0,0.0,0.0,0.0,0.0,0.0,0.0,0.0,0.0,0.0,2.7398,2.8087,0.0,0.0,0.0,0.0,0.0,0.0,0.0,0.0,0.0,0.0,0.0,0.0,3.1056,3.2469,3.3561,3.4418,3.504,3.5463,3.5631,3.5631,3.5639,3.5258,3.4512,0.0,0.0,0.0,0.0,0.0,0.0,0.0,0.0,0.0,0.0,0.0,0.0,0.0,0.0,0.0,0.0,0.0,0.0,0.0,0.0,0.0,0.0,0.0,0.0,0.0,2.8476,0.0,0.0,0.0,0.0,0.0,0.0,0.0,0.0,0.0,0.0,0.0,3.591,3.7499,3.8092,3.8582,3.921,3.9947,4.0596,0.0,0.0,0.0,0.0,0.0,0.0,0.0,0.0,0.0,0.0,0.0,0.0,0.0,0.0,4.2494,4.1784,4.1728,4.2042,4.2634,0.0,0.0,0.0,0.0,0.0,0.0,0.0,0.0,0.0,0.0,0.0,0.0,0.0,0.0,2.2997,2.2978,2.2722,0.0,0.0,0.0,0.0,0.0,0.0,0.0,0.0,2.8472,2.9133,2.9654,3.0167,3.0529,0.0,3.0901,3.0222,0.0,0.0,0.0,0.0,0.0,0.0,0.0,0.0,3.2265,3.3533,3.4376,3.5145,3.5696,3.5953,3.6176,3.6308,3.6335,3.5958,3.5209,3.4232,3.3379,0.0,0.0,0.0,0.0,0.0,0.0,0.0,0.0,0.0,0.0,0.0,0.0,0.0,0.0,0.0,0.0,0.0,0.0,0.0,0.0,0.0,0.0,0.0,3.0635,0.0,0.0,0.0,0.0,0.0,0.0,0.0,0.0,0.0,3.514,3.5987,3.7038,3.8236,3.8723,3.9165,3.9642,0.0,0.0,0.0,0.0,0.0,0.0,0.0,4.34,4.323,4.3388,4.3493,4.3412,4.389,4.4369,4.4509,0.0,0.0,4.3703,4.372,4.4012,4.4454,4.4907,4.5329,4.5746,4.6383,4.6979,0.0,0.0,0.0,0.0,0.0,0.0,0.0,0.0,2.5499,2.5499,0.0,2.5462,0.0,0.0,0.0,0.0,0.0,2.8344,0.0,0.0,3.051,3.1286,3.2019,3.2074,3.2294,3.2661,3.2716,3.2698,3.2588,3.1139,0.0,0.0,0.0,0.0,0.0,0.0,3.367,3.4477,3.5256,3.5825,3.6216,3.6187,3.6348,3.6725,3.6742,3.6515,3.6162,3.5675,3.5234,3.4746,3.3144,0.0,0.0,0.0,0.0,0.0,0.0,0.0,0.0,0.0,0.0,0.0,0.0,0.0,0.0,0.0,0.0,0.0,0.0,0.0,0.0,3.2148,0.0,0.0,0.0,0.0,0.0,0.0,0.0,0.0,0.0,0.0,3.6616,3.7585,3.8688,3.9586,0.0,0.0,0.0,0.0,4.1731,4.1769,4.2092,4.2507,4.2968,4.3292,4.3674,4.4129,0.0,0.0,4.4067,4.4344,4.4728,4.5102,4.5519,4.5576,4.5037,4.5427,4.5881,4.6029,4.6323,4.669,4.7147,4.7451,4.7756,2.839,0.0,0.0,0.0,0.0,2.749,2.7691,2.7948,2.7977,2.7977,2.7958,2.7683,0.0,0.0,0.0,0.0,0.0,0.0,3.1098,3.1744,3.2276,3.2774,3.3287,3.3855,3.4185,3.4348,3.4899,3.5174,3.5155,3.4715,3.3762,3.2353,0.0,0.0,0.0,0.0,3.5009,3.6035,3.633,3.6662,3.7049,3.7032,3.7202,3.7615,3.7352,3.7271,3.7434,3.6749,3.6266,3.6113,3.4746,0.0,0.0,0.0,0.0,0.0,0.0,0.0,0.0,0.0,0.0,0.0,0.0,0.0,0.0,0.0,0.0,0.0,0.0,0.0,3.3437,3.4238,3.4824,0.0,0.0,0.0,0.0,0.0,0.0,0.0,0.0,0.0,3.8868,3.92,3.9652,0.0,0.0,4.1424,4.1542,4.1915,4.2309,4.2644,4.2763,0.0,0.0,4.3571,4.3767,4.4198,4.4756,4.517,4.5137,4.5689,4.6182,4.6274,4.6899,4.7358,4.7195,4.6861,4.7019,4.7827,4.8411,4.8869,4.9248,4.9625,4.9953,3.0323,2.9588,2.9028,2.8847,2.8938,2.9082,2.9281,2.9498,2.9529,2.9498,2.9529,2.9395,2.9503,2.972,3.0045,0.0,0.0,0.0,3.2965,3.3578,3.4112,3.4588,3.4991,3.5486,3.5797,3.5962,3.642,3.6696,3.6696,3.6861,3.6329,3.5101,0.0,0.0,3.5687,3.5705,3.6145,3.6988,3.7043,3.7226,3.7611,3.7629,3.7671,3.7736,3.7704,3.7765,3.7988,3.7672,3.7463,3.7426,3.6357,3.5547,0.0,0.0,0.0,0.0,0.0,0.0,0.0,0.0,0.0,0.0,0.0,2.8196,2.9266,0.0,0.0,0.0,3.3164,3.4336,3.5605,3.6289,0.0,0.0,0.0,0.0,0.0,0.0,0.0,3.8301,3.9297,4.0156,4.0586,4.0957,4.1133,4.1035,4.1621,4.2051,4.2051,0.0,4.2756,4.3058,4.3236,4.3496,4.3919,4.3959,4.41,4.4538,4.5192,4.56,4.5628,4.5997,4.6424,4.6773,4.7235,4.7723,4.8267,4.8147,4.8193,4.8924,4.9278,4.9633,5.0025,5.0332,5.0611,3.1572,3.152,3.0796,3.0281,2.9909,3.0313,3.0505,3.0505,3.0472,3.0472,3.0508,3.0829,3.0954,3.1043,3.1854,0.0,3.2796,3.3965,3.4686,3.5102,3.5907,3.6474,3.6858,3.6951,3.7171,3.7537,3.7594,3.7613,3.7611,3.7979,3.8163,3.8126,3.7044,3.6677,3.697,3.6988,3.7189,3.7613,3.7631,3.7757,3.8163,3.8163,3.794,3.7611,3.7959,3.8133,3.8097,3.8463,3.8628,3.8606,3.7853,3.723,3.689,0.0,0.0,0.0,0.0,0.0,0.0,0.0,0.0,0.0,0.0,0.0,0.0,0.0,0.0,3.431,3.623,0.0,3.7461,3.8184,0.0,0.0,0.0,3.8767,3.8767,3.9141,3.957,4.0,0.0,0.0,4.1855,4.2617,4.2851,4.2109,4.2305,4.2499,4.2538,4.2949,4.3183,4.3322,4.3574,4.3974,4.4345,4.4469,4.4678,4.5109,4.553,4.5827,4.5869,4.5922,4.6173,4.6823,4.7009,4.7432,4.8686,4.92,4.9557,4.9456,4.9549,4.964,5.0109,5.0268,5.0467,3.2159,3.2393,3.2203,3.1896,3.1499,3.1888,3.2065,3.2065,3.2065,3.2065,3.2065,3.2137,3.2331,3.2684,3.3499,3.389,3.3998,3.4906,3.5353,3.5539,3.6615,3.7164,3.7273,3.8186,3.8673,3.8783,3.9116,3.9303,3.9303,3.9395,3.945,3.9432,3.9157,3.8878,3.8637,3.8618,3.886,3.9303,3.9303,3.9358,3.945,3.945,3.9414,3.9303,3.9384,3.9289,3.8914,3.8998,3.9048,3.9049,3.8583,3.8401,3.8594,3.7285,0.0,0.0,0.0,0.0,0.0,0.0,0.0,0.0,0.0,3.3086,3.375,0.0,3.5723,0.0,3.7891,3.875,3.875,3.9258,0.0,0.0,3.9863,4.0059,4.0059,4.0723,4.123,4.1328,4.1816,4.2305,4.2715,4.3242,4.3613,4.375,4.3555,4.3535,4.3867,4.4004,4.4199,4.4473,4.4609,4.4707,4.4856,4.5171,4.5531,4.6014,4.6389,4.6804,4.7154,4.7481,4.7726,4.793,4.8561,4.9111,4.9378,4.9813,5.0235,5.0557,5.083,5.1187,5.1622,5.1718,5.1819,3.1956,3.2194,3.2531,3.2515,3.2299,3.2537,3.2628,3.2664,3.2628,3.2733,3.2924,3.3256,3.3622,3.4005,3.4478,3.4746,3.497,3.5589,3.6036,3.6408,3.7209,3.7721,3.794,3.8775,3.9177,3.9236,3.9699,3.9872,3.9891,4.0074,4.0166,4.0166,4.035,4.0313,4.0033,3.9685,3.9671,3.9872,3.9872,3.9872,3.9872,3.9872,3.9872,3.9872,3.9872,3.9792,3.9493,3.9653,3.9767,3.9769,3.9586,3.9547,3.9755,3.8737,3.8144,0.0,0.0,0.0,0.0,0.0,0.0,0.0,0.0,0.0,0.0,0.0,3.7793,3.8672,3.9551,4.0156,4.0332,4.0762,4.1016,4.1035,4.1191,4.1328,4.1328,4.1777,4.2148,4.2344,4.2734,4.3164,4.3613,4.4023,4.4375,4.4648,4.4453,4.4375,4.4609,4.4687,4.4766,4.4938,4.5039,4.5039,4.5039,4.5402,4.5825,4.6309,4.6772,4.715,4.7609,4.788,4.8087,4.8294,4.8729,4.9162,4.9368,4.9909,5.0428,5.0718,5.1262,5.173,5.1935,5.2006,5.2126,3.1721,3.1861,3.2472,3.2736,3.2763,3.2808,3.2833,3.2833,3.2833,3.3058,3.3416,3.4026,3.4542,3.4889,3.4996,3.5226,3.5687,3.6052,3.6617,3.7306,3.7753,3.8147,3.8506,3.9032,3.9274,3.9274,3.9668,3.9874,3.9874,4.0239,4.038,4.044,4.0727,4.0934,4.0982,4.0304,3.9997,4.0038,4.0038,4.0038,4.0038,4.0079,4.0038,4.0038,4.0038,4.0019,4.0005,4.0332,4.0518,4.0484,4.0491,4.0545,4.0643,3.9891,3.9437,0.0,3.9062,0.0,0.0,0.0,0.0,0.0,0.0,0.0,0.0,3.8809,3.9883,4.0703,4.1113,4.1484,4.1836,4.2207,4.2382,4.2382,4.244,4.2499,4.2538,4.2596,4.2832,4.3281,4.3652,4.4043,4.4414,4.4844,4.5117,4.5117,4.5156,4.5153,4.5195,4.5156,4.5137,4.5113,4.5153,4.5293,4.5273,4.5533,4.5959,4.6425,4.6868,4.725,4.7753,4.792,4.8108,4.8463,4.8735,4.8902,4.9213,4.9991,5.0582,5.0814,5.1432,5.189,5.1815,5.1881,5.1976,3.2947,3.3314,3.3446,3.3496,3.3479,3.3503,3.3531,3.3531,3.3492,3.3564,3.3647,3.378,3.4077,3.4435,3.4761,3.5305,3.6012,3.6373,3.6792,3.7211,3.8007,3.8443,3.8513,3.925,3.9603,3.9603,3.9687,3.9729,3.9729,3.9801,3.9836,3.9836,3.9925,4.0173,4.0512,0.0,0.0,0.0,4.0864,4.0864,4.0864,4.0864,4.0864,4.0864,4.0882,0.0,4.0405,4.0488,4.0487,4.048,4.0475,0.0,0.0,0.0,0.0,0.0,0.0,0.0,0.0,0.0,0.0,0.0,4.0644,4.0508,3.9551,4.0566,4.1523,4.1972,4.2148,4.2226,4.2305,4.2383,4.2382,4.2382,4.2734,4.3086,4.3418,4.3789,4.4199,4.4567,4.4726,4.4762,4.4902,4.5273,4.5547,4.5586,4.584,4.6035,4.6074,4.5762,4.5683,4.5976,4.6035,4.6055,4.6055,4.6161,4.6402,4.6812,4.7287,4.7698,4.8213,4.8929,4.9392,4.95,5.0092,5.0517,5.0647,5.1163,5.1552,5.2025,5.2218,5.2366,5.2268,5.2564,5.302,3.2348,0.0,3.2938,3.3138,0.0,3.3532,3.371,3.3823,3.3743,3.377,3.3951,3.4314,3.46,3.4818,3.5209,3.5581,3.5988,3.6363,3.675,3.7165,3.7858,3.8241,3.8432,3.9065,3.9454,3.963,3.9862,4.0096,4.0213,4.0256,4.0213,4.0274,4.0213,4.036,4.0575,4.0851,4.0995,4.1102,4.1102,4.1102,4.1102,4.1102,4.1102,4.1102,4.1102,0.0,0.0,0.0,0.0,0.0,0.0,0.0,0.0,0.0,0.0,4.15,4.1464,4.1328,4.1172,4.1308,4.1465,4.1465,4.2051,4.207,4.1211,4.1738,4.2285,4.2715,4.293,4.3144,4.3379,4.3552,4.367,4.3689,4.3906,4.4141,4.4336,4.4551,4.4785,4.4957,4.5215,4.5351,4.5351,4.5723,4.6055,4.625,4.6465,4.668,4.6836,4.6387,4.6152,4.6543,4.6816,4.6933,4.6933,4.6933,4.7091,4.7553,4.7837,4.8257,4.8914,4.9448,4.9811,5.005,5.0456,5.0777,5.0777,5.1127,5.1521,5.176,5.2021,5.2239,5.2407,5.2857,5.333,3.1613,3.1966,3.2307,3.2651,3.305,3.3334,3.3577,3.3824,0.0,0.0,0.0,3.4916,3.5178,3.5278,3.5557,3.5763,3.5955,3.6292,3.6702,3.7114,3.7649,3.8007,3.8297,3.8856,3.9261,3.96,3.9965,4.0297,4.0579,4.0596,4.0596,4.0553,4.0596,4.0579,4.0728,4.1139,4.1294,4.1044,4.122,4.1323,4.1323,4.1323,4.1323,4.1323,4.1323,4.1286,4.1213,4.1213,4.1176,4.1102,4.1106,4.1128,4.1192,4.155,4.1829,4.1914,4.2236,4.2399,4.2401,4.2558,4.2694,4.283,4.3223,4.3203,4.2695,4.2694,4.2949,4.3379,4.373,4.4101,4.4473,4.4805,4.5039,4.5039,4.5039,4.5039,4.5117,4.5137,4.5215,4.5351,4.5703,4.5937,4.6055,4.6391,4.6641,4.6953,4.7031,4.7148,4.7402,4.6973,4.668,4.7012,4.7285,4.7584,4.7603,4.7539,4.7758,4.8012,4.8211,4.8563,4.9251,4.9647,4.9954,5.0308,5.0502,5.0694,5.0673,5.1045,5.1247,5.1335,5.1687,5.206,5.2539,5.3061,5.356,3.2418,3.2532,3.2827,3.3022,3.3064,3.3153,3.3199,3.3314,3.4061,3.4407,3.4454,3.4566,3.4851,3.5203,3.5252,3.5642,3.6276,3.6378,3.6619,3.7052,3.7818,3.816,3.8228,3.9058,3.9465,3.9517,3.9622,3.9639,3.9674,3.9691,3.9691,3.9691,3.9691,3.9867,4.0219,4.0684,4.0893,4.0874,4.1698,4.2149,4.2149,4.2149,4.2149,4.2106,4.213,4.1941,4.161,4.1592,4.1427,4.1121,4.1089,4.1263,4.1579,4.169,4.1876,4.2294,4.2378,4.2367,4.24,4.3105,4.3848,4.4528,4.4726,4.4414,4.3613,4.3887,4.4297,4.4665,4.4766,4.4863,4.4941,4.4977,4.5055,4.5078,4.5058,4.5176,4.5566,4.5625,4.5898,4.6479,4.6655,4.6894,4.7148,4.7349,4.7363,4.7461,4.7539,4.7539,4.7662,4.7525,4.7422,4.748,4.7539,4.7623,4.7721,4.7598,4.7701,4.7668,4.8086,4.8394,4.8683,4.955,5.0246,5.0425,5.1046,5.1453,5.1605,5.165,5.1875,5.2144,5.2347,5.2571,5.2994,5.3807,5.434,3.2329,3.2556,3.2707,3.2895,3.3108,3.3307,3.3383,3.3441,3.4056,3.426,3.416,3.4317,3.4667,3.5109,3.5301,3.5607,3.5983,3.6437,3.6687,3.6954,3.7711,3.8097,3.813,3.8502,3.8908,3.9361,3.9405,3.9641,4.007,4.0115,4.0115,4.007,4.007,4.0159,4.0383,4.083,4.1053,4.108,4.1353,4.1601,4.1836,4.188,4.201,4.2271,4.2271,4.2197,4.2014,4.2057,4.1922,4.1763,4.1763,4.1849,4.2001,4.2257,4.2462,4.2673,4.3159,4.3437,4.3433,4.4032,4.459,4.498,4.5039,4.4961,4.4785,4.4746,4.4824,4.4977,4.5234,4.5391,4.5391,4.5586,4.5801,4.6055,4.6055,4.623,4.6621,4.6763,4.69,4.7207,4.7285,4.7363,4.7539,4.7623,4.7695,4.7871,4.8086,4.8307,4.8307,4.8307,4.8183,4.7988,4.8125,4.8307,4.8307,4.8307,4.8327,4.8307,4.8444,4.8737,4.8918,4.9662,5.0232,5.0955,5.1473,5.1927,5.2362,5.2557,5.2695,5.2765,5.2857,5.3086,5.3538,5.4369,5.4961,3.2115,3.2474,3.2548,3.2735,3.3067,3.3356,3.3535,3.3565,3.3898,3.401,3.3973,3.4241,3.4579,3.4914,3.5303,3.5548,3.5756,3.6303,3.6636,3.6845,3.7602,3.7989,3.8005,3.8144,3.8611,3.9221,3.9238,3.9615,4.0232,4.0356,4.0493,4.0583,4.0583,4.0583,4.0629,4.0946,4.1145,4.1155,4.0894,4.1019,4.1565,4.1714,4.1977,4.2371,4.252,4.2553,4.2417,4.2443,4.2406,4.2289,4.2271,4.2271,4.2314,4.2599,4.2815,4.2944,4.3547,4.4138,4.4472,4.49,4.5254,4.5449,4.5449,4.5644,4.6016,4.5801,4.5547,4.5508,4.5801,4.6016,4.6196,4.6406,4.6719,4.6987,4.709,4.7168,4.75,4.7623,4.7637,4.7695,4.776,4.7754,4.7832,4.7871,4.8008,4.834,4.8698,4.8913,4.9011,4.905,4.8867,4.8769,4.8835,4.8913,4.9011,4.9031,4.9089,4.9167,4.9206,4.9392,4.9624,4.9809,5.0212,5.1206,5.1564,5.1984,5.2796,5.2951,5.2977,5.3075,5.3146,5.3343,5.3935,5.4531,5.5269,3.228,3.2368,3.2646,3.2808,3.2896,3.3146,3.3278,3.3322,3.3631,3.3975,3.4307,3.447,3.457,3.4661,3.4996,3.5419,3.5823,3.593,3.6216,3.668,3.7511,3.7915,3.7947,3.8634,3.9043,3.9105,3.9105,3.915,3.9354,3.9781,4.0192,4.0538,4.0583,4.0583,4.0583,4.0629,4.0674,4.0674,4.0651,4.1068,4.1923,4.2416,4.2684,4.2773,4.3148,4.3206,4.2839,4.2865,4.2681,4.2369,4.2351,4.2289,4.2332,4.2332,4.2531,4.2876,4.3006,4.3569,4.4808,4.5366,4.5957,4.6616,4.6719,4.6875,4.7285,4.7324,4.7148,4.6792,4.6733,4.6933,4.7344,4.7402,4.7422,4.75,4.7519,4.7539,4.7637,4.7623,4.7715,4.8105,4.8144,4.8301,4.862,4.8718,4.8776,4.8894,4.8991,4.9167,4.9394,4.9473,4.957,4.9687,4.9461,4.9121,4.9355,4.9426,4.959,4.9902,5.0067,5.0036,5.0138,5.0393,5.0887,5.1102,5.1397,5.1879,5.2314,5.2506,5.2754,5.3178,5.3364,5.3483,5.4262,5.4667,5.498,3.2676,3.2866,3.2953,3.3158,3.3349,3.3435,3.3494,3.3508,3.3625,3.382,3.4017,3.4243,3.4577,3.4893,3.503,3.5226,3.5422,3.5667,3.6017,3.6487,3.7061,3.7448,3.7801,3.8097,3.8391,3.8683,3.8683,3.8804,3.9079,3.9308,3.9673,4.0146,4.0192,4.0328,4.0583,4.0583,4.0583,4.0583,4.0583,4.081,4.1172,4.1669,4.2047,4.2344,4.2793,4.3006,4.2887,4.3091,4.3169,4.3004,4.3004,4.2986,4.3004,4.3004,4.3092,4.3269,4.3737,4.4611,4.596,4.6265,4.6623,4.7305,4.7324,4.7402,4.7558,4.7623,4.7578,4.7656,4.7461,4.7402,4.7578,4.7623,4.7676,4.7891,4.7949,4.8047,4.8366,4.8366,4.8464,4.862,4.864,4.8698,4.8894,4.9101,4.9355,4.9597,4.9676,4.9707,4.9883,4.9902,4.998,5.0078,4.9844,4.9746,4.9883,4.9922,5.0019,5.0117,5.0223,5.0223,5.0262,5.0318,5.0594,5.1182,5.1412,5.1883,5.2687,5.3047,5.3304,5.3567,5.3823,5.4095,5.4449,5.4774,5.5093,3.2755,3.2912,3.2927,3.3071,3.3319,3.3557,3.3632,3.3707,3.3857,3.3993,3.3976,3.4256,3.4596,3.4923,3.5,3.5045,3.5197,3.5486,3.5868,3.6343,3.6622,3.7008,3.744,3.7486,3.7717,3.8132,3.8178,3.8502,3.8998,3.9159,3.9468,3.9899,4.0129,4.0342,4.0663,4.08,4.0892,4.0892,4.0892,4.0892,4.0937,4.1212,4.1587,4.1981,4.2595,4.3009,4.3118,4.3586,4.3811,4.3829,4.3811,4.3811,4.3811,4.3811,4.3811,4.3874,4.4519,4.5404,4.6367,4.6657,4.7031,4.7509,4.7709,4.7812,4.7891,4.793,4.8066,4.8301,4.8105,4.7994,4.7975,4.7975,4.8112,4.834,4.8379,4.8555,4.8965,4.9043,4.9082,4.9246,4.9304,4.9265,4.9324,4.9512,4.9824,5.0106,5.0184,5.0254,5.0312,5.0351,5.0391,5.0488,5.0527,5.0469,5.0391,5.0351,5.0371,5.0508,5.0586,5.0605,5.0527,5.0527,5.0594,5.1322,5.1486,5.1785,5.2375,5.3016,5.3569,5.3808,5.4142,5.4449,5.453,5.4856,5.5177,3.2239,3.2253,3.2253,3.2327,3.2341,3.3158,3.3504,3.3564,3.4272,3.459,3.4514,3.4604,3.4666,3.4715,3.4733,3.4963,3.5307,3.5353,3.5647,3.6158,3.6204,3.6498,3.6915,3.6915,3.7224,3.7766,3.7828,3.8171,3.891,3.9201,3.9648,4.0165,4.0537,4.0788,4.0895,4.1297,4.1628,4.1513,4.1577,4.1611,4.1628,4.1675,4.1735,4.2027,4.2825,4.3442,4.3794,4.4325,4.46,4.46,4.4609,4.4627,4.4645,4.4627,4.4563,4.4691,4.5075,4.5386,4.5651,4.6371,4.7049,4.7468,4.7956,4.834,4.8679,4.8776,4.8815,4.8874,4.8855,4.8855,4.8835,4.8796,4.8835,4.8894,4.8913,4.9062,4.9453,4.9492,4.9707,4.9961,5.0047,5.0047,5.0125,5.0137,5.0176,5.0254,5.0262,5.0351,5.0683,5.0781,5.0918,5.1123,5.1221,5.1182,5.0879,5.0781,5.0909,5.1055,5.1094,5.1269,5.1348,5.1387,5.1367,5.1396,5.1405,5.1667,5.2065,5.2511,5.3073,5.3546,5.4252,5.4539,5.4828,5.46,5.4942,3.2333,3.2515,3.2771,3.2841,3.2855,3.3201,3.3304,3.3304,3.3605,3.3742,3.3789,3.4024,3.4165,3.4212,3.4554,3.4789,3.4929,3.4961,3.5241,3.5646,3.5693,3.6093,3.6728,3.6775,3.7133,3.7742,3.7868,3.815,3.8733,3.8924,3.9224,3.9602,3.9838,4.0121,4.045,4.0966,4.1183,4.123,4.151,4.1697,4.1731,4.1697,4.1841,4.2148,4.2528,4.2966,4.3413,4.392,4.4352,4.4673,4.4719,4.4719,4.4719,4.4719,4.4801,4.5086,4.5261,4.5585,4.6131,4.6789,4.74,4.7877,4.8357,4.8737,4.8913,4.9121,4.9297,4.9316,4.9617,4.9734,4.9648,4.9453,4.9414,4.9695,4.9754,4.9726,4.9883,4.9941,5.0019,5.0137,5.0223,5.0273,5.0527,5.0586,5.0683,5.0918,5.0976,5.1035,5.1133,5.1143,5.1221,5.1338,5.1377,5.1338,5.1221,5.1162,5.1221,5.1299,5.1358,5.1338,5.1397,5.1436,5.1465,5.1562,5.1514,5.1582,5.2079,5.2549,5.3007,5.4017,5.464,5.4897,5.5345,5.5159,5.5379,3.2162,3.2401,3.2608,3.2705,3.2752,3.2894,3.2941,3.2974,3.313,3.3266,3.3398,3.3681,3.3832,3.4027,3.4529,3.4766,3.4751,3.4853,3.5088,3.5507,3.5507,3.5909,3.6515,3.6608,3.6951,3.7594,3.7972,3.8258,3.8608,3.8894,3.9228,3.9531,3.9658,3.9944,4.034,4.0751,4.1082,4.1319,4.1649,4.1885,4.2026,4.2073,4.2193,4.2399,4.2493,4.2795,4.3292,4.3945,4.4456,4.4781,4.4966,4.5058,4.5058,4.5104,4.5187,4.5443,4.5498,4.573,4.6345,4.7009,4.7579,4.8039,4.8711,4.9167,4.9324,4.957,4.9707,4.9805,4.998,5.0215,5.0293,5.0117,5.0019,5.0156,5.0223,5.0301,5.0351,5.0391,5.0449,5.0586,5.0644,5.0742,5.0937,5.0996,5.1133,5.1358,5.1397,5.1397,5.1397,5.1397,5.1397,5.1397,5.1397,5.1377,5.1397,5.1504,5.1397,5.1455,5.1514,5.1494,5.1592,5.1592,5.165,5.1728,5.1787,5.1836,5.2081,5.262,5.3418,5.4477,5.4887,5.5065,5.5432,5.571,5.5959,3.1745,3.1745,3.1724,3.1806,3.1914,3.2259,3.2435,3.2496,3.2936,3.3272,3.3434,3.3577,3.3779,3.4114,3.4534,3.4818,3.4871,3.5038,3.5339,3.5673,3.5654,3.5924,3.6415,3.6415,3.6684,3.7239,3.798,3.8376,3.8537,3.9207,3.9657,3.9866,4.0142,4.0287,4.0481,4.0899,4.1479,4.1847,4.2006,4.2279,4.2748,4.271,4.271,4.2762,4.2775,4.2997,4.3556,4.4442,4.4973,4.5133,4.5575,4.5865,4.5792,4.5792,4.5847,4.5883,4.5883,4.5902,4.608,4.6934,4.7704,4.812,4.8949,4.9668,4.9941,5.0117,5.0176,5.0195,5.0273,5.0391,5.0742,5.0762,5.0625,5.0293,5.0332,5.0488,5.0723,5.082,5.0957,5.1201,5.126,5.1358,5.1377,5.1319,5.1338,5.1358,5.1397,5.1397,5.1416,5.1436,5.1436,5.1436,5.1572,5.1709,5.1758,5.1758,5.168,5.166,5.1699,5.1738,5.1992,5.209,5.2168,5.2266,5.2324,5.2324,5.2569,5.3043,5.339,5.4185,5.4609,5.5262,5.561,5.5959,5.6296,3.1724,3.1724,3.1724,3.1724,3.1751,3.2068,3.2197,3.2224,3.2605,3.2802,3.298,3.3271,3.3471,3.3651,3.4115,3.447,3.4625,3.5075,3.5425,3.5675,3.5709,3.5874,3.6181,3.6211,3.6586,3.7316,3.7925,3.8475,3.8782,3.912,3.9411,3.9768,3.9947,3.9995,4.0093,4.053,4.1014,4.1497,4.1931,4.2316,4.2765,4.2813,4.2813,4.2813,4.2813,4.2909,4.31,4.4055,4.475,4.5081,4.5601,4.5883,4.5902,4.5883,4.6059,4.625,4.6287,4.6452,4.6834,4.7616,4.8254,4.8595,4.9393,4.9972,5.0195,5.0469,5.0605,5.0644,5.0859,5.1113,5.1211,5.123,5.1133,5.1055,5.1035,5.1035,5.1152,5.1162,5.1289,5.1338,5.1397,5.1397,5.1397,5.1397,5.1397,5.1416,5.1416,5.1416,5.1455,5.1738,5.1875,5.1875,5.207,5.2187,5.2207,5.2285,5.2305,5.2207,5.2148,5.2168,5.2383,5.2539,5.2637,5.2754,5.2812,5.291,5.3136,5.3334,5.3664,5.4193,5.4895,5.5436,5.5905,5.6254,5.6482,3.173,3.1824,3.1837,3.1938,3.2045,3.2198,3.2265,3.2291,3.2514,3.2661,3.2777,3.3048,3.3249,3.3429,3.3912,3.4254,3.4456,3.4963,3.5257,3.5525,3.59,3.6114,3.629,3.629,3.654,3.711,3.7647,3.809,3.8433,3.8825,3.9167,3.946,3.9719,3.9817,3.9817,4.0093,4.053,4.1014,4.1497,4.2028,4.2477,4.2717,4.2813,4.2813,4.2813,4.2909,4.3148,4.4083,4.4673,4.4964,4.5634,4.6103,4.6103,4.6269,4.6452,4.6635,4.6727,4.6837,4.7172,4.8001,4.8708,4.8995,4.9818,5.0508,5.0644,5.0918,5.1035,5.1094,5.125,5.1397,5.1377,5.1377,5.1397,5.1377,5.1358,5.1397,5.1397,5.1397,5.1377,5.1397,5.1397,5.1397,5.1397,5.1397,5.1475,5.1621,5.168,5.1797,5.1894,5.2148,5.2246,5.2344,5.2441,5.2558,5.2676,5.2793,5.293,5.2832,5.2695,5.2734,5.2871,5.2949,5.3027,5.3301,5.3418,5.3457,5.3613,5.3613,5.3874,5.4516,5.497,5.5346,5.5678,5.6291,5.6621,3.1891,3.2118,3.2131,3.2265,3.2541,3.2594,3.2621,3.2621,3.2674,3.2835,3.3022,3.3049,3.3183,3.3497,3.3869,3.4082,3.425,3.467,3.4905,3.5175,3.5818,3.6341,3.6489,3.6539,3.6617,3.6745,3.7155,3.7401,3.7647,3.8335,3.8971,3.9069,3.946,3.9768,3.9817,3.9817,4.0141,4.0724,4.1111,4.1642,4.2237,4.2624,4.2864,4.2881,4.2933,4.3207,4.3757,4.4639,4.4975,4.4804,4.5932,4.6525,4.658,4.6892,4.7039,4.7112,4.7149,4.7185,4.7379,4.8263,4.8935,4.9335,5.0214,5.0996,5.1269,5.126,5.1299,5.1319,5.1358,5.1397,5.1397,5.1397,5.1397,5.1397,5.1397,5.1397,5.1397,5.1397,5.1416,5.1455,5.1436,5.1455,5.1553,5.1572,5.1777,5.1992,5.2129,5.2266,5.2461,5.2598,5.2715,5.2812,5.2891,5.3047,5.3203,5.3281,5.3398,5.3359,5.3262,5.3262,5.3301,5.3359,5.3418,5.3691,5.3797,5.3894,5.3965,5.3906,5.3887,5.4188,5.4584,5.497,5.5476,5.6031,5.6584,3.2407,3.2474,3.2474,3.2527,3.2621,3.2808,3.2915,3.2942,3.3093,3.3187,3.328,3.3307,3.332,3.3414,3.3564,3.3614,3.3764,3.4164,3.4413,3.4513,3.511,3.5905,3.6449,3.6612,3.6612,3.6612,3.6809,3.7007,3.7401,3.7746,3.8237,3.8971,3.9167,3.946,3.9719,3.9817,4.0303,4.0966,4.1224,4.1772,4.2545,4.3007,4.3255,4.3289,4.3529,4.3959,4.4511,4.5425,4.6139,4.6434,4.6681,4.6947,4.6947,4.7094,4.7277,4.7497,4.7552,4.7681,4.8146,4.8918,4.9549,4.9791,5.0648,5.126,5.1358,5.1397,5.1397,5.1397,5.1397,5.1397,5.1397,5.1397,5.1397,5.1397,5.1455,5.1455,5.1416,5.1397,5.1494,5.1836,5.1914,5.2031,5.2207,5.2305,5.2363,5.25,5.2558,5.2617,5.2851,5.3066,5.3183,5.332,5.3437,5.3613,5.375,5.3808,5.3848,5.3848,5.3808,5.3719,5.3789,5.3789,5.3848,5.3933,5.3894,5.3953,5.3953,5.3933,5.3972,5.3972,5.438,5.4838,5.5173,5.5678,5.6182,3.2661,3.2781,3.2781,3.2848,3.2969,3.3093,3.316,3.3187,3.332,3.3414,3.3414,3.3414,3.3414,3.3414,3.3414,3.3414,3.3464,3.3714,3.3864,3.3964,3.4463,3.5259,3.6053,3.6464,3.6612,3.6612,3.6612,3.6745,3.7056,3.7303,3.7893,3.8531,3.8923,3.9264,3.9768,3.9817,4.0286,4.1065,4.1438,4.2022,4.2952,4.3431,4.3632,4.3732,4.4102,4.4731,4.5607,4.6474,4.7004,4.7137,4.724,4.7351,4.7369,4.7516,4.7699,4.7937,4.7956,4.8164,4.8675,4.944,4.998,5.0323,5.0988,5.128,5.1397,5.1397,5.1397,5.1397,5.1397,5.1397,5.1416,5.1582,5.168,5.1738,5.1855,5.1875,5.1738,5.1894,5.207,5.2266,5.2363,5.2422,5.2695,5.2715,5.2832,5.293,5.2988,5.3105,5.3301,5.3496,5.3613,5.3691,5.375,5.3848,5.3887,5.3945,5.3945,5.3933,5.3953,5.3972,5.3972,5.3972,5.3972,5.3972,5.3972,5.3972,5.3972,5.3972,5.3972,5.4074,5.438,5.4584,5.4939,5.5224,5.5779,3.2835,3.3076,3.3026,3.3173,3.336,3.34,3.3374,3.34,3.34,3.3414,3.3414,3.3414,3.3414,3.3414,3.3414,3.3414,3.3414,3.3464,3.3464,3.3614,3.4064,3.4812,3.5657,3.6202,3.6449,3.6562,3.6612,3.6612,3.676,3.7106,3.7598,3.8218,3.8724,3.9294,3.9862,4.0009,4.0446,4.131,4.1899,4.2505,4.328,4.376,4.4092,4.4306,4.5017,4.5734,4.6718,4.7411,4.7626,4.7259,4.7571,4.7736,4.7791,4.8102,4.8231,4.828,4.833,4.8595,4.9076,4.9637,5.0176,5.0666,5.1085,5.1397,5.1397,5.1397,5.1397,5.1397,5.1416,5.1553,5.1719,5.1953,5.2109,5.2207,5.25,5.2558,5.2383,5.2519,5.2734,5.2773,5.2773,5.2773,5.2832,5.2871,5.3008,5.3398,5.3437,5.3516,5.3602,5.3769,5.3867,5.3875,5.3914,5.3953,5.3953,5.3972,5.3953,5.3972,5.3972,5.3972,5.3972,5.3972,5.3972,5.3972,5.3972,5.3972,5.3972,5.3972,5.3972,5.4023,5.4176,5.438,5.4584,5.4889,5.5294,3.3253,3.332,3.332,3.3347,3.34,3.3414,3.3414,3.3414,3.3414,3.3414,3.3414,3.3414,3.3414,3.3414,3.3414,3.3414,3.3414,3.3414,3.3414,3.3464,3.3964,3.4513,3.521,3.5756,3.6202,3.6464,3.6612,3.6612,3.6661,3.6888,3.7253,3.8215,3.874,3.9278,4.0148,4.0799,4.1487,4.2113,4.2657,4.3217,4.3781,4.425,4.465,4.5131,4.6169,4.691,4.7347,4.7861,4.8121,4.8084,4.8084,4.8102,4.8139,4.8212,4.8335,4.8434,4.8731,4.8978,4.9243,4.998,5.0549,5.0744,5.1134,5.1397,5.1397,5.1416,5.1397,5.1455,5.1738,5.2051,5.2305,5.248,5.2558,5.2656,5.2949,5.3253,5.3136,5.2871,5.293,5.3125,5.3273,5.339,5.3652,5.3582,5.373,5.3867,5.3887,5.3926,5.3965,5.3972,5.3972,5.3972,5.3972,5.3972,5.3972,5.3972,5.3972,5.3972,5.3972,5.3972,5.3972,5.3972,5.3972,5.3972,5.3972,5.3972,5.3972,5.3972,5.3972,5.3972,5.3972,5.4125,5.4329,5.4584,5.4838,3.3414,3.3414,3.3414,3.3414,3.3414,3.3414,3.3414,3.3414,3.3414,3.3414,3.3414,3.3414,3.3414,3.3414,3.3414,3.3414,3.3414,3.3414,3.3414,3.3464,3.3764,3.4263,3.4911,3.5359,3.5805,3.6464,3.6612,3.667,3.6837,3.7144,3.778,3.8661,3.9093,3.9769,4.0481,4.1285,4.1929,4.2625,4.3206,4.382,4.4439,4.4926,4.5596,4.6211,4.7103,4.7559,4.7889,4.8119,4.8286,4.8335,4.8335,4.8335,4.8335,4.8335,4.8385,4.8682,4.8879,4.9421,4.9863,5.0353,5.0812,5.0988,5.128,5.1328,5.1455,5.1582,5.1738,5.1816,5.2109,5.248,5.2695,5.2949,5.2988,5.3086,5.3418,5.3652,5.3633,5.3457,5.3398,5.3613,5.3672,5.3769,5.3894,5.3953,5.3972,5.3894,5.3894,5.3984,5.3984,5.3972,5.3972,5.3972,5.3972,5.3972,5.3972,5.3972,5.3972,5.3972,5.3972,5.3972,5.3972,5.3972,5.3972,5.3972,5.3972,5.3972,5.3972,5.3972,5.3972,5.3972,5.3972,5.3972,5.4074,5.4278,5.4533,3.3414,3.3414,3.3414,3.3414,3.3414,3.3414,3.3414,3.3414,3.3414,3.3414,3.3414,3.3414,3.3414,3.3414,3.3414,3.3414,3.3414,3.3414,3.3414,3.3414,3.3614,3.4268,3.4945,3.5372,3.5927,3.6679,3.6729,3.6925,3.7345,3.7784,3.8375,3.9235,3.981,4.0379,4.0964,4.1611,4.2407,4.3256,4.3841,4.4427,4.5118,4.5606,4.6308,4.7175,4.7591,4.7858,4.8137,4.8286,4.8335,4.8335,4.8335,4.8335,4.8434,4.8434,4.8583,4.9095,4.9273,4.9814,5.0353,5.0744,5.1007,5.1377,5.1494,5.1494,5.1641,5.1914,5.2129,5.2305,5.2539,5.2871,5.293,5.3242,5.3437,5.3516,5.3828,5.3953,5.3972,5.3972,5.3914,5.3914,5.3855,5.3894,5.3933,5.3972,5.3972,5.3972,5.3972,5.3972,5.3972,5.3972,5.3972,5.3972,5.3972,5.3972,5.3972,5.3972,5.3972,5.3972,5.3972,5.3972,5.3972,5.3972,5.3972,5.3972,5.3972,5.3972,5.3972,5.3972,5.3972,5.3972,5.3972,5.3972,5.3972,5.3972,5.4278,3.3414,3.3414,3.3414,3.3414,3.3414,3.3414,3.3414,3.3414,3.3414,3.3414,3.3414,3.3414,3.3414,3.3414,3.3414,3.3414,3.3414,3.3414,3.3427,3.3541,3.3868,3.4601,3.5425,3.5855,3.6536,3.7119,3.7298,3.7528,3.8001,3.8328,3.9044,3.9775,4.0346,4.0977,4.1915,4.27,4.3371,4.3959,4.4548,4.5187,4.5624,4.601,4.6511,4.7509,4.7907,4.8137,4.8236,4.8335,4.8335,4.8335,4.8335,4.8533,4.883,4.8947,4.9076,4.9323,4.9912,5.0402,5.0744,5.1105,5.1299,5.1455,5.1777,5.1973,5.207,5.2344,5.2598,5.2773,5.3027,5.3379,5.3769,5.3808,5.3867,5.3926,5.3945,5.3972,5.3972,5.3972,5.3972,5.3972,5.3972,5.3972,5.3972,5.3972,5.3972,5.3972,5.3972,5.3972,5.3972,5.3972,5.3972,5.3972,5.3972,5.3972,5.3972,5.3972,5.3972,5.3972,5.3972,5.3972,5.3972,5.3972,5.3972,5.3972,5.3972,5.3972,5.3972,5.3972,5.3972,5.3972,5.3972,5.3972,5.3972,5.3972,5.3972,3.3414,3.3414,3.3414,3.3414,3.3414,3.3414,3.3414,3.3414,3.3414,3.3414,3.3414,3.3414,3.3414,3.3414,3.3414,3.3414,3.3414,3.3414,3.3644,3.404,3.441,3.5115,3.6037,3.6471,3.7244,3.7913,3.8137,3.8209,3.8693,3.9267,3.9937,4.085,4.1379,4.2037,4.278,4.352,4.4177,4.47,4.5255,4.5759,4.6311,4.6511,4.7161,4.7758,4.8137,4.8286,4.8335,4.8335,4.8335,4.8385,4.8583,4.8848,4.9194,4.9618,4.9912,5.0029,5.0421,5.0861,5.1065,5.1504,5.1777,5.1816,5.2168,5.2383,5.2519,5.2773,5.3125,5.3359,5.3496,5.3789,5.3933,5.3972,5.3972,5.3972,5.3972,5.3972,5.3972,5.3972,5.3972,5.3972,5.3972,5.3972,5.3972,5.3972,5.3972,5.3972,5.3972,5.3972,5.3972,5.3972,5.3972,5.3972,5.3972,5.3972,5.3972,5.3972,5.3972,5.3972,5.3972,5.3972,5.3972,5.3972,5.3972,5.3972,5.3972,5.3972,5.3972,5.3972,5.3972,5.3972,5.3972,5.3972,5.3972,5.3972,5.3972,3.3414,3.3414,3.3414,3.3414,3.3414,3.3414,3.3414,3.3414,3.3414,3.3414,3.3414,3.3414,3.3414,3.3414,3.3414,3.3427,3.3494,3.3621,3.4135,3.4655,3.5115,3.5826,3.6626,3.7302,3.7892,3.8772,3.9315,3.9294,3.9601,4.0265,4.1136,4.1844,4.2533,4.3127,4.367,4.4177,4.4751,4.5238,4.5792,4.6311,4.6861,4.736,4.7858,4.8236,4.8335,4.8335,4.8335,4.8484,4.8533,4.8682,4.8928,4.9341,4.952,5.0206,5.0734,5.0957,5.0977,5.1221,5.1533,5.1973,5.2207,5.2226,5.2598,5.2773,5.2949,5.3242,5.3633,5.3894,5.3953,5.3933,5.3972,5.3972,5.3972,5.3972,5.3972,5.3972,5.3972,5.3972,5.3972,5.3972,5.3972,5.3972,5.3972,5.3972,5.3972,5.3972,5.3972,5.3972,5.3972,5.3972,5.3972,5.3972,5.3972,5.3972,5.3972,5.3972,5.3972,5.3972,5.3972,5.3972,5.3972,5.3972,5.3972,5.3972,5.3972,5.3972,5.3972,5.3972,5.3972,5.3972,5.3972,5.3972,5.3972,5.3972,5.3972,3.3414,3.3414,3.3414,3.3414,3.3414,3.3414,3.3414,3.3414,3.3414,3.3414,3.3414,3.3414,3.3414,3.3414,3.344,3.3587,3.3886,3.4284,3.4724,3.5327,3.6046,3.6712,3.7394,3.8258,3.8817,3.9608,4.0338,4.0693,4.0903,4.1415,4.1974,4.2652,4.3212,4.3687,4.4295,4.4902,4.5289,4.5809,4.6361,4.6861,4.736,4.7907,4.8187,4.8286,4.8335,4.8385,4.8484,4.8749,4.8978,4.9095,4.9489,5.0029,5.0451,5.0598,5.1171,5.1679,5.1962,5.1943,5.207,5.2402,5.2637,5.2715,5.3047,5.3292,5.3398,5.3613,5.3906,5.3933,5.3972,5.3972,5.3972,5.3972,5.3972,5.3972,5.3972,5.3972,5.3972,5.3972,5.3972,5.3972,5.3972,5.3972,5.3972,5.3972,5.3972,5.3972,5.3972,5.3972,5.3972,5.3972,5.3972,5.3972,5.3972,5.3972,5.3972,5.3972,5.3972,5.3972,5.3972,5.3972,5.3972,5.3972,5.3972,5.3972,5.3972,5.3972,5.3972,5.3972,5.3972,5.3972,5.3972,5.3972,5.3972,5.3972,5.3972,3.3414,3.3414,3.3414,3.3414,3.3414,3.3414,3.3414,3.3414,3.3414,3.3414,3.3414,3.3414,3.3414,3.3454,3.3587,3.395,3.4338,3.4792,3.5484,3.6196,3.6948,3.7606,3.8406,3.8996,3.958,4.0641,4.1269,4.1853,4.2192,4.2396,4.2719,4.3585,4.4127,4.4683,4.5155,4.5708,4.6261,4.6811,4.736,4.769,4.7957,4.8187,4.8335,4.8335,4.8583,4.8731,4.8898,4.9243,4.9538,4.9637,5.0078,5.0555,5.1003,5.1345,5.1795,5.2353,5.2745,5.2676,5.2539,5.2871,5.3027,5.3183,5.3457,5.373,5.3789,5.3887,5.3972,5.3972,5.3972,5.3972,5.3972,5.3972,5.3972,5.3972,5.3972,5.3972,5.3972,5.3972,5.3972,5.3972,5.3972,5.3972,5.3972,5.3972,5.3972,5.3972,5.3972,5.3972,5.3972,5.3972,5.3972,5.3972,5.3972,5.3972,5.3972,5.3972,5.3972,5.3972,5.3972,5.3972,5.3972,5.3972,5.3972,5.3972,5.3972,5.3972,5.3972,5.3972,5.3972,5.3972,5.3972,5.3972,5.3972,5.3972,5.3972,3.3414,3.3414,3.3414,3.3414,3.3414,3.3414,3.3414,3.3414,3.3414,3.3414,3.3414,3.3414,3.344,3.3611,3.3977,3.4392,3.4939,3.5437,3.6266,3.7097,3.7779,3.8413,3.9203,3.9707,4.0636,4.1833,4.2141,4.2856,4.345,4.367,4.3822,4.4498,4.4936,4.549,4.606,4.6561,4.7061,4.7609,4.7988,4.8286,4.8484,4.8484,4.8632,4.8799,4.9046,4.9292,4.9391,4.9833,5.0078,5.0367,5.0809,5.1296,5.1704,5.1999,5.2392,5.2812,5.3155,5.3273,5.3183,5.3359,5.3496,5.3633,5.375,5.3914,5.3933,5.3972,5.3972,5.3972,5.3972,5.3972,5.3972,5.3972,5.3972,5.3972,5.3972,5.3972,5.3972,5.3972,5.3972,5.3972,5.3972,5.3972,5.3972,5.3972,5.3972,5.3972,5.3972,5.3972,5.3972,5.3972,5.3972,5.3972,5.3972,5.3972,5.3972,5.3972,5.3972,5.3972,5.3972,5.3972,5.3972,5.3972,5.3972,5.3972,5.3972,5.3972,5.3972,5.3972,5.3972,5.3972,5.3972,5.3972,5.3972,5.3972,5.3972,3.3414,3.3414,3.3414,3.3414,3.3414,3.3414,3.3414,3.3414,3.3414,3.3414,3.3414,3.344,3.3601,3.3902,3.4406,3.4983,3.5603,3.6664,3.7262,3.7953,3.8655,3.9196,3.9929,4.0806,4.1644,4.2157,4.2907,4.3975,4.4734,4.4885,4.4919,4.512,4.5759,4.616,4.6611,4.7161,4.7708,4.8137,4.8385,4.8682,4.8928,4.9076,4.9243,4.9637,4.9784,4.9833,4.9901,5.0468,5.0837,5.1163,5.1509,5.1831,5.213,5.2308,5.259,5.299,5.3126,5.3282,5.3488,5.3738,5.3875,5.3933,5.3953,5.3972,5.3972,5.3972,5.3972,5.3972,5.3972,5.3972,5.3972,5.3972,5.3972,5.3972,5.3972,5.3972,5.3972,5.3972,5.3972,5.3972,5.3972,5.3972,5.3972,5.3972,5.3972,5.3972,5.3972,5.3972,5.3972,5.3972,5.3972,5.3972,5.3972,5.3972,5.3972,5.3972,5.3972,5.3972,5.3972,5.3972,5.3972,5.3972,5.3972,5.3972,5.3972,5.3972,5.3972,5.3972,5.3972,5.3972,5.3972,5.3972,5.3972,5.3972,5.3972,3.3414,3.3414,3.3414,3.3414,3.3414,3.3414,3.3414,3.3414,3.3414,3.3414,3.3427,3.3614,3.3774,3.4101,3.4925,3.5541,3.6166,3.7088,3.7893,3.8589,3.9241,3.9929,4.0754,4.1526,4.2259,4.3229,4.4127,4.4784,4.5507,4.5842,4.6343,4.6561,4.6761,4.6911,4.731,4.7708,4.8236,4.8632,4.883,4.9076,4.9489,4.9587,4.9686,4.9833,5.0599,5.0705,5.0862,5.1567,5.1711,5.1746,5.1884,5.2035,5.2173,5.22,5.2411,5.2788,5.2846,5.3063,5.3486,5.3768,5.3972,5.3972,5.3972,5.3972,5.3972,5.3972,5.3972,5.3972,5.3972,5.3972,5.3972,5.3972,5.3972,5.3972,5.3972,5.3972,5.3972,5.3972,5.3972,5.3972,5.3972,5.3972,5.3972,5.3972,5.3972,5.3972,5.3972,5.3972,5.3972,5.3972,5.3972,5.3972,5.3972,5.3972,5.3972,5.3972,5.3972,5.3972,5.3972,5.3972,5.3972,5.3972,5.3972,5.3972,5.3972,5.3972,5.3972,5.3972,5.3972,5.3972,5.3972,5.3972,5.3972,5.3972,5.3972,3.3414,3.3414,3.3414,3.3414,3.3414,3.3414,3.3414,3.3414,3.3414,3.348,3.3561,3.3801,3.4103,3.4587,3.5335,3.6207,3.6942,3.7826,3.8589,3.9308,3.9981,4.0754,4.1628,4.2601,4.3569,4.4549,4.5306,4.5909,4.6411,4.6761,4.7161,4.7559,4.7858,4.7907,4.7858,4.8304,4.878,4.9194,4.9391,4.9682,5.02,5.0337,5.0618,5.0774,5.1476,5.1672,5.173,5.2034,5.2147,5.2031,5.1965,5.1903,5.1929,5.1984,5.2117,5.2268,5.2434,5.2588,5.2999,5.3563,5.3921,5.3972,5.3972,5.3972,5.3972,5.3972,5.3972,5.3972,5.3972,5.3972,5.3972,5.3972,5.3972,5.3972,5.3972,5.3972,5.3972,5.3972,5.3972,5.3972,5.3972,5.3972,5.3972,5.3972,5.3972,5.3972,5.3972,5.3972,5.3972,5.3972,5.3972,5.3972,5.3972,5.3972,5.3972,5.3972,5.3972,5.3972,5.3972,5.3972,5.3972,5.3972,5.3972,5.3972,5.3972,5.3972,5.3972,5.3972,5.3972,5.3972,5.3972,5.3972,5.3972,5.3972,5.3972,3.3414,3.3414,3.3414,3.3414,3.3414,3.3414,3.3414,3.3414,3.3414,3.3574,3.3814,3.3908,3.4523,3.5366,3.6048,3.6786,3.7685,3.8655,3.9411,3.9929,4.0806,4.1577,4.2601,4.3721,4.4633,4.5221,4.5992,4.6761,4.731,4.7559,4.7858,4.8322,4.8706,4.8836,4.8403,4.883,4.9341,4.9803,4.992,5.0443,5.1075,5.13,5.1653,5.2075,5.2438,5.2496,5.2405,5.234,5.2301,5.2138,5.1872,5.1825,5.1936,5.2011,5.2119,5.2157,5.2227,5.233,5.2485,5.341,5.3819,5.3972,5.3972,5.3972,5.3972,5.3972,5.3972,5.3972,5.3972,5.3972,5.3972,5.3972,5.3972,5.3972,5.3972,5.3972,5.3972,5.3972,5.3972,5.3972,5.3972,5.3972,5.3972,5.3972,5.3972,5.3972,5.3972,5.3972,5.3972,5.3972,5.3972,5.3972,5.3972,5.3972,5.3972,5.3972,5.3972,5.3972,5.3972,5.3972,5.3972,5.3972,5.3972,5.3972,5.3972,5.3972,5.3972,5.3972,5.3972,5.3972,5.3972,5.3972,5.3972,5.3972,5.3972,3.3414,3.3414,3.3414,3.3414,3.3414,3.3414,3.3414,3.3414,3.3427,3.3587,3.3881,3.4068,3.4685,3.5592,3.6451,3.7268,3.824,3.8945,3.967,4.1012,4.1644,4.2805,4.3806,4.4616,4.549,4.6193,4.6911,4.731,4.746,4.8142,4.8552,4.8966,4.9622,4.9715,4.9515,4.9656,4.9977,5.0656,5.09,5.1232,5.2094,5.2221,5.2399,5.2754,5.3008,5.2943,5.2661,5.2531,5.2336,5.1958,5.1636,5.1542,5.1433,5.14,5.1348,5.1296,5.1296,5.1659,5.2279,5.3102,5.3615,5.3819,5.3972,5.3972,5.3972,5.3972,5.3972,5.3972,5.3972,5.3972,5.3972,5.3972,5.3972,5.3972,5.3972,5.3972,5.3972,5.3972,5.3972,5.3972,5.3972,5.3972,5.3972,5.3972,5.3972,5.3972,5.3972,5.3972,5.3972,5.3972,5.3972,5.3972,5.3972,5.3972,5.3972,5.3972,5.3972,5.3972,5.3972,5.3972,5.3972,5.3972,5.3972,5.3972,5.3972,5.3972,5.3972,5.3972,5.3972,5.3972,5.3972,5.3972,5.3972,5.3972,5.3972,3.3414,3.3414,3.3414,3.3414,3.3414,3.3414,3.3414,3.3427,3.3534,3.3748,3.4106,3.4555,3.5265,3.6097,3.6865,3.78,3.8789,3.9411,4.0342,4.1747,4.2294,4.3416,4.4565,4.554,4.6211,4.6961,4.7659,4.8106,4.8223,4.9145,4.9759,5.0264,5.0663,5.0912,5.0828,5.0908,5.1034,5.1592,5.1848,5.2103,5.2713,5.2919,5.2977,5.3192,5.3235,5.3137,5.2839,5.2584,5.2293,5.1673,5.1278,5.107,5.0758,5.0673,5.0673,5.0673,5.0777,5.1348,5.2227,5.264,5.3256,5.3921,5.3972,5.3972,5.3972,5.3972,5.3972,5.3972,5.3972,5.3972,5.3972,5.3972,5.3972,5.3972,5.3972,5.3972,5.3972,5.3972,5.3972,5.3972,5.3972,5.3972,5.3972,5.3972,5.3972,5.3972,5.3972,5.3972,5.3972,5.3972,5.3972,5.3972,5.3972,5.3972,5.3972,5.3972,5.3972,5.3972,5.3972,5.3972,5.3972,5.3972,5.3972,5.3972,5.3972,5.3972,5.3972,5.3972,5.3972,5.3972,5.3972,5.3972,5.3972,5.3972,5.3972,3.3414,3.3414,3.3414,3.3414,3.3414,3.3414,3.3414,3.344,3.3734,3.4028,3.4322,3.5159,3.5899,3.6789,3.7434,3.8373,3.9411,4.0032,4.1012,4.2038,4.306,4.4211,4.5289,4.6211,4.6961,4.7708,4.8372,4.8836,4.917,5.0089,5.0946,5.1612,5.1808,5.2077,5.2158,5.2235,5.2255,5.2524,5.2604,5.2888,5.3281,5.3398,5.3535,5.3629,5.3459,5.3192,5.275,5.2222,5.1725,5.1259,5.1018,5.081,5.0673,5.0673,5.0673,5.0673,5.0673,5.1348,5.2176,5.2485,5.3051,5.3819,5.3972,5.3972,5.3972,5.3972,5.3972,5.3972,5.3972,5.3972,5.3972,5.3972,5.3972,5.3972,5.3972,5.3972,5.3972,5.3972,5.3972,5.3972,5.3972,5.3972,5.3972,5.3972,5.3972,5.3972,5.3972,5.3972,5.3972,5.3972,5.3972,5.3972,5.3972,5.3972,5.3972,5.3972,5.3972,5.3972,5.3972,5.3972,5.3972,5.3972,5.3972,5.3972,5.3972,5.3972,5.3972,5.3972,5.3972,5.3972,5.3972,5.3972,5.3972,5.3972,5.3972,3.3414,3.3414,3.3414,3.3414,3.3414,3.3414,3.3414,3.3454,3.3748,3.4042,3.4336,3.52,3.6124,3.6949,3.7852,3.8893,3.9929,4.096,4.1987,4.3009,4.3958,4.5188,4.6143,4.6961,4.7758,4.8453,4.9034,4.9559,5.0157,5.1034,5.1793,5.2396,5.2765,5.3044,5.318,5.3274,5.3258,5.3192,5.3183,5.3418,5.3672,5.3769,5.3875,5.378,5.339,5.3032,5.2466,5.1899,5.1363,5.0914,5.081,5.0673,5.0673,5.0673,5.0673,5.0673,5.0829,5.1192,5.2124,5.2382,5.2845,5.3717,5.3972,5.3972,5.3972,5.3972,5.3972,5.3972,5.3972,5.3972,5.3972,5.3972,5.3972,5.3972,5.3972,5.3972,5.3972,5.3972,5.3972,5.3972,5.3972,5.3972,5.3972,5.3972,5.3972,5.3972,5.3972,5.3972,5.3972,5.3972,5.3972,5.3972,5.3972,5.3972,5.3972,5.3972,5.3972,5.3972,5.3972,5.3972,5.3972,5.3972,5.3972,5.3972,5.3972,5.3972,5.3972,5.3972,5.3972,5.3972,5.3972,5.3972,5.3972,5.3972,5.3972,3.3414,3.3414,3.3414,3.3414,3.3414,3.3414,3.3467,3.3641,3.3935,3.4215,3.4613,3.5688,3.643,3.704,3.8217,3.9308,4.0202,4.1218,4.2396,4.3755,4.4717,4.5792,4.6761,4.7609,4.8255,4.8966,4.9708,5.0379,5.1038,5.1966,5.2777,5.32,5.3555,5.3594,5.3691,5.3758,5.3758,5.3691,5.3652,5.3789,5.3855,5.3972,5.387,5.3615,5.3185,5.264,5.2073,5.1518,5.1018,5.0725,5.0725,5.0673,5.0673,5.0673,5.0673,5.0673,5.0725,5.1348,5.2176,5.2382,5.2999,5.3666,5.3972,5.3972,5.3972,5.3972,5.3972,5.3972,5.3972,5.3972,5.3972,5.3972,5.3972,5.3972,5.3972,5.3972,5.3972,5.3972,5.3972,5.3972,5.3972,5.3972,5.3972,5.3972,5.3972,5.3972,5.3972,5.3972,5.3972,5.3972,5.3972,5.3972,5.3972,5.3972,5.3972,5.3972,5.3972,5.3972,5.3972,5.3972,5.3972,5.3972,5.3972,5.3972,5.3972,5.3972,5.3972,5.3972,5.3972,5.3972,5.3972,5.3972,5.3972,5.3972,5.3972,3.3414,3.3414,3.3414,3.3414,3.3414,3.3414,3.3601,3.3935,3.4189,3.4482,3.5023,3.6249,3.6845,3.7225,3.8633,3.9618,4.0548,4.1577,4.2907,4.4312,4.5188,4.6193,4.7211,4.8106,4.8805,4.9559,5.036,5.1141,5.1796,5.2637,5.3492,5.3972,5.3914,5.3875,5.3894,5.3933,5.3914,5.3926,5.3906,5.3914,5.3933,5.3921,5.3768,5.3256,5.2723,5.2176,5.1589,5.107,5.0673,5.0673,5.0673,5.0673,5.0673,5.0673,5.0673,5.0673,5.0673,5.1348,5.2073,5.2382,5.2999,5.3563,5.3972,5.3972,5.3972,5.3972,5.3972,5.3972,5.3972,5.3972,5.3972,5.3972,5.3972,5.3972,5.3972,5.3972,5.3972,5.3972,5.3972,5.3972,5.3972,5.3972,5.3972,5.3972,5.3972,5.3972,5.3972,5.3972,5.3972,5.3972,5.3972,5.3972,5.3972,5.3972,5.3972,5.3972,5.3972,5.3972,5.3972,5.3972,5.3972,5.3972,5.3972,5.3972,5.3972,5.3972,5.3972,5.3972,5.3972,5.3972,5.3972,5.3972,5.3972,5.3972,5.3972,3.3414,3.3414,3.3414,3.3414,3.3414,3.3414,3.3721,3.4202,3.4282,3.4496,3.5037,3.6196,3.6911,3.7173,3.9048,4.0084,4.0548,4.2089,4.34,4.4633,4.5591,4.6544,4.7559,4.8502,4.9294,5.015,5.0992,5.1953,5.2707,5.3453,5.3887,5.3953,5.3972,5.3972,5.3972,5.3972,5.3972,5.3972,5.3972,5.3972,5.3972,5.3921,5.3768,5.3205,5.264,5.2054,5.1537,5.1018,5.0758,5.0673,5.0673,5.0673,5.0673,5.0673,5.0673,5.0673,5.0725,5.1348,5.2021,5.2485,5.2948,5.3615,5.3972,5.3972,5.3972,5.3972,5.3972,5.3972,5.3972,5.3972,5.3972,5.3972,5.3972,5.3972,5.3972,5.3972,5.3972,5.3972,5.3972,5.3972,5.3972,5.3972,5.3972,5.3972,5.3972,5.3972,5.3972,5.3972,5.3972,5.3972,5.3972,5.3972,5.3972,5.3972,5.3972,5.3972,5.3972,5.3972,5.3972,5.3972,5.3972,5.3972,5.3972,5.3972,5.3972,5.3972,5.3972,5.3972,5.3972,5.3972,5.3972,5.3972,5.3972,5.3972,5.3972,3.3414,3.3414,3.3414,3.3414,3.3414,3.3414,3.3761,3.4255,3.4322,3.4563,3.5133,3.6252,3.6911,3.7225,3.9204,4.0394,4.0857,4.2585,4.4009,4.5171,4.6043,4.7011,4.7957,4.8898,4.9653,5.0531,5.1793,5.2846,5.3594,5.3828,5.3953,5.3972,5.3972,5.3972,5.3972,5.3972,5.3972,5.3972,5.3972,5.3972,5.3972,5.3921,5.3563,5.2999,5.2485,5.195,5.133,5.081,5.0758,5.0673,5.0673,5.0673,5.0673,5.0673,5.0673,5.0673,5.0829,5.1192,5.2021,5.2537,5.2897,5.3615,5.3972,5.3972,5.3972,5.3972,5.3972,5.3972,5.3972,5.3972,5.3972,5.3972,5.3972,5.3972,5.3972,5.3972,5.3972,5.3972,5.3972,5.3972,5.3972,5.3972,5.3972,5.3972,5.3972,5.3972,5.3972,5.3972,5.3972,5.3972,5.3972,5.3972,5.3972,5.3972,5.3972,5.3972,5.3972,5.3972,5.3972,5.3972,5.3972,5.3972,5.3972,5.3972,5.3972,5.3972,5.3972,5.3972,5.3972,5.3972,5.3972,5.3972,5.3972,5.3972,5.3972,3.3414,3.3414,3.3414,3.3414,3.3414,3.3414,3.3761,3.4255,3.4322,3.4643,3.5282,3.6373,3.6859,3.7643,3.9152,4.0187,4.1356,4.2754,4.4262,4.5573,4.6361,4.726,4.8255,4.9311,5.0174,5.1271,5.2537,5.3255,5.3894,5.3972,5.3972,5.3972,5.3972,5.3972,5.3972,5.3972,5.3972,5.3972,5.3972,5.3972,5.3972,5.3921,5.3359,5.2794,5.233,5.1814,5.1089,5.0673,5.0673,5.0673,5.0673,5.0673,5.0673,5.0673,5.0673,5.0673,5.0725,5.1348,5.2124,5.2434,5.3051,5.3666,5.387,5.3972,5.3972,5.3972,5.3972,5.3972,5.3972,5.3972,5.3972,5.3972,5.3972,5.3972,5.3972,5.3972,5.3972,5.3972,5.3972,5.3972,5.3972,5.3972,5.3972,5.3972,5.3972,5.3972,5.3972,5.3972,5.3972,5.3972,5.3972,5.3972,5.3972,5.3972,5.3972,5.3972,5.3972,5.3972,5.3972,5.3972,5.3972,5.3972,5.3972,5.3972,5.3972,5.3972,5.3972,5.3972,5.3972,5.3972,5.3972,5.3972,5.3972,5.3972,5.3972,3.3414,3.3414,3.3414,3.3414,3.3414,3.3414,3.3761,3.4269,3.4322,3.4643,3.5399,3.6282,3.6911,3.7016,3.9204,4.0497,4.1356,4.2805,4.4363,4.5774,4.6461,4.736,4.8409,4.9578,5.0839,5.205,5.3119,5.3746,5.3972,5.3972,5.3972,5.3972,5.3972,5.3972,5.3972,5.3972,5.3972,5.3972,5.3972,5.3972,5.3972,5.3819,5.3359,5.2845,5.2382,5.1659,5.1037,5.0725,5.0673,5.0673,5.0673,5.0673,5.0673,5.0673,5.0673,5.0673,5.0673,5.1348,5.1969,5.233,5.2999,5.3819,5.3972,5.3972,5.3972,5.3972,5.3972,5.3972,5.3972,5.3972,5.3972,5.3972,5.3972,5.3972,5.3972,5.3972,5.3972,5.3972,5.3972,5.3972,5.3972,5.3972,5.3972,5.3972,5.3972,5.3972,5.3972,5.3972,5.3972,5.3972,5.3972,5.3972,5.3972,5.3972,5.3972,5.3972,5.3972,5.3972,5.3972,5.3972,5.3972,5.3972,5.3972,5.3972,5.3972,5.3972,5.3972,5.3972,5.3972,5.3972,5.3972,5.3972,5.3972,5.3972,5.3972]},{"header":{"parameterUnit":"m.s-1","parameterCategory":1,"la1":31.0,"la2":29.5877,"lo1":-88.7671,"lo2":-86.6584,"dx":0.0162,"dy":0.0185,"nx":115,"ny":88,"refTime":"2022-11-07T06:00:00:Z","depth":0,"parameterNumber":3,"parameterNumberName":"V-component_of_WINDS"},"data":[0.0,0.0,0.0,0.0,0.0,0.0,0.0,0.0,0.0,0.0,0.0,0.0,0.0,0.0,0.0,0.0,0.0,0.0,0.0,0.0,0.0,0.0,0.0,0.0,0.0,0.0,0.0,0.0,0.0,0.0,0.0,0.0,0.0,0.0,0.0,0.0,0.0,0.0,0.0,0.0,0.0,0.0,0.0,0.0,0.0,0.0,0.0,0.0,0.0,0.0,0.0,0.0,0.0,0.0,0.0,0.0,0.0,0.0,0.0,0.0,0.0,0.0,0.0,0.0,0.0,0.0,0.0,0.0,0.0,0.0,0.0,0.0,0.0,0.0,0.0,0.0,0.0,0.0,0.0,0.0,0.0,0.0,0.0,0.0,0.0,0.0,0.0,0.0,0.0,0.0,0.0,0.0,0.0,0.0,0.0,0.0,0.0,0.0,0.0,0.0,0.0,0.0,0.0,0.0,0.0,0.0,0.0,0.0,0.0,0.0,0.0,0.0,0.0,0.0,0.0,0.0,0.0,0.0,0.0,0.0,0.0,0.0,0.0,0.0,0.0,0.0,0.0,0.0,0.0,0.0,0.0,0.0,0.0,0.0,0.0,0.0,0.0,0.0,0.0,0.0,0.0,0.0,0.0,0.0,0.0,0.0,0.0,0.0,0.0,0.0,0.0,0.0,0.0,0.0,0.0,0.0,0.0,0.0,0.0,0.0,0.0,0.0,0.0,0.0,0.0,0.0,0.0,0.0,0.0,0.0,0.0,0.0,0.0,0.0,0.0,0.0,0.0,0.0,0.0,0.0,0.0,0.0,0.0,0.0,0.0,0.0,0.0,0.0,0.0,0.0,0.0,0.0,0.0,0.0,0.0,0.0,0.0,0.0,0.0,0.0,0.0,0.0,0.0,0.0,0.0,0.0,0.0,0.0,0.0,0.0,0.0,0.0,0.0,0.0,0.0,0.0,0.0,0.0,0.0,0.0,0.0,0.0,0.0,0.0,0.0,0.0,0.0,0.0,0.0,0.0,0.0,0.0,0.0,0.0,0.0,0.0,0.0,0.0,0.0,0.0,0.0,0.0,0.0,0.0,0.0,0.0,0.0,0.0,0.0,0.0,0.0,0.0,0.0,0.0,0.0,0.0,0.0,0.0,0.0,0.0,0.0,0.0,0.0,0.0,0.0,0.0,0.0,0.0,0.0,0.0,0.0,0.0,0.0,0.0,0.0,0.0,0.0,0.0,0.0,0.0,0.0,0.0,0.0,0.0,0.0,0.0,0.0,0.0,0.0,0.0,0.0,0.0,0.0,0.0,0.0,0.0,0.0,0.0,0.0,0.0,0.0,0.0,0.0,0.0,0.0,0.0,0.0,0.0,0.0,0.0,0.0,0.0,0.0,0.0,0.0,0.0,0.0,0.0,0.0,0.0,0.0,0.0,0.0,0.0,0.0,0.0,0.0,0.0,0.0,0.0,0.0,0.0,0.0,0.0,0.0,0.0,0.0,0.0,0.0,0.0,0.0,0.0,0.0,0.0,0.0,0.0,0.0,0.0,0.0,0.0,0.0,0.0,0.0,0.0,0.0,0.0,0.0,0.0,0.0,0.0,0.0,0.0,0.0,0.0,0.0,0.0,0.0,0.0,0.0,0.0,0.0,0.0,0.0,0.0,0.0,0.0,0.0,0.0,0.0,0.0,0.0,0.0,0.0,0.0,0.0,0.0,0.0,0.0,0.0,0.0,0.0,0.0,0.0,0.0,0.0,0.0,0.0,0.0,0.0,0.0,0.0,0.0,0.0,0.0,0.0,0.0,0.0,0.0,0.0,0.0,0.0,0.0,0.0,0.0,0.0,0.0,0.0,0.0,0.0,0.0,0.0,0.0,0.0,0.0,0.0,0.0,0.0,0.0,0.0,0.0,0.0,0.0,0.0,0.0,0.0,0.0,0.0,0.0,0.0,0.0,0.0,0.0,0.0,0.0,0.0,0.0,0.0,0.0,0.0,0.0,0.0,0.0,0.0,0.0,0.0,0.0,0.0,0.0,0.0,0.0,0.0,0.0,0.0,0.0,0.0,0.0,0.0,0.0,0.0,0.0,0.0,0.0,0.0,0.0,0.0,0.0,0.0,0.0,0.0,0.0,0.0,0.0,0.0,0.0,0.0,0.0,0.0,0.0,0.0,0.0,0.0,0.0,0.0,0.0,0.0,0.0,0.0,0.0,0.0,0.0,0.0,0.0,0.0,0.0,0.0,0.0,0.0,0.0,0.0,0.0,0.0,0.0,0.0,0.0,0.0,0.0,0.0,0.0,0.0,0.0,0.0,0.0,0.0,0.0,0.0,0.0,0.0,0.0,0.0,0.0,0.0,0.0,0.0,0.0,0.0,0.0,0.0,0.0,0.0,0.0,0.0,0.0,0.0,0.0,0.0,0.0,0.0,0.0,0.0,0.0,0.0,0.0,0.0,0.0,0.0,0.0,0.0,0.0,0.0,0.0,0.0,0.0,0.0,0.0,0.0,0.0,0.0,0.0,0.0,0.0,0.0,0.0,0.0,0.0,0.0,0.0,0.0,0.0,0.0,0.0,0.0,0.0,0.0,0.0,0.0,0.0,0.0,0.0,0.0,0.0,0.0,0.0,0.0,0.0,0.0,0.0,0.0,0.0,0.0,0.0,0.0,0.0,0.0,0.0,0.0,0.0,0.0,0.0,0.0,0.0,0.0,0.0,0.0,0.0,0.0,0.0,0.0,0.0,0.0,0.0,0.0,0.0,0.0,0.0,0.0,0.0,0.0,0.0,0.0,0.0,0.0,0.0,0.0,0.0,0.0,0.0,0.0,0.0,0.0,0.0,0.0,0.0,0.0,0.0,0.0,0.0,0.0,0.0,0.0,0.0,0.0,0.0,0.0,0.0,0.0,0.0,0.0,0.0,0.0,0.0,0.0,0.0,0.0,0.0,0.0,0.0,0.0,0.0,0.0,0.0,0.0,0.0,0.0,0.0,0.0,0.0,0.0,0.0,0.0,0.0,0.0,0.0,0.0,0.0,0.0,0.0,0.0,0.0,0.0,0.0,0.0,0.0,0.0,0.0,0.0,0.0,0.0,0.0,0.0,0.0,0.0,0.0,0.0,0.0,0.0,0.0,0.0,0.0,0.0,0.0,0.0,0.0,0.0,0.0,0.0,0.0,0.0,0.0,0.0,0.0,0.0,0.0,0.0,0.0,0.0,0.0,0.0,0.0,0.0,0.0,0.0,0.0,0.0,0.0,0.0,0.0,0.0,0.0,0.0,0.0,0.0,0.0,0.0,0.0,0.0,0.0,0.0,0.0,0.0,0.0,0.0,0.0,0.0,0.0,0.0,0.0,0.0,0.0,0.0,0.0,0.0,0.0,0.0,0.0,0.0,0.0,0.0,0.0,0.0,0.0,0.0,0.0,0.0,0.0,0.0,0.0,0.0,0.0,0.0,0.0,0.0,0.0,0.0,0.0,0.0,0.0,0.0,0.0,0.0,0.0,0.0,0.0,0.0,0.0,0.0,0.0,0.0,0.0,0.0,0.0,0.0,0.0,0.0,0.0,0.0,0.0,0.0,0.0,0.0,0.0,0.0,0.0,0.0,0.0,0.0,0.0,0.0,0.0,0.0,0.0,0.0,0.0,0.0,0.0,0.0,0.0,0.0,0.0,0.0,0.0,0.0,0.0,0.0,0.0,0.0,0.0,0.0,0.0,0.0,0.0,0.0,0.0,0.0,0.0,0.0,0.0,0.0,0.0,0.0,0.0,0.0,0.0,0.0,0.0,0.0,0.0,0.0,0.0,0.0,0.0,0.0,0.0,0.0,0.0,0.0,0.0,0.0,0.0,0.0,0.0,0.0,0.0,0.0,0.0,0.0,0.0,0.0,0.0,0.0,0.0,0.0,0.0,0.0,0.0,0.0,0.0,0.0,0.0,0.0,0.0,0.0,0.0,0.0,0.0,0.0,0.0,0.0,0.0,0.0,0.0,0.0,0.0,0.0,0.0,0.0,0.0,0.0,0.0,0.0,0.0,0.0,0.0,0.0,0.0,0.0,0.0,0.0,0.0,0.0,0.0,0.0,0.0,0.0,0.0,0.0,0.0,0.0,0.0,0.0,0.0,0.0,0.0,0.0,0.0,0.0,0.0,0.0,0.0,0.0,0.0,0.0,0.0,0.0,0.0,0.0,0.0,0.0,0.0,0.0,0.0,0.0,0.0,0.0,0.0,0.0,0.0,0.0,0.0,0.0,0.0,0.0,0.0,2.669,0.0,0.0,0.0,2.6773,0.0,0.0,0.0,0.0,0.0,0.0,0.0,0.0,0.0,0.0,0.0,0.0,0.0,0.0,0.0,0.0,0.0,0.0,0.0,0.0,0.0,0.0,0.0,0.0,0.0,0.0,0.0,0.0,0.0,0.0,0.0,0.0,0.0,0.0,0.0,0.0,0.0,0.0,0.0,0.0,0.0,0.0,0.0,0.0,0.0,0.0,0.0,0.0,0.0,0.0,0.0,0.0,0.0,0.0,0.0,0.0,0.0,0.0,0.0,0.0,0.0,0.0,0.0,0.0,0.0,0.0,0.0,0.0,0.0,0.0,0.0,0.0,0.0,0.0,0.0,0.0,0.0,0.0,0.0,0.0,0.0,0.0,0.0,0.0,0.0,0.0,0.0,0.0,0.0,0.0,0.0,0.0,0.0,0.0,0.0,0.0,0.0,0.0,0.0,0.0,0.0,0.0,0.0,0.0,0.0,0.0,0.0,0.0,0.0,0.0,2.6741,2.6691,2.6691,2.6758,2.695,0.0,0.0,0.0,0.0,0.0,0.0,0.0,0.0,0.0,0.0,0.0,0.0,0.0,0.0,0.0,0.0,0.0,0.0,0.0,0.0,0.0,0.0,0.0,0.0,0.0,0.0,0.0,0.0,0.0,0.0,0.0,0.0,0.0,0.0,0.0,0.0,0.0,0.0,0.0,0.0,0.0,0.0,0.0,0.0,0.0,0.0,0.0,0.0,0.0,0.0,0.0,0.0,0.0,0.0,0.0,0.0,0.0,0.0,0.0,0.0,0.0,0.0,0.0,0.0,0.0,0.0,0.0,0.0,0.0,0.0,0.0,0.0,0.0,0.0,0.0,0.0,0.0,0.0,0.0,0.0,0.0,0.0,0.0,0.0,0.0,0.0,0.0,0.0,0.0,0.0,0.0,0.0,0.0,0.0,0.0,0.0,0.0,0.0,0.0,0.0,0.0,0.0,0.0,0.0,0.0,0.0,0.0,0.0,0.0,0.0,0.0,0.0,2.7139,2.7216,2.7239,0.0,0.0,0.0,0.0,0.0,0.0,0.0,0.0,0.0,0.0,0.0,0.0,0.0,0.0,0.0,0.0,0.0,0.0,0.0,0.0,0.0,0.0,0.0,0.0,0.0,0.0,0.0,0.0,0.0,0.0,0.0,0.0,0.0,0.0,0.0,0.0,0.0,0.0,0.0,0.0,0.0,0.0,0.0,0.0,0.0,0.0,0.0,0.0,0.0,0.0,0.0,0.0,0.0,0.0,0.0,0.0,0.0,0.0,0.0,0.0,0.0,0.0,0.0,0.0,0.0,0.0,0.0,0.0,0.0,0.0,0.0,0.0,0.0,0.0,0.0,0.0,0.0,0.0,0.0,0.0,0.0,0.0,0.0,0.0,0.0,0.0,0.0,0.0,0.0,0.0,0.0,0.0,0.0,0.0,0.0,0.0,0.0,0.0,0.0,0.0,0.0,0.0,0.0,0.0,0.0,0.0,0.0,0.0,0.0,0.0,2.7689,2.7722,2.8383,0.0,2.8024,0.0,0.0,0.0,0.0,0.0,0.0,0.0,0.0,0.0,0.0,0.0,0.0,0.0,0.0,0.0,0.0,0.0,0.0,0.0,0.0,0.0,0.0,0.0,0.0,0.0,0.0,0.0,0.0,0.0,0.0,0.0,0.0,0.0,0.0,0.0,0.0,0.0,0.0,0.0,0.0,0.0,0.0,0.0,0.0,0.0,0.0,0.0,0.0,0.0,0.0,0.0,0.0,0.0,0.0,0.0,0.0,0.0,0.0,0.0,0.0,0.0,0.0,0.0,0.0,0.0,0.0,0.0,0.0,0.0,0.0,0.0,0.0,0.0,0.0,0.0,0.0,0.0,0.0,0.0,0.0,0.0,0.0,0.0,0.0,0.0,0.0,0.0,0.0,0.0,0.0,0.0,0.0,0.0,0.0,0.0,0.0,0.0,0.0,0.0,0.0,0.0,0.0,0.0,0.0,0.0,0.0,0.0,0.0,0.0,0.0,2.8035,2.8484,2.8877,2.8762,0.0,0.0,0.0,0.0,0.0,0.0,0.0,0.0,0.0,0.0,0.0,0.0,0.0,0.0,0.0,0.0,0.0,0.0,0.0,0.0,0.0,0.0,0.0,0.0,0.0,0.0,0.0,0.0,0.0,0.0,0.0,0.0,0.0,0.0,0.0,0.0,0.0,0.0,0.0,0.0,0.0,0.0,0.0,0.0,0.0,0.0,0.0,0.0,0.0,0.0,0.0,0.0,0.0,0.0,0.0,0.0,0.0,0.0,0.0,0.0,0.0,0.0,0.0,0.0,0.0,0.0,0.0,0.0,0.0,0.0,0.0,0.0,0.0,0.0,0.0,0.0,0.0,0.0,0.0,0.0,0.0,0.0,0.0,0.0,0.0,0.0,0.0,0.0,0.0,0.0,0.0,0.0,0.0,0.0,0.0,0.0,0.0,0.0,0.0,0.0,0.0,0.0,0.0,0.0,0.0,0.0,0.0,0.0,0.0,0.0,2.8196,2.8813,2.9542,2.9641,2.9263,2.8399,0.0,0.0,0.0,0.0,0.0,0.0,0.0,0.0,0.0,0.0,0.0,0.0,0.0,0.0,0.0,0.0,0.0,0.0,0.0,0.0,0.0,0.0,0.0,0.0,0.0,0.0,0.0,0.0,0.0,0.0,0.0,0.0,0.0,0.0,0.0,0.0,0.0,0.0,0.0,0.0,0.0,0.0,0.0,0.0,0.0,0.0,0.0,0.0,0.0,0.0,0.0,0.0,0.0,0.0,0.0,0.0,0.0,0.0,0.0,0.0,0.0,0.0,0.0,0.0,0.0,0.0,0.0,0.0,0.0,0.0,0.0,0.0,0.0,0.0,0.0,0.0,0.0,0.0,0.0,0.0,0.0,0.0,0.0,0.0,0.0,0.0,0.0,0.0,0.0,0.0,0.0,0.0,0.0,0.0,0.0,0.0,0.0,0.0,0.0,0.0,0.0,0.0,0.0,0.0,0.0,0.0,0.0,0.0,2.7891,2.9287,3.0335,3.1089,3.1108,3.046,0.0,0.0,0.0,0.0,0.0,0.0,0.0,0.0,0.0,0.0,0.0,0.0,0.0,0.0,0.0,0.0,0.0,0.0,0.0,0.0,0.0,0.0,0.0,0.0,0.0,0.0,0.0,0.0,0.0,0.0,0.0,0.0,0.0,0.0,0.0,0.0,0.0,0.0,0.0,0.0,0.0,0.0,0.0,0.0,0.0,0.0,0.0,0.0,0.0,0.0,0.0,0.0,0.0,0.0,0.0,0.0,0.0,0.0,0.0,0.0,0.0,0.0,0.0,0.0,0.0,0.0,0.0,0.0,0.0,0.0,0.0,0.0,0.0,0.0,0.0,0.0,0.0,0.0,0.0,0.0,0.0,0.0,0.0,0.0,0.0,0.0,0.0,0.0,0.0,0.0,0.0,0.0,0.0,0.0,0.0,0.0,0.0,0.0,0.0,0.0,0.0,0.0,0.0,0.0,0.0,0.0,0.0,0.0,0.0,2.9963,3.1417,3.2341,3.2611,3.2148,3.1477,0.0,0.0,0.0,0.0,0.0,0.0,0.0,0.0,0.0,0.0,0.0,0.0,0.0,0.0,0.0,0.0,0.0,0.0,0.0,0.0,0.0,0.0,0.0,0.0,0.0,0.0,0.0,0.0,0.0,0.0,0.0,0.0,0.0,0.0,0.0,0.0,0.0,0.0,0.0,0.0,0.0,0.0,0.0,0.0,0.0,0.0,0.0,0.0,0.0,0.0,0.0,0.0,0.0,0.0,0.0,0.0,0.0,0.0,0.0,0.0,0.0,0.0,0.0,0.0,0.0,0.0,0.0,0.0,0.0,0.0,0.0,0.0,0.0,0.0,0.0,0.0,0.0,0.0,0.0,0.0,0.0,0.0,0.0,0.0,0.0,0.0,0.0,0.0,0.0,0.0,0.0,0.0,0.0,0.0,0.0,0.0,0.0,0.0,0.0,0.0,0.0,0.0,0.0,0.0,0.0,0.0,0.0,0.0,0.0,3.2215,3.348,3.3987,3.3761,3.3501,3.271,0.0,0.0,0.0,0.0,0.0,0.0,0.0,0.0,0.0,0.0,0.0,0.0,0.0,0.0,0.0,0.0,0.0,0.0,0.0,0.0,0.0,0.0,0.0,0.0,0.0,0.0,0.0,0.0,0.0,0.0,0.0,0.0,0.0,0.0,0.0,0.0,0.0,0.0,0.0,0.0,0.0,0.0,0.0,0.0,0.0,0.0,0.0,0.0,0.0,0.0,0.0,0.0,0.0,0.0,0.0,0.0,0.0,0.0,0.0,0.0,0.0,0.0,0.0,0.0,0.0,0.0,0.0,0.0,0.0,0.0,0.0,0.0,0.0,0.0,0.0,0.0,0.0,0.0,0.0,0.0,0.0,0.0,0.0,0.0,0.0,0.0,0.0,0.0,0.0,0.0,0.0,0.0,0.0,0.0,0.0,0.0,0.0,0.0,0.0,0.0,0.0,0.0,0.0,0.0,0.0,0.0,0.0,0.0,3.2317,3.4415,3.5205,3.5306,3.4584,3.5171,3.419,0.0,0.0,0.0,0.0,0.0,0.0,0.0,0.0,0.0,0.0,0.0,0.0,0.0,0.0,0.0,0.0,0.0,0.0,0.0,0.0,0.0,0.0,0.0,0.0,0.0,0.0,0.0,0.0,0.0,0.0,0.0,0.0,0.0,0.0,0.0,0.0,0.0,0.0,0.0,0.0,0.0,0.0,0.0,0.0,0.0,0.0,0.0,0.0,0.0,0.0,0.0,0.0,0.0,0.0,0.0,0.0,0.0,0.0,0.0,0.0,0.0,0.0,0.0,0.0,0.0,0.0,0.0,0.0,0.0,0.0,0.0,0.0,0.0,0.0,0.0,0.0,0.0,0.0,0.0,0.0,0.0,0.0,0.0,0.0,0.0,0.0,0.0,0.0,0.0,0.0,0.0,0.0,0.0,0.0,0.0,0.0,0.0,0.0,0.0,0.0,0.0,0.0,0.0,0.0,0.0,0.0,0.0,0.0,0.0,3.5273,3.6524,3.7065,3.684,3.6017,3.4934,0.0,0.0,0.0,0.0,0.0,0.0,0.0,0.0,0.0,0.0,0.0,0.0,0.0,0.0,0.0,0.0,0.0,0.0,0.0,0.0,0.0,0.0,0.0,0.0,0.0,0.0,0.0,0.0,0.0,0.0,0.0,0.0,0.0,0.0,0.0,0.0,0.0,0.0,0.0,0.0,0.0,0.0,0.0,0.0,0.0,0.0,0.0,0.0,0.0,0.0,0.0,0.0,0.0,0.0,0.0,0.0,0.0,0.0,0.0,0.0,0.0,0.0,0.0,0.0,0.0,0.0,0.0,0.0,0.0,0.0,0.0,0.0,0.0,0.0,0.0,0.0,0.0,0.0,0.0,0.0,0.0,0.0,0.0,0.0,0.0,0.0,0.0,0.0,0.0,0.0,0.0,0.0,0.0,0.0,0.0,0.0,0.0,0.0,0.0,0.0,0.0,0.0,0.0,0.0,0.0,0.0,0.0,0.0,0.0,3.8125,3.8768,3.9005,3.8746,3.7775,3.6524,3.4945,0.0,0.0,0.0,0.0,0.0,0.0,0.0,0.0,0.0,0.0,0.0,0.0,0.0,0.0,0.0,0.0,0.0,0.0,0.0,0.0,0.0,0.0,0.0,0.0,0.0,0.0,0.0,0.0,0.0,0.0,0.0,0.0,0.0,0.0,0.0,0.0,0.0,0.0,0.0,0.0,0.0,0.0,0.0,0.0,0.0,0.0,0.0,0.0,0.0,0.0,0.0,0.0,0.0,0.0,0.0,0.0,0.0,0.0,0.0,0.0,0.0,0.0,0.0,0.0,0.0,0.0,0.0,0.0,0.0,0.0,0.0,0.0,0.0,0.0,0.0,0.0,0.0,0.0,0.0,0.0,0.0,0.0,0.0,0.0,0.0,0.0,0.0,0.0,0.0,0.0,0.0,0.0,0.0,0.0,0.0,0.0,0.0,0.0,0.0,0.0,0.0,0.0,0.0,0.0,0.0,0.0,0.0,0.0,4.2435,4.1813,4.1136,4.0316,4.0189,3.879,0.0,0.0,0.0,0.0,0.0,0.0,0.0,0.0,0.0,0.0,0.0,0.0,0.0,0.0,0.0,0.0,0.0,0.0,0.0,0.0,0.0,0.0,0.0,0.0,0.0,0.0,0.0,0.0,0.0,0.0,0.0,0.0,0.0,0.0,0.0,0.0,0.0,0.0,0.0,0.0,0.0,0.0,0.0,0.0,0.0,0.0,0.0,0.0,0.0,0.0,0.0,0.0,0.0,0.0,0.0,0.0,0.0,0.0,0.0,0.0,0.0,0.0,0.0,0.0,0.0,0.0,0.0,0.0,0.0,0.0,0.0,0.0,0.0,0.0,0.0,0.0,0.0,0.0,0.0,0.0,0.0,0.0,0.0,0.0,0.0,0.0,0.0,0.0,0.0,0.0,0.0,0.0,0.0,0.0,0.0,0.0,0.0,0.0,0.0,0.0,0.0,0.0,0.0,0.0,0.0,0.0,0.0,0.0,0.0,4.3958,4.4871,4.4451,4.2611,4.1461,3.977,0.0,0.0,0.0,0.0,0.0,0.0,0.0,0.0,0.0,0.0,0.0,0.0,0.0,0.0,0.0,0.0,0.0,0.0,0.0,0.0,0.0,0.0,0.0,0.0,0.0,0.0,0.0,0.0,0.0,0.0,0.0,0.0,0.0,0.0,0.0,0.0,0.0,0.0,0.0,0.0,0.0,0.0,0.0,0.0,0.0,0.0,0.0,0.0,0.0,0.0,0.0,0.0,0.0,0.0,0.0,0.0,0.0,0.0,0.0,0.0,0.0,0.0,0.0,0.0,0.0,0.0,0.0,0.0,0.0,0.0,0.0,0.0,0.0,0.0,0.0,0.0,0.0,0.0,0.0,0.0,0.0,0.0,0.0,0.0,0.0,0.0,0.0,0.0,0.0,0.0,0.0,0.0,0.0,0.0,0.0,0.0,0.0,0.0,0.0,0.0,0.0,0.0,0.0,0.0,0.0,0.0,0.0,0.0,4.4451,4.5974,4.7124,4.6786,4.4877,4.3403,4.1441,0.0,0.0,0.0,0.0,0.0,0.0,0.0,0.0,0.0,0.0,0.0,0.0,0.0,0.0,0.0,0.0,0.0,0.0,0.0,0.0,0.0,0.0,0.0,0.0,0.0,0.0,0.0,0.0,0.0,0.0,0.0,0.0,0.0,0.0,0.0,0.0,0.0,0.0,0.0,0.0,0.0,0.0,0.0,0.0,0.0,0.0,0.0,0.0,0.0,0.0,0.0,0.0,0.0,0.0,0.0,0.0,0.0,0.0,0.0,0.0,0.0,0.0,0.0,0.0,0.0,0.0,0.0,0.0,0.0,0.0,0.0,0.0,0.0,0.0,0.0,0.0,0.0,0.0,0.0,0.0,0.0,0.0,0.0,0.0,0.0,0.0,0.0,0.0,0.0,0.0,0.0,0.0,0.0,0.0,0.0,0.0,0.0,0.0,0.0,0.0,0.0,0.0,0.0,0.0,0.0,0.0,0.0,0.0,4.6399,4.7887,4.8631,4.8342,4.6969,4.5481,4.3315,0.0,0.0,0.0,0.0,0.0,0.0,0.0,0.0,0.0,0.0,0.0,0.0,0.0,0.0,0.0,0.0,0.0,0.0,0.0,0.0,0.0,0.0,0.0,0.0,0.0,0.0,0.0,0.0,0.0,0.0,0.0,0.0,0.0,0.0,0.0,0.0,0.0,0.0,0.0,0.0,0.0,0.0,0.0,0.0,0.0,0.0,0.0,0.0,0.0,0.0,0.0,0.0,0.0,0.0,0.0,0.0,0.0,0.0,0.0,0.0,0.0,0.0,0.0,0.0,0.0,0.0,0.0,0.0,0.0,0.0,0.0,0.0,0.0,0.0,0.0,0.0,0.0,0.0,0.0,0.0,0.0,0.0,0.0,0.0,0.0,0.0,0.0,0.0,0.0,0.0,0.0,0.0,0.0,0.0,0.0,0.0,0.0,0.0,0.0,0.0,0.0,0.0,0.0,0.0,0.0,0.0,0.0,0.0,4.6399,4.7853,4.8597,4.8578,4.7699,4.6244,4.4045,0.0,0.0,0.0,0.0,0.0,0.0,0.0,0.0,0.0,0.0,0.0,0.0,0.0,0.0,0.0,0.0,0.0,0.0,0.0,0.0,0.0,0.0,0.0,0.0,0.0,0.0,0.0,0.0,0.0,0.0,0.0,0.0,0.0,0.0,0.0,0.0,0.0,0.0,0.0,0.0,0.0,0.0,0.0,0.0,0.0,0.0,0.0,0.0,3.925,0.0,0.0,0.0,0.0,0.0,0.0,0.0,0.0,0.0,0.0,0.0,0.0,0.0,0.0,0.0,0.0,0.0,0.0,0.0,0.0,0.0,0.0,0.0,0.0,0.0,0.0,0.0,0.0,0.0,0.0,0.0,0.0,0.0,0.0,0.0,0.0,0.0,0.0,0.0,0.0,0.0,0.0,0.0,0.0,0.0,0.0,0.0,0.0,0.0,0.0,0.0,0.0,0.0,0.0,0.0,0.0,0.0,0.0,0.0,4.7462,4.8883,4.9323,4.9154,4.8394,4.7312,4.5317,0.0,0.0,0.0,0.0,0.0,0.0,0.0,0.0,0.0,0.0,0.0,0.0,0.0,0.0,0.0,0.0,0.0,0.0,0.0,0.0,0.0,0.0,0.0,0.0,0.0,0.0,0.0,0.0,0.0,0.0,0.0,0.0,0.0,0.0,0.0,0.0,0.0,0.0,0.0,0.0,0.0,0.0,0.0,0.0,0.0,0.0,0.0,0.0,0.0,0.0,0.0,0.0,0.0,0.0,0.0,0.0,0.0,0.0,0.0,0.0,0.0,0.0,0.0,0.0,0.0,0.0,0.0,0.0,0.0,0.0,0.0,0.0,0.0,0.0,0.0,0.0,0.0,0.0,0.0,0.0,0.0,0.0,0.0,0.0,0.0,0.0,0.0,0.0,0.0,0.0,0.0,0.0,0.0,0.0,0.0,0.0,0.0,0.0,0.0,0.0,0.0,0.0,0.0,0.0,0.0,0.0,0.0,4.6602,4.8748,5.0033,5.0202,4.9932,4.9187,4.8462,4.6737,4.3862,0.0,0.0,0.0,0.0,0.0,0.0,0.0,0.0,0.0,0.0,0.0,0.0,0.0,0.0,0.0,0.0,0.0,0.0,0.0,0.0,0.0,0.0,0.0,0.0,0.0,0.0,0.0,0.0,0.0,0.0,0.0,0.0,0.0,0.0,0.0,0.0,0.0,0.0,3.2108,3.617,0.0,0.0,0.0,0.0,0.0,0.0,0.0,0.0,4.3846,0.0,0.0,0.0,0.0,0.0,0.0,0.0,0.0,0.0,0.0,0.0,0.0,0.0,0.0,0.0,0.0,0.0,0.0,0.0,0.0,0.0,0.0,0.0,0.0,0.0,0.0,0.0,0.0,0.0,0.0,0.0,0.0,0.0,0.0,0.0,0.0,0.0,0.0,0.0,0.0,0.0,0.0,0.0,0.0,0.0,0.0,0.0,0.0,0.0,0.0,0.0,0.0,0.0,0.0,0.0,0.0,4.5297,4.7616,4.9255,5.0083,5.071,5.0676,4.9947,4.9187,4.7718,4.5399,0.0,0.0,0.0,0.0,0.0,0.0,0.0,0.0,0.0,0.0,0.0,0.0,0.0,0.0,0.0,0.0,0.0,0.0,0.0,0.0,0.0,0.0,0.0,0.0,0.0,0.0,0.0,0.0,0.0,0.0,0.0,0.0,0.0,0.0,0.0,0.0,0.0,0.0,0.0,3.9503,4.1399,0.0,0.0,0.0,0.0,0.0,0.0,0.0,0.0,4.4194,0.0,0.0,0.0,0.0,0.0,0.0,0.0,0.0,0.0,0.0,0.0,0.0,0.0,0.0,0.0,0.0,0.0,0.0,0.0,0.0,0.0,0.0,0.0,0.0,0.0,0.0,0.0,0.0,0.0,0.0,0.0,0.0,0.0,0.0,0.0,0.0,0.0,0.0,0.0,0.0,0.0,0.0,0.0,0.0,0.0,0.0,0.0,0.0,0.0,0.0,0.0,0.0,0.0,0.0,0.0,4.6259,4.8443,5.0117,5.1183,5.1589,5.1589,5.1217,5.0135,4.8714,0.0,0.0,0.0,0.0,0.0,0.0,0.0,0.0,0.0,0.0,0.0,0.0,0.0,0.0,0.0,0.0,0.0,0.0,0.0,0.0,0.0,0.0,0.0,0.0,0.0,0.0,0.0,0.0,0.0,0.0,0.0,0.0,0.0,0.0,0.0,0.0,0.0,0.0,0.0,0.0,4.113,4.3105,4.418,0.0,0.0,0.0,0.0,0.0,0.0,4.636,4.6013,0.0,0.0,0.0,0.0,0.0,0.0,0.0,0.0,0.0,0.0,0.0,0.0,0.0,0.0,0.0,0.0,0.0,0.0,0.0,0.0,0.0,0.0,0.0,0.0,0.0,0.0,0.0,0.0,0.0,0.0,0.0,0.0,0.0,0.0,0.0,0.0,0.0,0.0,0.0,0.0,0.0,0.0,0.0,0.0,0.0,0.0,0.0,0.0,0.0,0.0,0.0,0.0,0.0,0.0,0.0,4.7251,4.944,5.1183,5.2469,5.2841,5.2841,5.2536,5.1402,4.9965,0.0,0.0,0.0,0.0,0.0,0.0,0.0,0.0,0.0,0.0,0.0,0.0,0.0,0.0,0.0,0.0,0.0,0.0,0.0,0.0,0.0,0.0,0.0,0.0,0.0,0.0,0.0,0.0,0.0,0.0,0.0,0.0,0.0,0.0,0.0,0.0,0.0,0.0,0.0,0.0,0.0,4.4756,4.6312,4.7629,0.0,0.0,0.0,0.0,4.8541,4.8415,0.0,0.0,0.0,0.0,0.0,0.0,0.0,0.0,0.0,0.0,0.0,0.0,0.0,0.0,0.0,0.0,0.0,0.0,0.0,0.0,0.0,0.0,0.0,0.0,0.0,0.0,0.0,0.0,0.0,0.0,0.0,0.0,0.0,0.0,0.0,0.0,0.0,0.0,0.0,0.0,0.0,0.0,0.0,0.0,0.0,0.0,0.0,0.0,0.0,0.0,0.0,0.0,0.0,0.0,0.0,0.0,4.8878,5.0977,5.2469,5.3382,5.4617,5.4702,5.3416,5.3213,5.1792,0.0,0.0,0.0,0.0,0.0,0.0,0.0,0.0,0.0,0.0,0.0,0.0,0.0,0.0,0.0,0.0,0.0,0.0,0.0,0.0,0.0,0.0,0.0,0.0,0.0,0.0,0.0,0.0,0.0,0.0,0.0,0.0,0.0,0.0,0.0,0.0,0.0,0.0,0.0,0.0,0.0,4.6629,4.8773,4.9783,5.0441,0.0,0.0,5.1585,5.0782,5.0089,0.0,0.0,0.0,0.0,0.0,0.0,0.0,0.0,0.0,0.0,0.0,0.0,0.0,0.0,0.0,0.0,0.0,0.0,0.0,0.0,0.0,0.0,0.0,0.0,0.0,0.0,0.0,0.0,0.0,0.0,0.0,0.0,0.0,0.0,0.0,0.0,0.0,0.0,0.0,0.0,0.0,0.0,0.0,0.0,0.0,0.0,0.0,0.0,0.0,0.0,0.0,0.0,0.0,0.0,0.0,4.7612,5.0453,5.2145,5.3551,5.4718,5.5361,5.5395,5.4752,5.3957,5.2469,0.0,0.0,0.0,0.0,0.0,0.0,0.0,0.0,0.0,0.0,0.0,0.0,0.0,0.0,0.0,0.0,0.0,0.0,0.0,0.0,0.0,0.0,0.0,0.0,0.0,0.0,0.0,0.0,0.0,0.0,0.0,0.0,0.0,0.0,0.0,0.0,0.0,0.0,0.0,0.0,0.0,0.0,4.9904,5.1108,0.0,0.0,0.0,5.225,5.1862,0.0,0.0,0.0,0.0,0.0,0.0,0.0,0.0,0.0,0.0,0.0,0.0,0.0,0.0,0.0,0.0,0.0,0.0,0.0,0.0,0.0,0.0,0.0,0.0,0.0,0.0,0.0,0.0,0.0,0.0,0.0,0.0,0.0,0.0,0.0,0.0,0.0,0.0,0.0,0.0,0.0,0.0,0.0,0.0,0.0,0.0,0.0,0.0,0.0,0.0,0.0,0.0,0.0,0.0,0.0,0.0,0.0,5.1775,5.311,5.4499,5.5919,5.6172,5.6139,5.5987,5.4887,0.0,0.0,0.0,0.0,0.0,0.0,0.0,0.0,0.0,0.0,0.0,0.0,0.0,0.0,0.0,0.0,0.0,0.0,0.0,0.0,0.0,0.0,0.0,0.0,0.0,0.0,0.0,3.2882,0.0,0.0,0.0,0.0,0.0,0.0,0.0,0.0,0.0,0.0,0.0,0.0,0.0,0.0,4.9954,5.1577,5.2869,5.3684,0.0,0.0,5.3581,5.3519,5.3132,5.2701,0.0,0.0,0.0,0.0,0.0,0.0,0.0,0.0,0.0,0.0,0.0,0.0,0.0,0.0,0.0,0.0,0.0,0.0,0.0,0.0,0.0,0.0,0.0,0.0,0.0,0.0,0.0,0.0,0.0,0.0,0.0,0.0,0.0,0.0,0.0,0.0,0.0,0.0,0.0,0.0,0.0,0.0,0.0,0.0,0.0,0.0,0.0,0.0,0.0,0.0,0.0,0.0,0.0,0.0,4.9035,5.2602,5.3906,5.5277,5.6664,5.7426,5.7408,5.6765,5.663,5.5547,0.0,0.0,0.0,0.0,0.0,0.0,0.0,0.0,0.0,0.0,0.0,0.0,0.0,0.0,0.0,0.0,0.0,0.0,0.0,0.0,0.0,0.0,0.0,0.0,0.0,0.0,0.0,0.0,0.0,0.0,0.0,0.0,0.0,0.0,0.0,0.0,0.0,0.0,0.0,0.0,0.0,5.2572,5.4778,5.5757,5.6406,0.0,0.0,5.6809,5.6626,5.5846,5.5228,5.5186,0.0,0.0,0.0,0.0,0.0,0.0,0.0,0.0,0.0,0.0,0.0,0.0,0.0,0.0,0.0,0.0,0.0,0.0,0.0,0.0,0.0,0.0,0.0,0.0,0.0,0.0,0.0,0.0,0.0,0.0,0.0,0.0,0.0,0.0,0.0,0.0,0.0,0.0,0.0,0.0,0.0,0.0,0.0,0.0,0.0,0.0,0.0,0.0,0.0,0.0,0.0,0.0,0.0,5.1495,5.4187,5.5944,5.7263,5.8118,5.8863,5.9099,5.8829,5.7949,5.6867,0.0,0.0,0.0,0.0,0.0,0.0,0.0,0.0,0.0,0.0,0.0,0.0,0.0,0.0,0.0,0.0,0.0,0.0,0.0,0.0,0.0,0.0,0.0,0.0,0.0,0.0,0.0,0.0,4.2861,4.4502,4.4692,0.0,0.0,0.0,0.0,0.0,0.0,0.0,0.0,0.0,0.0,5.4515,5.627,5.7531,0.0,0.0,5.8561,5.8679,5.847,5.7993,5.7518,5.7103,5.598,0.0,0.0,0.0,0.0,0.0,0.0,0.0,0.0,0.0,0.0,0.0,0.0,0.0,0.0,0.0,0.0,0.0,0.0,0.0,0.0,0.0,0.0,0.0,0.0,0.0,0.0,0.0,0.0,0.0,0.0,0.0,0.0,0.0,0.0,0.0,0.0,0.0,0.0,0.0,0.0,0.0,0.0,0.0,0.0,0.0,0.0,0.0,0.0,0.0,0.0,0.0,0.0,5.3679,5.5824,5.7615,5.883,5.9429,5.9881,6.008,6.008,5.9099,5.822,0.0,0.0,0.0,0.0,0.0,0.0,0.0,0.0,0.0,0.0,0.0,0.0,0.0,0.0,0.0,0.0,0.0,0.0,0.0,0.0,0.0,0.0,0.0,0.0,0.0,0.0,0.0,0.0,4.5626,4.7207,4.7775,0.0,0.0,0.0,0.0,0.0,0.0,0.0,0.0,0.0,0.0,5.686,5.8269,5.9547,6.0291,6.0086,6.0359,6.0531,6.0364,6.0064,5.9669,5.9209,0.0,0.0,0.0,0.0,0.0,0.0,0.0,0.0,0.0,0.0,0.0,0.0,0.0,0.0,0.0,0.0,0.0,0.0,0.0,0.0,0.0,0.0,0.0,0.0,0.0,0.0,0.0,3.3992,0.0,0.0,3.3958,0.0,0.0,0.0,0.0,0.0,0.0,0.0,0.0,0.0,0.0,0.0,0.0,0.0,0.0,0.0,0.0,0.0,0.0,0.0,0.0,0.0,0.0,5.5321,5.7501,5.8743,5.9685,6.0483,6.0261,6.0201,6.0182,6.008,5.9742,5.8945,0.0,0.0,0.0,0.0,0.0,0.0,0.0,0.0,0.0,0.0,0.0,0.0,0.0,0.0,0.0,0.0,0.0,0.0,0.0,0.0,0.0,0.0,0.0,0.0,0.0,0.0,4.6699,4.8593,5.0098,0.0,0.0,0.0,0.0,0.0,0.0,0.0,0.0,0.0,0.0,5.8867,5.983,6.1207,6.2092,6.2573,6.2529,6.2562,6.2573,6.2583,6.2116,6.1734,0.0,0.0,0.0,0.0,0.0,0.0,0.0,0.0,0.0,0.0,0.0,0.0,0.0,0.0,0.0,0.0,0.0,0.0,0.0,0.0,0.0,0.0,0.0,0.0,0.0,0.0,0.0,3.864,3.8571,0.0,0.0,0.0,0.0,0.0,0.0,0.0,0.0,0.0,0.0,0.0,5.1528,5.2754,0.0,0.0,0.0,0.0,0.0,0.0,0.0,0.0,0.0,0.0,0.0,0.0,5.7723,5.9801,6.1252,6.2252,6.2889,6.3324,6.3543,6.3543,6.2911,6.1689,5.9776,0.0,0.0,0.0,0.0,0.0,0.0,0.0,0.0,0.0,0.0,0.0,0.0,0.0,0.0,0.0,0.0,0.0,0.0,0.0,0.0,0.0,0.0,0.0,0.0,0.0,4.9323,0.0,0.0,0.0,0.0,0.0,0.0,0.0,0.0,0.0,0.0,0.0,5.8672,6.1043,6.2008,6.2807,6.3751,6.4948,6.5603,0.0,0.0,0.0,0.0,0.0,0.0,0.0,0.0,0.0,0.0,0.0,0.0,0.0,0.0,5.8354,5.6404,5.6008,5.5919,5.5814,0.0,0.0,0.0,0.0,0.0,0.0,0.0,0.0,0.0,0.0,0.0,0.0,0.0,0.0,4.3251,4.3216,4.2733,0.0,0.0,0.0,0.0,0.0,0.0,0.0,0.0,5.3479,5.472,5.577,5.6736,5.734,0.0,5.8116,5.684,0.0,0.0,0.0,0.0,0.0,0.0,0.0,0.0,6.0443,6.2245,6.3477,6.4393,6.4981,6.5197,6.5431,6.567,6.4716,6.3314,6.1448,5.9441,5.7814,0.0,0.0,0.0,0.0,0.0,0.0,0.0,0.0,0.0,0.0,0.0,0.0,0.0,0.0,0.0,0.0,0.0,0.0,0.0,0.0,0.0,0.0,0.0,5.3128,0.0,0.0,0.0,0.0,0.0,0.0,0.0,0.0,0.0,5.8773,6.0041,6.187,6.3793,6.4686,6.5423,6.6139,0.0,0.0,0.0,0.0,0.0,0.0,0.0,6.7715,6.7128,6.6653,6.6024,6.5047,6.4537,6.4256,6.4159,0.0,0.0,6.0083,5.9491,5.9275,5.8993,5.9189,5.9408,5.9482,6.0175,6.0949,0.0,0.0,0.0,0.0,0.0,0.0,0.0,0.0,4.7893,4.7893,0.0,4.7824,0.0,0.0,0.0,0.0,0.0,5.3237,0.0,0.0,5.7306,5.884,6.022,6.0323,6.0737,6.1427,6.153,6.1496,6.1289,5.8564,0.0,0.0,0.0,0.0,0.0,0.0,6.3324,6.4841,6.5443,6.6068,6.6789,6.596,6.5827,6.6511,6.5607,6.4704,6.3917,6.2261,6.1028,6.0182,5.7408,0.0,0.0,0.0,0.0,0.0,0.0,0.0,0.0,0.0,0.0,0.0,0.0,0.0,0.0,0.0,0.0,0.0,0.0,0.0,0.0,5.5683,0.0,0.0,0.0,0.0,0.0,0.0,0.0,0.0,0.0,0.0,6.1394,6.2863,6.4707,6.6127,0.0,0.0,0.0,0.0,6.9623,6.9601,7.0226,7.0569,7.029,7.0045,6.9807,6.952,0.0,0.0,6.6815,6.6444,6.6234,6.5932,6.5692,6.4938,6.3358,6.2597,6.2217,6.2205,6.2034,6.2101,6.2637,6.2898,6.3303,5.4537,0.0,0.0,0.0,0.0,5.1701,5.208,5.2563,5.2548,5.2548,5.2513,5.1996,0.0,0.0,0.0,0.0,0.0,0.0,5.8409,5.9702,6.0703,6.1721,6.2687,6.3756,6.4377,6.46,6.5635,6.6152,6.6117,6.529,6.3496,6.0927,0.0,0.0,0.0,0.0,6.593,6.7862,6.8147,6.859,6.9313,6.9101,6.8965,6.9008,6.8261,6.7325,6.6249,6.4707,6.3453,6.255,6.0182,0.0,0.0,0.0,0.0,0.0,0.0,0.0,0.0,0.0,0.0,0.0,0.0,0.0,0.0,0.0,0.0,0.0,0.0,0.0,5.7915,5.9302,6.0317,0.0,0.0,0.0,0.0,0.0,0.0,0.0,0.0,0.0,6.6732,6.7217,6.7993,0.0,0.0,7.103,7.1233,7.1874,7.2277,7.2125,7.2236,0.0,0.0,7.198,7.1861,7.1597,7.1019,7.0478,7.0174,6.977,6.9444,6.9336,6.8962,6.8505,6.7953,6.6231,6.5014,6.5004,6.535,6.5593,6.5652,6.6004,6.6441,5.9035,5.6688,5.5614,5.5268,5.5441,5.5718,5.6099,5.6515,5.6499,5.6515,5.6499,5.6392,5.66,5.7016,5.7639,0.0,0.0,0.0,6.2327,6.3151,6.4239,6.5136,6.5895,6.6827,6.7413,6.7724,6.8586,6.9015,6.9015,6.9325,6.8325,6.6102,0.0,0.0,6.7206,6.7241,6.8069,6.9656,6.9759,7.0104,7.0829,7.0863,7.0664,7.023,6.9715,6.9104,6.8356,6.7011,6.5963,6.54,6.3131,6.1569,0.0,0.0,0.0,0.0,0.0,0.0,0.0,0.0,0.0,0.0,0.0,4.8898,5.0626,0.0,0.0,0.0,5.7442,5.9471,6.167,6.2854,0.0,0.0,0.0,0.0,0.0,0.0,0.0,6.6339,6.8064,6.9553,7.0297,7.0939,7.1244,7.1075,7.209,7.2834,7.2834,0.0,7.387,7.374,7.3952,7.4026,7.3821,7.3798,7.3577,7.2947,7.2498,7.201,7.1622,7.1339,7.1062,7.0833,7.0526,7.0338,7.0393,6.9242,6.8112,6.7492,6.767,6.7846,6.7605,6.7865,6.8241,6.23,6.2196,6.0767,5.967,5.8939,5.9654,5.9951,5.9951,5.9967,5.9967,6.0037,6.075,6.1081,6.1255,6.2771,0.0,6.3253,6.5507,6.6365,6.6278,6.7709,6.8779,6.9503,6.9587,7.0001,7.0691,7.0705,7.0739,7.0829,7.1429,7.1774,7.1705,6.967,6.898,6.9621,6.9656,7.0035,7.0739,7.0774,7.1105,7.1774,7.1774,7.145,7.0829,7.0554,7.0416,7.0257,6.921,6.8536,6.8323,6.6145,6.4566,6.3815,0.0,0.0,0.0,0.0,0.0,0.0,0.0,0.0,0.0,0.0,0.0,0.0,0.0,0.0,5.9351,6.2753,0.0,6.4884,6.6136,0.0,0.0,0.0,6.7062,6.7062,6.7793,6.8538,6.9282,0.0,0.0,7.2496,7.3815,7.4221,7.2935,7.3274,7.3703,7.3771,7.439,7.4796,7.4942,7.5473,7.5783,7.5566,7.5493,7.5097,7.4154,7.3575,7.316,7.2348,7.2083,7.1784,7.1502,7.1192,7.124,7.1337,7.1837,7.1686,6.9898,6.9545,6.9432,6.9287,6.9268,6.9462,6.5935,6.5777,6.5391,6.3974,6.1987,6.2753,6.3101,6.3101,6.3101,6.3101,6.3101,6.3328,6.3711,6.432,6.5834,6.6512,6.6545,6.823,6.9011,6.9003,7.0337,7.1108,7.1316,7.2292,7.283,7.3037,7.3567,7.3822,7.3822,7.3994,7.4098,7.4063,7.3546,7.3119,7.2761,7.2726,7.3084,7.3822,7.3822,7.3925,7.4098,7.4098,7.4029,7.3822,7.3779,7.3121,7.1858,7.1546,7.0717,6.9195,6.8022,6.7272,6.6846,6.458,0.0,0.0,0.0,0.0,0.0,0.0,0.0,0.0,0.0,5.7306,5.8457,0.0,6.1873,0.0,6.5628,6.7117,6.7117,6.7996,0.0,0.0,6.9045,6.9383,6.9383,7.0534,7.1413,7.1582,7.2428,7.3274,7.3984,7.4897,7.554,7.5777,7.5439,7.5405,7.598,7.6217,7.6555,7.7029,7.7266,7.7435,7.7303,7.7165,7.6817,7.6392,7.6073,7.5727,7.5279,7.4981,7.4825,7.4694,7.4332,7.4111,7.4074,7.4112,7.3779,7.3132,7.2847,7.2596,7.2288,7.2172,7.2147,6.7376,6.7306,6.8011,6.7411,6.604,6.5618,6.5442,6.5424,6.5442,6.5652,6.6036,6.67,6.7435,6.8204,6.9059,6.9405,6.938,7.0512,7.1205,7.1454,7.2537,7.324,7.3566,7.4189,7.4463,7.4476,7.4762,7.4891,7.4925,7.527,7.5442,7.5442,7.5787,7.5718,7.5292,7.4636,7.4511,7.4891,7.4891,7.4891,7.4891,7.4891,7.4891,7.4891,7.4891,7.4446,7.3499,7.3413,7.2862,7.1746,7.0506,6.9721,6.9557,6.7349,6.6068,0.0,0.0,0.0,0.0,0.0,0.0,0.0,0.0,0.0,0.0,0.0,6.5459,6.6981,6.8504,6.9553,6.9857,7.0601,7.1041,7.1075,7.1436,7.1672,7.1672,7.236,7.3003,7.3341,7.4018,7.4762,7.554,7.6251,7.686,7.7333,7.6995,7.686,7.7266,7.7401,7.7536,7.7933,7.801,7.801,7.801,7.7754,7.7505,7.7262,7.6983,7.666,7.6376,7.6161,7.603,7.5898,7.5667,7.5433,7.5298,7.5316,7.5204,7.5104,7.5112,7.4743,7.3742,7.3501,7.3416,6.822,6.8327,6.9637,7.0203,7.0061,6.8398,6.7692,6.7692,6.7692,6.806,6.8798,7.0152,7.1117,7.1731,7.1852,7.1827,7.1773,7.2508,7.3143,7.3714,7.4495,7.5171,7.5777,7.5684,7.5647,7.5647,7.5397,7.5288,7.5288,7.5979,7.6346,7.6358,7.7002,7.729,7.7177,7.59,7.5223,7.5201,7.5201,7.5201,7.5201,7.5179,7.5201,7.5201,7.5201,7.5167,7.5041,7.4866,7.4721,7.4562,7.2954,7.2029,7.1928,6.9795,6.8479,0.0,6.7658,0.0,0.0,0.0,0.0,0.0,0.0,0.0,0.0,6.7218,6.9079,7.05,7.121,7.1853,7.2462,7.3105,7.35,7.35,7.3601,7.3703,7.3771,7.3872,7.4187,7.4965,7.5608,7.6284,7.6927,7.7671,7.8145,7.8145,7.8213,7.8305,7.828,7.8213,7.8179,7.8237,7.8305,7.845,7.8416,7.8175,7.7925,7.7648,7.7427,7.7011,7.6793,7.6781,7.6709,7.6532,7.6591,7.6484,7.6145,7.6431,7.6603,7.659,7.6883,7.648,7.4779,7.4352,7.4143,7.157,7.1442,7.1726,7.1832,7.1796,7.144,7.1298,7.1298,7.1316,7.1368,7.1545,7.1828,7.1947,7.1993,7.2573,7.3092,7.353,7.4266,7.5018,7.5769,7.6335,7.6685,7.6824,7.724,7.7411,7.7411,7.7368,7.7346,7.7346,7.7485,7.7555,7.7555,7.7728,7.7688,7.7512,0.0,0.0,0.0,7.6753,7.6753,7.6753,7.6753,7.6753,7.6753,7.6787,0.0,7.5891,7.5846,7.5448,7.4653,7.4256,0.0,0.0,0.0,0.0,0.0,0.0,0.0,0.0,0.0,0.0,0.0,7.0398,7.0161,6.8504,7.0263,7.1921,7.2789,7.3003,7.3138,7.3274,7.3409,7.35,7.35,7.4018,7.4627,7.5202,7.5845,7.6555,7.729,7.7468,7.7628,7.7773,7.8416,7.8889,7.8957,7.9397,7.9735,7.9803,7.9261,7.9126,7.9634,7.9735,7.9769,7.9769,7.9752,7.9567,7.9372,7.909,7.8797,7.8483,7.8684,7.8947,7.8833,7.9199,7.9392,7.9309,7.9256,7.8911,7.8787,7.88,7.8279,7.6317,7.6303,7.6606,7.2869,0.0,7.3119,7.3243,0.0,7.3579,7.397,7.4219,7.288,7.2523,7.2912,7.3691,7.3989,7.393,7.4653,7.5125,7.545,7.5704,7.6298,7.7052,7.7193,7.7439,7.7825,7.8033,7.8275,7.8624,7.855,7.8694,7.9029,7.9007,7.9029,7.9042,7.9029,7.8998,7.8887,7.8789,7.8229,7.7201,7.7201,7.7201,7.7201,7.7201,7.7201,7.7201,7.7201,0.0,0.0,0.0,0.0,0.0,0.0,0.0,0.0,0.0,0.0,7.261,7.209,7.1672,7.1312,7.1639,7.1819,7.1819,7.2834,7.2868,7.1379,7.2293,7.324,7.3984,7.4356,7.4728,7.5134,7.553,7.5733,7.5767,7.6048,7.6454,7.6792,7.7164,7.757,7.7967,7.8314,7.8551,7.8551,7.9194,7.9769,8.0107,8.0479,8.0851,8.1122,8.0344,7.9938,8.0615,8.1088,8.1291,8.1291,8.1291,8.1155,8.093,8.0808,8.0512,8.0115,8.02,8.0297,8.0194,8.0355,8.0476,8.0476,8.0254,8.0002,7.9894,7.9724,7.9301,7.8063,7.7996,7.8051,7.3914,7.3847,7.4636,7.4869,7.478,7.5423,7.6084,7.653,0.0,0.0,0.0,7.5522,7.6089,7.6086,7.6689,7.7024,7.7107,7.6949,7.7273,7.8029,7.7946,7.825,7.8848,7.8791,7.907,7.9643,7.9505,7.9731,8.0289,8.0324,8.0324,8.0346,8.0324,8.0289,8.0257,8.0091,7.9219,7.7806,7.7625,7.7615,7.7615,7.7615,7.7615,7.7615,7.7615,7.7546,7.7408,7.7408,7.7339,7.7201,7.6402,7.5946,7.5866,7.4957,7.4309,7.4082,7.3898,7.3715,7.3534,7.3713,7.4041,7.4278,7.4864,7.483,7.395,7.4041,7.439,7.5134,7.5743,7.6386,7.7029,7.7604,7.801,7.801,7.801,7.801,7.8145,7.8179,7.8314,7.8551,7.916,7.9566,7.9769,8.0251,8.0784,8.1325,8.146,8.1663,8.2103,8.1359,8.0851,8.1426,8.19,8.2314,8.2348,8.234,8.2304,8.2019,8.1948,8.1831,8.1464,8.1315,8.1219,8.1,8.1017,8.1128,8.1094,8.0999,8.0733,8.0677,8.0452,8.0165,7.9945,7.9693,7.9406,7.6373,7.6409,7.7218,7.756,7.7542,7.7631,7.7739,7.7775,7.7066,7.6827,7.6934,7.7183,7.7141,7.7024,7.713,7.7424,7.7905,7.7901,7.8306,7.9009,7.9511,7.9781,7.9922,8.0302,8.0581,8.0686,8.0678,8.0713,8.0783,8.0818,8.0818,8.0818,8.0818,8.0732,8.0557,8.0279,8.0041,7.9788,7.936,7.9166,7.9166,7.9166,7.9166,7.9189,7.9132,7.8879,7.8258,7.8223,7.7913,7.7235,7.7075,7.6894,7.6679,7.6485,7.5937,7.4944,7.4807,7.4409,7.3624,7.4661,7.5946,7.7222,7.7468,7.6927,7.554,7.6014,7.6724,7.7459,7.7536,7.7705,7.7841,7.8,7.8136,7.8077,7.8044,7.8247,7.8923,7.9025,7.9498,8.0606,8.0911,8.1224,8.1663,8.1908,8.2035,8.2205,8.234,8.234,8.2449,8.2212,8.2137,8.2238,8.234,8.2382,8.2551,8.2441,8.2517,8.2356,8.2248,8.2157,8.2032,8.2059,8.2094,8.1984,8.2289,8.2542,8.2585,8.2557,8.2416,8.2246,8.207,8.1927,8.1701,8.1776,8.1517,7.7809,7.7756,7.8117,7.8207,7.8117,7.8585,7.8764,7.8782,7.9029,7.8557,7.7748,7.8106,7.8208,7.8053,7.848,7.8814,7.9072,7.938,7.9695,8.0045,8.0641,8.0892,8.0962,8.1176,8.1458,8.1717,8.1696,8.1842,8.2155,8.2133,8.2133,8.2155,8.2155,8.2111,8.2002,8.178,8.1668,8.1611,8.0508,7.9808,7.9729,7.9706,7.9637,7.95,7.95,7.9362,7.9017,7.8994,7.8844,7.8442,7.8442,7.8397,7.8271,7.8133,7.7799,7.7282,7.6967,7.6676,7.6184,7.6651,7.7232,7.7908,7.801,7.7874,7.757,7.7502,7.7638,7.8,7.8348,7.8619,7.8619,7.8957,7.9329,7.9769,7.9769,8.0073,8.075,8.0894,8.113,8.1765,8.19,8.2035,8.234,8.2382,8.2611,8.2915,8.3287,8.3565,8.3565,8.3565,8.3456,8.3118,8.3355,8.3565,8.3565,8.3565,8.3599,8.3565,8.3486,8.3361,8.3254,8.3268,8.3291,8.3354,8.3586,8.3811,8.4,8.4109,8.4023,8.3932,8.3875,8.373,8.3534,8.3323,8.284,7.8868,7.8763,7.8944,7.8909,7.8855,7.9666,7.9972,8.0044,8.0836,8.0365,7.9192,7.9459,7.9526,7.9465,8.0233,8.0551,8.0545,8.0943,8.1092,8.1083,8.1682,8.1934,8.1969,8.2034,8.2333,8.2693,8.2729,8.2938,8.3292,8.3319,8.3253,8.3208,8.3208,8.3208,8.3186,8.3031,8.2976,8.2884,8.1574,8.0722,8.0487,8.0454,8.0317,8.011,8.0075,7.9925,7.9776,7.9718,7.9649,7.9534,7.95,7.95,7.9477,7.928,7.9164,7.9093,7.8763,7.8613,7.8604,7.836,7.8382,7.872,7.872,7.9058,7.9701,7.9329,7.8889,7.8822,7.9329,7.9701,7.9913,8.0378,8.0919,8.1486,8.1562,8.1697,8.2272,8.2382,8.2509,8.2611,8.2618,8.2712,8.2847,8.2915,8.3152,8.3727,8.4242,8.4614,8.4783,8.485,8.464,8.4471,8.4478,8.4614,8.4783,8.4817,8.4918,8.5053,8.5121,8.5013,8.4878,8.477,8.4713,8.4801,8.4767,8.4831,8.511,8.5152,8.509,8.4937,8.4846,8.4953,8.4764,8.4475,8.39,7.9771,7.9862,8.055,8.0821,8.0912,8.1654,8.198,8.2088,8.2848,8.3045,8.2443,8.1825,8.1443,8.1532,8.2196,8.244,8.2265,8.2389,8.2306,8.2143,8.2669,8.2957,8.3028,8.3443,8.3727,8.3741,8.3741,8.372,8.3797,8.3638,8.3442,8.3231,8.3208,8.3208,8.3208,8.3186,8.3164,8.3164,8.3002,8.2709,8.2279,8.2026,8.1886,8.184,8.1687,8.1259,8.0569,8.0511,8.0166,7.958,7.9545,7.9534,7.9511,7.9511,7.9361,7.9175,7.9104,7.9108,7.9401,7.9174,7.96,8.0843,8.0919,8.119,8.19,8.1968,8.1663,8.1148,8.1046,8.1291,8.2002,8.2103,8.2137,8.2272,8.2306,8.234,8.2509,8.2382,8.2644,8.3321,8.3389,8.3659,8.4106,8.4275,8.4377,8.458,8.4749,8.5053,8.5554,8.5689,8.5858,8.6061,8.5561,8.508,8.5486,8.5716,8.5892,8.6433,8.6609,8.6446,8.6297,8.6193,8.6175,8.6002,8.5963,8.581,8.5683,8.5473,8.5458,8.5517,8.5401,8.528,8.5482,8.5502,8.5068,8.0875,8.1346,8.169,8.207,8.2541,8.2885,8.303,8.3066,8.3356,8.3446,8.3408,8.3442,8.3092,8.2452,8.2776,8.2862,8.2821,8.3268,8.333,8.3169,8.3855,8.411,8.4038,8.4204,8.4242,8.4152,8.4152,8.4053,8.3925,8.3819,8.3646,8.3464,8.3442,8.3376,8.3208,8.3208,8.3208,8.3208,8.3208,8.3097,8.2919,8.267,8.2522,8.2326,8.2094,8.185,8.1515,8.1364,8.119,8.0879,8.0879,8.0845,8.0879,8.0879,8.0832,8.0738,8.0974,8.121,8.1442,8.1359,8.147,8.1934,8.1968,8.2103,8.2374,8.2382,8.2408,8.2543,8.2205,8.2103,8.2408,8.2382,8.2577,8.2949,8.305,8.3219,8.3667,8.3667,8.3836,8.4106,8.414,8.4242,8.458,8.5046,8.5486,8.5797,8.5933,8.6095,8.6399,8.6433,8.6569,8.6738,8.6332,8.6163,8.6399,8.6467,8.6636,8.6805,8.6879,8.6879,8.6947,8.6825,8.6755,8.6998,8.6954,8.6992,8.7147,8.6883,8.6771,8.6563,8.645,8.6465,8.6611,8.6498,8.6064,8.2232,8.2758,8.2794,8.3157,8.3647,8.3846,8.3901,8.3955,8.4063,8.4135,8.4225,8.4786,8.4564,8.3795,8.3721,8.3701,8.368,8.4237,8.4372,8.4211,8.4729,8.4859,8.4712,8.4692,8.4589,8.4403,8.4382,8.4364,8.4351,8.4578,8.452,8.436,8.4251,8.4106,8.3952,8.3885,8.384,8.384,8.384,8.384,8.3818,8.3684,8.341,8.295,8.2593,8.251,8.2718,8.2516,8.2397,8.2431,8.2397,8.2397,8.2397,8.2397,8.2397,8.2407,8.2638,8.2868,8.3006,8.2888,8.2811,8.2808,8.2738,8.2813,8.2949,8.3016,8.3253,8.3659,8.3321,8.3024,8.299,8.299,8.3227,8.3727,8.3795,8.4099,8.4809,8.4945,8.5012,8.5189,8.529,8.5222,8.5324,8.5757,8.6298,8.6677,8.6812,8.7042,8.7144,8.7211,8.7279,8.7448,8.7516,8.7414,8.7279,8.7211,8.7245,8.7482,8.7617,8.7651,8.7516,8.7516,8.7522,8.8003,8.7953,8.7913,8.7926,8.7907,8.7846,8.7699,8.7493,8.7349,8.716,8.7047,8.7029,8.3986,8.4022,8.4022,8.4077,8.4114,8.4719,8.4918,8.4937,8.5496,8.5747,8.5693,8.5783,8.5801,8.5654,8.5563,8.5595,8.537,8.535,8.527,8.5055,8.5163,8.508,8.49,8.49,8.485,8.4824,8.4839,8.4985,8.538,8.602,8.6374,8.6134,8.583,8.5755,8.5617,8.538,8.535,8.5232,8.5245,8.5315,8.535,8.5327,8.4863,8.4064,8.3485,8.3562,8.4127,8.4025,8.388,8.388,8.3787,8.3821,8.3855,8.3821,8.3811,8.3831,8.367,8.359,8.3535,8.3227,8.316,8.3686,8.3587,8.3727,8.4208,8.4377,8.4444,8.4546,8.4512,8.4512,8.4478,8.4411,8.4478,8.458,8.4614,8.4979,8.5655,8.5723,8.6095,8.6535,8.6575,8.6575,8.671,8.6839,8.6907,8.7042,8.6947,8.7211,8.7786,8.7955,8.8192,8.866,8.8829,8.8761,8.8125,8.7955,8.8288,8.8429,8.8497,8.8801,8.8937,8.9004,8.897,8.8909,8.8813,8.8706,8.8609,8.8482,8.8328,8.8133,8.7884,8.7706,8.7849,8.7485,8.7501,8.4368,8.4842,8.5371,8.5554,8.559,8.5792,8.5919,8.5919,8.6138,8.621,8.6192,8.6099,8.6043,8.6025,8.593,8.5835,8.5778,8.5723,8.5608,8.5398,8.5378,8.5549,8.5874,8.5854,8.604,8.6286,8.6316,8.632,8.636,8.666,8.6696,8.6524,8.6415,8.6284,8.6131,8.5886,8.5739,8.5717,8.5581,8.5491,8.5561,8.5491,8.555,8.5704,8.4949,8.4553,8.4632,8.437,8.4188,8.4018,8.3993,8.3993,8.3993,8.3993,8.4259,8.4683,8.4678,8.4726,8.4964,8.4737,8.4531,8.4622,8.4393,8.4309,8.4614,8.508,8.5384,8.5418,8.5831,8.6034,8.5993,8.5655,8.5587,8.5966,8.6068,8.6129,8.6399,8.6501,8.6636,8.6839,8.6879,8.7076,8.7516,8.7617,8.7786,8.8192,8.8294,8.8395,8.8564,8.8694,8.8829,8.9032,8.91,8.9032,8.8829,8.8728,8.8829,8.8965,8.9066,8.9032,8.9134,8.9201,8.914,8.9309,8.9337,8.9342,8.9189,8.9322,8.9096,8.9127,8.8838,8.8496,8.8678,8.8379,8.8518,8.5311,8.5805,8.6353,8.6609,8.6591,8.6537,8.6519,8.6465,8.6447,8.652,8.6721,8.6611,8.672,8.6937,8.6823,8.6729,8.6692,8.6399,8.6304,8.6386,8.6386,8.6558,8.6813,8.6901,8.7052,8.7372,8.7592,8.7595,8.7484,8.7614,8.7593,8.75,8.74,8.727,8.713,8.6895,8.6739,8.6627,8.6468,8.6355,8.6286,8.6263,8.6509,8.693,8.6405,8.5951,8.5658,8.5325,8.5059,8.4889,8.4791,8.4742,8.4742,8.4717,8.4984,8.5466,8.557,8.5668,8.5914,8.5686,8.5505,8.5561,8.5226,8.5053,8.5324,8.5858,8.6095,8.6264,8.6569,8.6974,8.711,8.6805,8.6636,8.6873,8.6879,8.7015,8.7211,8.7279,8.738,8.7617,8.7719,8.7888,8.8226,8.8328,8.8564,8.9066,8.9134,8.9134,8.9134,8.9134,8.9134,8.9134,8.9134,8.91,8.9134,8.9207,8.9134,8.9235,8.9337,8.9303,8.9472,8.9472,8.9574,8.9709,8.9811,8.9782,8.9866,9.0004,9.0124,9.0219,8.9787,8.9311,8.9359,8.9371,8.9445,8.6923,8.6923,8.7014,8.6943,8.6945,8.6859,8.6752,8.6771,8.6647,8.7103,8.7669,8.7614,8.7997,8.858,8.8375,8.8389,8.8242,8.7545,8.7467,8.7879,8.7971,8.7946,8.7913,8.7913,8.7885,8.7864,8.8269,8.8524,8.8497,8.8842,8.907,8.9148,8.8853,8.8658,8.8828,8.8464,8.8323,8.8106,8.7944,8.7899,8.789,8.7691,8.7691,8.7796,8.7702,8.755,8.7361,8.687,8.6508,8.6469,8.6281,8.626,8.6122,8.6122,8.6225,8.6294,8.6294,8.6329,8.6322,8.5994,8.6061,8.6366,8.6079,8.6027,8.6501,8.6805,8.6907,8.6941,8.7076,8.7279,8.7888,8.7922,8.7685,8.711,8.7177,8.7448,8.7854,8.8023,8.826,8.8795,8.8897,8.9066,8.91,8.8998,8.9032,8.9066,8.9134,8.9134,8.9168,8.9201,8.9201,8.9201,8.9438,8.9675,8.9647,8.9647,8.9512,8.9478,8.9545,8.9613,9.0053,9.0222,9.0357,9.0527,9.0628,9.0628,9.0938,9.1069,9.1092,9.1077,9.0549,9.029,9.0305,9.0319,9.0202,8.7014,8.7014,8.7014,8.7014,8.7088,8.7512,8.7715,8.7788,8.8231,8.8616,8.88,8.8691,8.8783,8.8966,8.8872,8.907,8.9471,8.9044,8.8653,8.83,8.8244,8.8514,8.8853,8.8926,8.9152,8.9399,8.9482,8.9417,8.9327,8.9435,8.9436,8.932,8.9198,8.9176,8.9132,8.8934,8.8712,8.8487,8.8282,8.8098,8.7925,8.7901,8.7901,8.7901,8.7901,8.7855,8.7761,8.7285,8.6887,8.6716,8.6444,8.6294,8.6329,8.6294,8.651,8.6984,8.7053,8.7363,8.7735,8.7357,8.7052,8.7219,8.686,8.6663,8.6941,8.7414,8.7651,8.7719,8.8091,8.8531,8.87,8.8734,8.8564,8.8429,8.8395,8.8395,8.8598,8.8728,8.8835,8.9032,8.9134,8.9134,8.9134,8.9134,8.9134,8.9168,8.9168,8.9168,8.9235,8.9613,8.985,8.985,9.0188,9.0391,9.0425,9.056,9.0594,9.0425,9.0324,9.0357,9.0729,9.1,9.1169,9.1372,9.1474,9.1643,9.1918,9.2029,9.2019,9.2116,9.1927,9.1693,9.1453,9.1239,9.1052,8.7178,8.7435,8.7472,8.7601,8.7895,8.8463,8.8647,8.872,8.9179,8.9583,8.9749,8.9732,8.9825,9.0008,8.9953,9.0115,9.0498,9.0345,8.9937,8.9328,8.9136,8.9386,8.9821,8.9821,9.0015,9.0288,9.0192,9.0006,8.986,8.9692,8.9543,8.9414,8.9342,8.9299,8.9299,8.9132,8.8934,8.8712,8.8487,8.8236,8.8064,8.7948,8.7901,8.7901,8.7901,8.7855,8.7737,8.7578,8.7322,8.6953,8.6736,8.6708,8.6708,8.7018,8.7363,8.7708,8.7881,8.8088,8.8485,8.7949,8.7872,8.7936,8.7607,8.7482,8.7719,8.8192,8.8395,8.8497,8.8767,8.9134,8.91,8.91,8.9134,8.91,8.9066,8.9134,8.9134,8.9134,8.91,8.9134,8.9134,8.9134,8.9134,8.9134,8.9269,8.941,8.9512,8.9715,8.9884,9.0324,9.0493,9.0662,9.0831,9.1034,9.1237,9.144,9.1677,9.1508,9.1271,9.1338,9.1575,9.1711,9.1846,9.2319,9.2522,9.259,9.2861,9.2861,9.2845,9.3013,9.2973,9.2568,9.2094,9.1858,9.161,8.7619,8.8243,8.828,8.8647,8.9253,8.94,8.9473,8.9473,8.962,9.006,9.0574,9.0647,9.1014,9.1565,9.1345,9.1307,9.1453,9.1211,9.1079,9.0892,9.064,9.0516,9.0456,9.0436,9.0489,9.0521,9.0396,9.0295,9.0192,8.9902,8.9628,8.9586,8.9414,8.932,8.9299,8.9299,8.911,8.8846,8.8667,8.8419,8.818,8.8123,8.8007,8.8042,8.8147,8.81,8.8003,8.8084,8.7913,8.7343,8.7417,8.7501,8.7605,8.8191,8.8467,8.8605,8.8674,8.8743,8.864,8.8429,8.8282,8.8775,8.8415,8.8328,8.8801,8.8897,8.8965,8.8998,8.9066,8.9134,8.9134,8.9134,8.9134,8.9134,8.9134,8.9134,8.9134,8.9134,8.9168,8.9235,8.9201,8.9235,8.9404,8.9438,8.9681,9.0053,9.029,9.0527,9.0865,9.1102,9.1305,9.1474,9.1609,9.188,9.215,9.2286,9.2489,9.2421,9.2252,9.2252,9.2319,9.2421,9.2522,9.2996,9.3296,9.3465,9.347,9.3368,9.3334,9.3385,9.3245,9.2973,9.2671,9.2337,9.1999,8.8886,8.9069,8.9069,8.9216,8.9473,8.9987,9.028,9.0354,9.0922,9.1179,9.1436,9.151,9.1546,9.1803,9.1749,9.173,9.1675,9.1527,9.1433,9.1396,9.1168,9.0858,9.0641,9.0618,9.0618,9.0618,9.0537,9.0457,9.0295,9.0151,8.9944,8.9628,8.9543,8.9414,8.9342,8.9299,8.908,8.8734,8.8658,8.8444,8.8205,8.8545,8.8685,8.8756,8.9247,8.9385,8.9154,8.8912,8.8632,8.8257,8.8259,8.8295,8.8295,8.857,8.8915,8.9329,8.9433,8.9674,8.9957,8.9629,8.9505,8.9594,8.9067,8.8897,8.9066,8.9134,8.9134,8.9134,8.9134,8.9134,8.9134,8.9134,8.9134,8.9134,8.9235,8.9235,8.9168,8.9134,8.9303,8.9782,8.9918,9.0121,9.0425,9.0594,9.0696,9.0932,9.1034,9.1135,9.1541,9.1913,9.2116,9.2353,9.2556,9.2861,9.3098,9.3199,9.3267,9.3267,9.3199,9.3161,9.3165,9.3165,9.3267,9.3533,9.3465,9.3567,9.3567,9.3533,9.3601,9.3601,9.3364,9.3096,9.2852,9.255,9.2245,8.9583,8.9913,8.9913,9.0097,9.0427,9.0922,9.1106,9.1179,9.1546,9.1803,9.1803,9.1803,9.1803,9.1803,9.1803,9.1803,9.1785,9.1694,9.1638,9.1601,9.1415,9.111,9.0799,9.0677,9.0618,9.0618,9.0618,9.0521,9.0437,9.0335,9.0089,8.9818,8.9649,8.95,8.932,8.9299,8.9302,8.9205,8.9118,8.8974,8.9049,8.9295,8.9458,8.9539,8.9924,8.9962,8.9871,8.9514,8.9104,8.8769,8.8846,8.9053,8.9088,8.9364,8.9709,9.0157,9.0192,9.0346,9.0471,9.0234,8.9935,8.9744,8.9323,8.9156,8.9134,8.9134,8.9134,8.9134,8.9134,8.9134,8.9168,8.9342,8.9512,8.9613,8.9816,8.985,8.9613,8.9884,9.0188,9.0527,9.0696,9.0797,9.1271,9.1305,9.1508,9.1677,9.1778,9.1981,9.2319,9.2658,9.2861,9.2996,9.3098,9.3267,9.3334,9.3436,9.3436,9.3533,9.3567,9.3601,9.3601,9.3601,9.3601,9.3601,9.3601,9.3601,9.3601,9.3601,9.3601,9.3542,9.3364,9.3245,9.3036,9.2822,9.2489,9.006,9.0721,9.0739,9.1143,9.1657,9.1767,9.1693,9.1767,9.1767,9.1803,9.1803,9.1803,9.1803,9.1803,9.1803,9.1803,9.1803,9.1785,9.1785,9.173,9.1564,9.1282,9.0956,9.074,9.0641,9.0637,9.0618,9.0618,9.0558,9.0416,9.0213,9.0037,8.9863,8.97,8.9663,8.9598,8.9787,8.9995,8.9852,8.9869,9.0105,9.0221,9.0276,9.0215,9.0168,9.0245,9.0224,8.9994,8.9571,8.8881,8.9467,8.9778,8.9881,9.0467,9.0709,9.0683,9.0656,9.0558,9.0388,9.0126,8.9826,8.9551,8.9268,8.9134,8.9134,8.9134,8.9134,8.9134,8.9168,8.9404,8.9579,8.9985,9.0256,9.0425,9.0932,9.1034,9.0729,9.0966,9.1338,9.1406,9.1406,9.1406,9.1508,9.1575,9.1812,9.2489,9.2556,9.2692,9.2958,9.3131,9.33,9.3431,9.3499,9.3567,9.3567,9.3601,9.3567,9.3601,9.3601,9.3601,9.3601,9.3601,9.3601,9.3601,9.3601,9.3601,9.3601,9.3601,9.3601,9.3571,9.3483,9.3364,9.3245,9.3066,9.2826,9.1363,9.1546,9.1546,9.162,9.1767,9.1803,9.1803,9.1803,9.1803,9.1803,9.1803,9.1803,9.1803,9.1803,9.1803,9.1803,9.1803,9.1803,9.1803,9.1785,9.1601,9.1396,9.113,9.0917,9.074,9.0677,9.0618,9.0618,9.0598,9.059,9.0356,9.0165,9.0579,9.0602,9.0306,9.0571,9.0773,9.07,9.0445,9.0352,9.0514,9.0851,9.0916,9.0766,9.0856,9.096,9.0953,9.0728,9.0502,9.0433,9.0433,9.0467,9.0536,9.0674,9.0786,9.0733,9.0574,9.0441,9.0341,8.9935,8.9572,8.9462,8.924,8.9134,8.9134,8.9168,8.9134,8.9235,8.9613,9.0154,9.0594,9.0899,9.1034,9.1203,9.1711,9.2121,9.1918,9.1575,9.1677,9.2015,9.2155,9.2358,9.2928,9.2924,9.3064,9.33,9.3334,9.3402,9.347,9.3601,9.3601,9.3601,9.3601,9.3601,9.3601,9.3601,9.3601,9.3601,9.3601,9.3601,9.3601,9.3601,9.3601,9.3601,9.3601,9.3601,9.3601,9.3601,9.3601,9.3601,9.3601,9.3512,9.3394,9.3245,9.3096,9.1803,9.1803,9.1803,9.1803,9.1803,9.1803,9.1803,9.1803,9.1803,9.1803,9.1803,9.1803,9.1803,9.1803,9.1803,9.1803,9.1803,9.1803,9.1803,9.1785,9.1675,9.149,9.1244,9.1072,9.0897,9.0677,9.0618,9.0762,9.1032,9.1076,9.1068,9.1079,9.1405,9.1326,9.1055,9.1251,9.1344,9.1409,9.1223,9.1103,9.1367,9.1477,9.1451,9.1185,9.1212,9.1239,9.1022,9.0857,9.0812,9.0786,9.0786,9.0786,9.0786,9.0786,9.076,9.0601,9.0494,9.0199,8.9956,8.9683,8.9468,8.9323,8.9156,8.9128,8.9235,8.9342,8.9613,8.9748,9.0256,9.0899,9.1271,9.1711,9.1778,9.1947,9.2522,9.2928,9.2895,9.259,9.2489,9.2861,9.2962,9.3131,9.3465,9.3567,9.3601,9.3465,9.3465,9.3503,9.3503,9.3601,9.3601,9.3601,9.3601,9.3601,9.3601,9.3601,9.3601,9.3601,9.3601,9.3601,9.3601,9.3601,9.3601,9.3601,9.3601,9.3601,9.3601,9.3601,9.3601,9.3601,9.3601,9.3601,9.3542,9.3423,9.3275,9.1803,9.1803,9.1803,9.1803,9.1803,9.1803,9.1803,9.1803,9.1803,9.1803,9.1803,9.1803,9.1803,9.1803,9.1803,9.1803,9.1803,9.1803,9.1803,9.1803,9.173,9.1655,9.1482,9.1402,9.1353,9.0927,9.0907,9.1249,9.1711,9.1785,9.1793,9.2151,9.2245,9.204,9.1738,9.1704,9.1855,9.2106,9.1915,9.1851,9.2123,9.21,9.1749,9.135,9.1178,9.1083,9.0891,9.0812,9.0786,9.0786,9.0786,9.0786,9.0733,9.0733,9.0654,9.0422,9.028,8.9983,8.9683,8.9462,8.9357,8.91,8.9303,8.9303,8.9444,8.9918,9.029,9.0594,9.1,9.1575,9.1677,9.2218,9.2556,9.2692,9.3233,9.3567,9.3601,9.3601,9.3499,9.3499,9.3398,9.3465,9.3533,9.3601,9.3601,9.3601,9.3601,9.3601,9.3601,9.3601,9.3601,9.3601,9.3601,9.3601,9.3601,9.3601,9.3601,9.3601,9.3601,9.3601,9.3601,9.3601,9.3601,9.3601,9.3601,9.3601,9.3601,9.3601,9.3601,9.3601,9.3601,9.3601,9.3601,9.3601,9.3423,9.1803,9.1803,9.1803,9.1803,9.1803,9.1803,9.1803,9.1803,9.1803,9.1803,9.1803,9.1803,9.1803,9.1803,9.1803,9.1803,9.1803,9.1803,9.184,9.184,9.1803,9.178,9.2135,9.2052,9.2162,9.2308,9.2026,9.2016,9.2456,9.2532,9.2402,9.2302,9.2651,9.2715,9.2509,9.2623,9.2613,9.2552,9.2357,9.2263,9.2135,9.203,9.1778,9.1265,9.1057,9.0891,9.0839,9.0786,9.0786,9.0786,9.0786,9.068,9.0521,9.0502,9.0388,9.0253,8.9929,8.9655,8.9462,8.9301,8.919,8.9235,8.9681,9.0019,9.0188,9.0662,9.1102,9.1406,9.1846,9.2455,9.3131,9.3199,9.33,9.3402,9.3436,9.3601,9.3601,9.3601,9.3601,9.3601,9.3601,9.3601,9.3601,9.3601,9.3601,9.3601,9.3601,9.3601,9.3601,9.3601,9.3601,9.3601,9.3601,9.3601,9.3601,9.3601,9.3601,9.3601,9.3601,9.3601,9.3601,9.3601,9.3601,9.3601,9.3601,9.3601,9.3601,9.3601,9.3601,9.3601,9.3601,9.3601,9.3601,9.3601,9.3601,9.1803,9.1803,9.1803,9.1803,9.1803,9.1803,9.1803,9.1803,9.1803,9.1803,9.1803,9.1803,9.1803,9.1803,9.1803,9.1803,9.1803,9.1803,9.1969,9.2115,9.2186,9.2379,9.282,9.2734,9.3058,9.3251,9.3075,9.2961,9.3269,9.3071,9.2956,9.3113,9.3349,9.3183,9.293,9.2931,9.288,9.2673,9.2403,9.2155,9.1879,9.1778,9.1446,9.1135,9.0891,9.0812,9.0786,9.0786,9.0786,9.076,9.0654,9.0555,9.0368,9.0091,8.9929,8.9908,8.9689,8.944,8.9459,8.9433,8.9681,8.9748,9.0357,9.0729,9.0966,9.1406,9.2015,9.2421,9.2658,9.3165,9.3533,9.3601,9.3601,9.3601,9.3601,9.3601,9.3601,9.3601,9.3601,9.3601,9.3601,9.3601,9.3601,9.3601,9.3601,9.3601,9.3601,9.3601,9.3601,9.3601,9.3601,9.3601,9.3601,9.3601,9.3601,9.3601,9.3601,9.3601,9.3601,9.3601,9.3601,9.3601,9.3601,9.3601,9.3601,9.3601,9.3601,9.3601,9.3601,9.3601,9.3601,9.3601,9.3601,9.3601,9.3601,9.1803,9.1803,9.1803,9.1803,9.1803,9.1803,9.1803,9.1803,9.1803,9.1803,9.1803,9.1803,9.1803,9.1803,9.1803,9.184,9.2024,9.206,9.2371,9.2844,9.2838,9.3027,9.3429,9.3498,9.3639,9.4039,9.3898,9.3992,9.3863,9.358,9.3627,9.357,9.3602,9.3416,9.312,9.288,9.2649,9.2368,9.2095,9.1879,9.1599,9.1343,9.1083,9.0839,9.0786,9.0786,9.0786,9.0707,9.068,9.0601,9.0468,9.0288,9.0146,8.9765,8.9558,8.961,8.9644,8.9505,8.9596,9.0019,9.0425,9.0459,9.1102,9.1406,9.1711,9.2218,9.2895,9.3465,9.3567,9.3533,9.3601,9.3601,9.3601,9.3601,9.3601,9.3601,9.3601,9.3601,9.3601,9.3601,9.3601,9.3601,9.3601,9.3601,9.3601,9.3601,9.3601,9.3601,9.3601,9.3601,9.3601,9.3601,9.3601,9.3601,9.3601,9.3601,9.3601,9.3601,9.3601,9.3601,9.3601,9.3601,9.3601,9.3601,9.3601,9.3601,9.3601,9.3601,9.3601,9.3601,9.3601,9.3601,9.3601,9.3601,9.3601,9.1803,9.1803,9.1803,9.1803,9.1803,9.1803,9.1803,9.1803,9.1803,9.1803,9.1803,9.1803,9.1803,9.1803,9.1877,9.2281,9.2629,9.2774,9.3027,9.3552,9.3445,9.3647,9.4176,9.3954,9.4148,9.4453,9.4314,9.4289,9.407,9.3846,9.3725,9.3591,9.3333,9.3155,9.2867,9.2575,9.2344,9.213,9.1854,9.1599,9.1343,9.1057,9.0865,9.0812,9.0786,9.076,9.0707,9.0609,9.0441,9.0422,9.0207,8.9908,8.9628,8.9545,8.9758,8.9963,9.0115,9.0081,9.0188,9.0763,9.1169,9.1305,9.188,9.2189,9.2489,9.2861,9.3368,9.3533,9.3601,9.3601,9.3601,9.3601,9.3601,9.3601,9.3601,9.3601,9.3601,9.3601,9.3601,9.3601,9.3601,9.3601,9.3601,9.3601,9.3601,9.3601,9.3601,9.3601,9.3601,9.3601,9.3601,9.3601,9.3601,9.3601,9.3601,9.3601,9.3601,9.3601,9.3601,9.3601,9.3601,9.3601,9.3601,9.3601,9.3601,9.3601,9.3601,9.3601,9.3601,9.3601,9.3601,9.3601,9.3601,9.3601,9.3601,9.1803,9.1803,9.1803,9.1803,9.1803,9.1803,9.1803,9.1803,9.1803,9.1803,9.1803,9.1803,9.1803,9.1913,9.2281,9.2647,9.2921,9.321,9.3659,9.414,9.41,9.4259,9.4611,9.4581,9.4677,9.4311,9.4209,9.3865,9.3799,9.3707,9.3603,9.3203,9.2904,9.2638,9.2453,9.218,9.1904,9.1625,9.1343,9.1126,9.1031,9.0865,9.0786,9.0786,9.0654,9.0574,9.0529,9.0341,9.018,9.0126,8.9881,8.9927,9.0033,9.0064,9.0166,9.0792,9.1242,9.1237,9.1,9.1575,9.1846,9.2116,9.259,9.3064,9.3165,9.3334,9.3601,9.3601,9.3601,9.3601,9.3601,9.3601,9.3601,9.3601,9.3601,9.3601,9.3601,9.3601,9.3601,9.3601,9.3601,9.3601,9.3601,9.3601,9.3601,9.3601,9.3601,9.3601,9.3601,9.3601,9.3601,9.3601,9.3601,9.3601,9.3601,9.3601,9.3601,9.3601,9.3601,9.3601,9.3601,9.3601,9.3601,9.3601,9.3601,9.3601,9.3601,9.3601,9.3601,9.3601,9.3601,9.3601,9.3601,9.3601,9.3601,9.1803,9.1803,9.1803,9.1803,9.1803,9.1803,9.1803,9.1803,9.1803,9.1803,9.1803,9.1803,9.1877,9.2189,9.2721,9.3067,9.3447,9.3844,9.4323,9.4629,9.4695,9.4777,9.4791,9.4835,9.4441,9.3959,9.3822,9.3497,9.318,9.312,9.3048,9.277,9.2516,9.2245,9.2005,9.1752,9.1497,9.1213,9.097,9.0812,9.0707,9.0707,9.0627,9.0582,9.0449,9.0315,9.0261,9.0017,8.9881,9.0167,8.9919,9.0092,9.0578,9.0635,9.086,9.1474,9.1952,9.2155,9.2116,9.2421,9.2658,9.2895,9.3098,9.3499,9.3533,9.3601,9.3601,9.3601,9.3601,9.3601,9.3601,9.3601,9.3601,9.3601,9.3601,9.3601,9.3601,9.3601,9.3601,9.3601,9.3601,9.3601,9.3601,9.3601,9.3601,9.3601,9.3601,9.3601,9.3601,9.3601,9.3601,9.3601,9.3601,9.3601,9.3601,9.3601,9.3601,9.3601,9.3601,9.3601,9.3601,9.3601,9.3601,9.3601,9.3601,9.3601,9.3601,9.3601,9.3601,9.3601,9.3601,9.3601,9.3601,9.3601,9.3601,9.1803,9.1803,9.1803,9.1803,9.1803,9.1803,9.1803,9.1803,9.1803,9.1803,9.1803,9.1877,9.2317,9.2831,9.3104,9.3723,9.4909,9.4588,9.4899,9.513,9.5227,9.4921,9.4784,9.441,9.4086,9.3858,9.3474,9.2977,9.2614,9.254,9.2481,9.2382,9.2155,9.1955,9.1727,9.1446,9.1161,9.0891,9.076,9.0601,9.0468,9.0388,9.0341,9.0126,9.0044,9.0017,9.0024,8.9887,9.0083,9.0661,9.0465,9.0686,9.1325,9.1403,9.1782,9.2363,9.26,9.2871,9.3113,9.3194,9.3431,9.3533,9.3567,9.3601,9.3601,9.3601,9.3601,9.3601,9.3601,9.3601,9.3601,9.3601,9.3601,9.3601,9.3601,9.3601,9.3601,9.3601,9.3601,9.3601,9.3601,9.3601,9.3601,9.3601,9.3601,9.3601,9.3601,9.3601,9.3601,9.3601,9.3601,9.3601,9.3601,9.3601,9.3601,9.3601,9.3601,9.3601,9.3601,9.3601,9.3601,9.3601,9.3601,9.3601,9.3601,9.3601,9.3601,9.3601,9.3601,9.3601,9.3601,9.3601,9.3601,9.3601,9.3601,9.1803,9.1803,9.1803,9.1803,9.1803,9.1803,9.1803,9.1803,9.1803,9.1803,9.184,9.2354,9.2794,9.3216,9.4036,9.4431,9.4988,9.5219,9.528,9.5211,9.5029,9.4784,9.4432,9.4096,9.3812,9.3369,9.2904,9.2589,9.228,9.207,9.1819,9.1752,9.1651,9.1574,9.1368,9.1161,9.0839,9.0627,9.0521,9.0388,9.0207,9.0153,9.0099,9.0017,9.0351,9.0425,9.0472,9.0567,9.0935,9.1229,9.124,9.1738,9.2334,9.2498,9.2872,9.3422,9.3524,9.367,9.3699,9.3718,9.3601,9.3601,9.3601,9.3601,9.3601,9.3601,9.3601,9.3601,9.3601,9.3601,9.3601,9.3601,9.3601,9.3601,9.3601,9.3601,9.3601,9.3601,9.3601,9.3601,9.3601,9.3601,9.3601,9.3601,9.3601,9.3601,9.3601,9.3601,9.3601,9.3601,9.3601,9.3601,9.3601,9.3601,9.3601,9.3601,9.3601,9.3601,9.3601,9.3601,9.3601,9.3601,9.3601,9.3601,9.3601,9.3601,9.3601,9.3601,9.3601,9.3601,9.3601,9.3601,9.3601,9.3601,9.3601,9.1803,9.1803,9.1803,9.1803,9.1803,9.1803,9.1803,9.1803,9.1803,9.1987,9.2207,9.2868,9.3381,9.3911,9.4509,9.5098,9.515,9.5265,9.5211,9.5044,9.4763,9.4432,9.405,9.3614,9.3167,9.2746,9.2379,9.208,9.1828,9.1651,9.1446,9.1239,9.1083,9.1057,9.1083,9.0847,9.0548,9.0368,9.0261,9.0324,9.0215,9.0229,9.0385,9.0432,9.0753,9.0867,9.0969,9.1155,9.1585,9.1965,9.2317,9.2799,9.3322,9.3782,9.4021,9.4295,9.4471,9.4385,9.4155,9.3835,9.363,9.3601,9.3601,9.3601,9.3601,9.3601,9.3601,9.3601,9.3601,9.3601,9.3601,9.3601,9.3601,9.3601,9.3601,9.3601,9.3601,9.3601,9.3601,9.3601,9.3601,9.3601,9.3601,9.3601,9.3601,9.3601,9.3601,9.3601,9.3601,9.3601,9.3601,9.3601,9.3601,9.3601,9.3601,9.3601,9.3601,9.3601,9.3601,9.3601,9.3601,9.3601,9.3601,9.3601,9.3601,9.3601,9.3601,9.3601,9.3601,9.3601,9.3601,9.3601,9.3601,9.3601,9.3601,9.1803,9.1803,9.1803,9.1803,9.1803,9.1803,9.1803,9.1803,9.1803,9.2244,9.2905,9.3161,9.3893,9.4747,9.4991,9.5211,9.5363,9.5227,9.5001,9.4784,9.441,9.4073,9.3614,9.3096,9.2662,9.2333,9.1995,9.1651,9.1368,9.1239,9.1083,9.0881,9.0765,9.0651,9.0794,9.0521,9.0288,9.0079,9.0058,9.0304,9.0621,9.0673,9.0833,9.0997,9.1284,9.1385,9.1573,9.1925,9.2441,9.2981,9.3219,9.3736,9.43,9.4437,9.4511,9.458,9.4585,9.4528,9.4443,9.3923,9.3689,9.3601,9.3601,9.3601,9.3601,9.3601,9.3601,9.3601,9.3601,9.3601,9.3601,9.3601,9.3601,9.3601,9.3601,9.3601,9.3601,9.3601,9.3601,9.3601,9.3601,9.3601,9.3601,9.3601,9.3601,9.3601,9.3601,9.3601,9.3601,9.3601,9.3601,9.3601,9.3601,9.3601,9.3601,9.3601,9.3601,9.3601,9.3601,9.3601,9.3601,9.3601,9.3601,9.3601,9.3601,9.3601,9.3601,9.3601,9.3601,9.3601,9.3601,9.3601,9.3601,9.3601,9.3601,9.1803,9.1803,9.1803,9.1803,9.1803,9.1803,9.1803,9.1803,9.184,9.2281,9.3088,9.3602,9.4333,9.5038,9.5423,9.5526,9.5394,9.5193,9.4893,9.4321,9.4086,9.3521,9.3013,9.2627,9.2245,9.1895,9.1574,9.1368,9.1291,9.1021,9.0715,9.0536,9.0802,9.0618,9.0371,9.016,9.0161,9.0453,9.054,9.0667,9.1031,9.1138,9.1216,9.1372,9.1812,9.2165,9.2371,9.2849,9.3452,9.3976,9.4242,9.456,9.4975,9.5037,9.5065,9.5093,9.5093,9.4897,9.4557,9.4097,9.3806,9.3689,9.3601,9.3601,9.3601,9.3601,9.3601,9.3601,9.3601,9.3601,9.3601,9.3601,9.3601,9.3601,9.3601,9.3601,9.3601,9.3601,9.3601,9.3601,9.3601,9.3601,9.3601,9.3601,9.3601,9.3601,9.3601,9.3601,9.3601,9.3601,9.3601,9.3601,9.3601,9.3601,9.3601,9.3601,9.3601,9.3601,9.3601,9.3601,9.3601,9.3601,9.3601,9.3601,9.3601,9.3601,9.3601,9.3601,9.3601,9.3601,9.3601,9.3601,9.3601,9.3601,9.3601,9.1803,9.1803,9.1803,9.1803,9.1803,9.1803,9.1803,9.184,9.2134,9.2721,9.3547,9.4298,9.4952,9.5432,9.5725,9.5654,9.5257,9.5001,9.4609,9.4041,9.3753,9.3239,9.2651,9.222,9.1929,9.1548,9.1187,9.0952,9.0934,9.075,9.0816,9.1029,9.1165,9.1026,9.076,9.067,9.0779,9.0957,9.0946,9.1161,9.1531,9.1773,9.1875,9.2247,9.2673,9.3089,9.3393,9.3895,9.446,9.48,9.5059,9.5171,9.5337,9.5427,9.5427,9.5427,9.5372,9.5065,9.4585,9.4357,9.401,9.363,9.3601,9.3601,9.3601,9.3601,9.3601,9.3601,9.3601,9.3601,9.3601,9.3601,9.3601,9.3601,9.3601,9.3601,9.3601,9.3601,9.3601,9.3601,9.3601,9.3601,9.3601,9.3601,9.3601,9.3601,9.3601,9.3601,9.3601,9.3601,9.3601,9.3601,9.3601,9.3601,9.3601,9.3601,9.3601,9.3601,9.3601,9.3601,9.3601,9.3601,9.3601,9.3601,9.3601,9.3601,9.3601,9.3601,9.3601,9.3601,9.3601,9.3601,9.3601,9.3601,9.3601,9.1803,9.1803,9.1803,9.1803,9.1803,9.1803,9.1803,9.1877,9.2684,9.3492,9.4299,9.4824,9.5382,9.5838,9.5797,9.5425,9.5001,9.4741,9.4321,9.3868,9.3404,9.2821,9.2344,9.1929,9.1548,9.1161,9.0855,9.0651,9.0559,9.0947,9.132,9.1574,9.1687,9.158,9.1489,9.1625,9.1659,9.155,9.1458,9.1836,9.2286,9.2489,9.2725,9.3122,9.3535,9.3777,9.4071,9.4454,9.4772,9.5025,9.5199,9.531,9.5427,9.5427,9.5427,9.5427,9.5427,9.5065,9.4614,9.4443,9.4126,9.3689,9.3601,9.3601,9.3601,9.3601,9.3601,9.3601,9.3601,9.3601,9.3601,9.3601,9.3601,9.3601,9.3601,9.3601,9.3601,9.3601,9.3601,9.3601,9.3601,9.3601,9.3601,9.3601,9.3601,9.3601,9.3601,9.3601,9.3601,9.3601,9.3601,9.3601,9.3601,9.3601,9.3601,9.3601,9.3601,9.3601,9.3601,9.3601,9.3601,9.3601,9.3601,9.3601,9.3601,9.3601,9.3601,9.3601,9.3601,9.3601,9.3601,9.3601,9.3601,9.3601,9.3601,9.1803,9.1803,9.1803,9.1803,9.1803,9.1803,9.1803,9.1913,9.2721,9.3529,9.4336,9.4934,9.5506,9.5943,9.5633,9.5214,9.4784,9.4343,9.3891,9.3427,9.2941,9.2393,9.192,9.1548,9.1135,9.0768,9.0544,9.0569,9.0954,9.1361,9.1427,9.1443,9.2087,9.2107,9.2344,9.274,9.2479,9.2247,9.2116,9.2522,9.2962,9.3131,9.3431,9.3621,9.3889,9.4092,9.4408,9.4721,9.4969,9.5254,9.531,9.5427,9.5427,9.5427,9.5427,9.5427,9.5344,9.5149,9.4642,9.45,9.4241,9.3747,9.3601,9.3601,9.3601,9.3601,9.3601,9.3601,9.3601,9.3601,9.3601,9.3601,9.3601,9.3601,9.3601,9.3601,9.3601,9.3601,9.3601,9.3601,9.3601,9.3601,9.3601,9.3601,9.3601,9.3601,9.3601,9.3601,9.3601,9.3601,9.3601,9.3601,9.3601,9.3601,9.3601,9.3601,9.3601,9.3601,9.3601,9.3601,9.3601,9.3601,9.3601,9.3601,9.3601,9.3601,9.3601,9.3601,9.3601,9.3601,9.3601,9.3601,9.3601,9.3601,9.3601,9.1803,9.1803,9.1803,9.1803,9.1803,9.1803,9.195,9.2427,9.3235,9.4006,9.4776,9.5294,9.5682,9.5866,9.5488,9.5044,9.4711,9.4231,9.3707,9.3037,9.2578,9.2095,9.1651,9.1213,9.0873,9.0536,9.0488,9.0653,9.1135,9.1733,9.199,9.2378,9.2759,9.2827,9.2996,9.3228,9.3228,9.2996,9.2928,9.3165,9.3398,9.3601,9.3659,9.3806,9.4005,9.4357,9.4671,9.4885,9.5199,9.54,9.54,9.5427,9.5427,9.5427,9.5427,9.5427,9.54,9.5065,9.4614,9.45,9.4155,9.3777,9.3601,9.3601,9.3601,9.3601,9.3601,9.3601,9.3601,9.3601,9.3601,9.3601,9.3601,9.3601,9.3601,9.3601,9.3601,9.3601,9.3601,9.3601,9.3601,9.3601,9.3601,9.3601,9.3601,9.3601,9.3601,9.3601,9.3601,9.3601,9.3601,9.3601,9.3601,9.3601,9.3601,9.3601,9.3601,9.3601,9.3601,9.3601,9.3601,9.3601,9.3601,9.3601,9.3601,9.3601,9.3601,9.3601,9.3601,9.3601,9.3601,9.3601,9.3601,9.3601,9.3601,9.1803,9.1803,9.1803,9.1803,9.1803,9.1803,9.2317,9.3235,9.3932,9.474,9.5416,9.5834,9.5984,9.5879,9.532,9.4915,9.4521,9.4073,9.3474,9.2773,9.2393,9.1895,9.142,9.0952,9.0712,9.0569,9.0618,9.0853,9.1201,9.198,9.2885,9.3601,9.3499,9.3431,9.3465,9.3533,9.3499,9.3402,9.3368,9.3499,9.3533,9.363,9.3718,9.401,9.4265,9.4614,9.4891,9.5171,9.5427,9.5427,9.5427,9.5427,9.5427,9.5427,9.5427,9.5427,9.5427,9.5065,9.4671,9.45,9.4155,9.3835,9.3601,9.3601,9.3601,9.3601,9.3601,9.3601,9.3601,9.3601,9.3601,9.3601,9.3601,9.3601,9.3601,9.3601,9.3601,9.3601,9.3601,9.3601,9.3601,9.3601,9.3601,9.3601,9.3601,9.3601,9.3601,9.3601,9.3601,9.3601,9.3601,9.3601,9.3601,9.3601,9.3601,9.3601,9.3601,9.3601,9.3601,9.3601,9.3601,9.3601,9.3601,9.3601,9.3601,9.3601,9.3601,9.3601,9.3601,9.3601,9.3601,9.3601,9.3601,9.3601,9.3601,9.1803,9.1803,9.1803,9.1803,9.1803,9.1803,9.2648,9.3969,9.4189,9.4777,9.5452,9.5854,9.6,9.5899,9.5151,9.4719,9.4521,9.3845,9.3203,9.2662,9.2195,9.1717,9.1239,9.0741,9.067,9.0824,9.0937,9.1246,9.1985,9.2818,9.3334,9.3567,9.3601,9.3601,9.3601,9.3601,9.3601,9.3601,9.3601,9.3601,9.3601,9.363,9.3718,9.4039,9.4357,9.4636,9.4919,9.5199,9.5337,9.5427,9.5427,9.5427,9.5427,9.5427,9.5427,9.5427,9.54,9.5065,9.4699,9.4443,9.4184,9.3806,9.3601,9.3601,9.3601,9.3601,9.3601,9.3601,9.3601,9.3601,9.3601,9.3601,9.3601,9.3601,9.3601,9.3601,9.3601,9.3601,9.3601,9.3601,9.3601,9.3601,9.3601,9.3601,9.3601,9.3601,9.3601,9.3601,9.3601,9.3601,9.3601,9.3601,9.3601,9.3601,9.3601,9.3601,9.3601,9.3601,9.3601,9.3601,9.3601,9.3601,9.3601,9.3601,9.3601,9.3601,9.3601,9.3601,9.3601,9.3601,9.3601,9.3601,9.3601,9.3601,9.3601,9.1803,9.1803,9.1803,9.1803,9.1803,9.1803,9.2758,9.4116,9.4299,9.496,9.5875,9.6,9.6,9.5879,9.5087,9.4587,9.4388,9.3578,9.2917,9.2358,9.197,9.1523,9.1031,9.0529,9.074,9.0926,9.1427,9.1995,9.2827,9.3233,9.3567,9.3601,9.3601,9.3601,9.3601,9.3601,9.3601,9.3601,9.3601,9.3601,9.3601,9.363,9.3835,9.4155,9.4443,9.4693,9.5031,9.531,9.5337,9.5427,9.5427,9.5427,9.5427,9.5427,9.5427,9.5427,9.5344,9.5149,9.4699,9.4414,9.4213,9.3806,9.3601,9.3601,9.3601,9.3601,9.3601,9.3601,9.3601,9.3601,9.3601,9.3601,9.3601,9.3601,9.3601,9.3601,9.3601,9.3601,9.3601,9.3601,9.3601,9.3601,9.3601,9.3601,9.3601,9.3601,9.3601,9.3601,9.3601,9.3601,9.3601,9.3601,9.3601,9.3601,9.3601,9.3601,9.3601,9.3601,9.3601,9.3601,9.3601,9.3601,9.3601,9.3601,9.3601,9.3601,9.3601,9.3601,9.3601,9.3601,9.3601,9.3601,9.3601,9.3601,9.3601,9.1803,9.1803,9.1803,9.1803,9.1803,9.1803,9.2758,9.4116,9.4299,9.518,9.6444,9.6163,9.602,9.5715,9.5108,9.4675,9.4128,9.3544,9.2797,9.216,9.1854,9.1394,9.0873,9.0349,9.0632,9.1317,9.2037,9.2706,9.3465,9.3601,9.3601,9.3601,9.3601,9.3601,9.3601,9.3601,9.3601,9.3601,9.3601,9.3601,9.3601,9.363,9.3952,9.427,9.4528,9.4812,9.5205,9.5427,9.5427,9.5427,9.5427,9.5427,9.5427,9.5427,9.5427,9.5427,9.54,9.5065,9.4642,9.4471,9.4126,9.3777,9.3659,9.3601,9.3601,9.3601,9.3601,9.3601,9.3601,9.3601,9.3601,9.3601,9.3601,9.3601,9.3601,9.3601,9.3601,9.3601,9.3601,9.3601,9.3601,9.3601,9.3601,9.3601,9.3601,9.3601,9.3601,9.3601,9.3601,9.3601,9.3601,9.3601,9.3601,9.3601,9.3601,9.3601,9.3601,9.3601,9.3601,9.3601,9.3601,9.3601,9.3601,9.3601,9.3601,9.3601,9.3601,9.3601,9.3601,9.3601,9.3601,9.3601,9.3601,9.3601,9.3601,9.1803,9.1803,9.1803,9.1803,9.1803,9.1803,9.2758,9.4153,9.4299,9.518,9.6276,9.6239,9.6,9.596,9.5087,9.4543,9.4128,9.3521,9.2748,9.206,9.1803,9.1343,9.0924,9.0603,9.0664,9.1416,9.2469,9.3325,9.3601,9.3601,9.3601,9.3601,9.3601,9.3601,9.3601,9.3601,9.3601,9.3601,9.3601,9.3601,9.3601,9.3689,9.3952,9.4241,9.45,9.4897,9.5233,9.54,9.5427,9.5427,9.5427,9.5427,9.5427,9.5427,9.5427,9.5427,9.5427,9.5065,9.4727,9.4528,9.4155,9.3689,9.3601,9.3601,9.3601,9.3601,9.3601,9.3601,9.3601,9.3601,9.3601,9.3601,9.3601,9.3601,9.3601,9.3601,9.3601,9.3601,9.3601,9.3601,9.3601,9.3601,9.3601,9.3601,9.3601,9.3601,9.3601,9.3601,9.3601,9.3601,9.3601,9.3601,9.3601,9.3601,9.3601,9.3601,9.3601,9.3601,9.3601,9.3601,9.3601,9.3601,9.3601,9.3601,9.3601,9.3601,9.3601,9.3601,9.3601,9.3601,9.3601,9.3601,9.3601,9.3601,9.3601]}]]